<?xml version='1.0' encoding='UTF-8'?><gpx version="1.1" creator="JPX - https://github.com/jenetics/jpx" xmlns="http://www.topografix.com/GPX/1/1"><trk><trkseg><trkpt lat="44.522829814102145" lon="10.888151338761839"><ele>136.0</ele><time>2026-04-04T12:50:49.869Z</time></trkpt><trkpt lat="44.52278858054874" lon="10.88800529950381"><ele>136.0</ele><time>2026-04-04T12:51:21.874Z</time></trkpt><trkpt lat="44.522615745705345" lon="10.887915696958908"><ele>136.0</ele><time>2026-04-04T12:51:22.873Z</time></trkpt><trkpt lat="44.522538317698704" lon="10.887876583848918"><ele>136.0</ele><time>2026-04-04T12:51:26.879Z</time></trkpt><trkpt lat="44.52287561247117" lon="10.88829497479723"><ele>135.66666666666669</ele><time>2026-04-04T12:51:29.825Z</time></trkpt><trkpt lat="44.522909350572334" lon="10.88821430270533"><ele>135.33333333333334</ele><time>2026-04-04T12:52:05.823Z</time></trkpt><trkpt lat="44.52297686364571" lon="10.888142733962042"><ele>135.0</ele><time>2026-04-04T12:52:08.826Z</time></trkpt><trkpt lat="44.52305160290018" lon="10.888226764062946"><ele>134.66666666666666</ele><time>2026-04-04T12:52:10.829Z</time></trkpt><trkpt lat="44.523126278572114" lon="10.888296534265132"><ele>134.33333333333331</ele><time>2026-04-04T12:52:12.829Z</time></trkpt><trkpt lat="44.52320446476673" lon="10.888347885079735"><ele>134.0</ele><time>2026-04-04T12:52:15.824Z</time></trkpt><trkpt lat="44.52326455375457" lon="10.888376374320355"><ele>134.0</ele><time>2026-04-04T12:52:17.824Z</time></trkpt><trkpt lat="44.52335627621321" lon="10.888414588164794"><ele>134.0</ele><time>2026-04-04T12:52:20.828Z</time></trkpt><trkpt lat="44.52342201926612" lon="10.888462125111829"><ele>134.0</ele><time>2026-04-04T12:52:22.826Z</time></trkpt><trkpt lat="44.52348481711819" lon="10.888516084793679"><ele>134.0</ele><time>2026-04-04T12:52:24.824Z</time></trkpt><trkpt lat="44.52355606955992" lon="10.888558423514104"><ele>134.0</ele><time>2026-04-04T12:52:26.828Z</time></trkpt><trkpt lat="44.52362920599175" lon="10.88860974672601"><ele>134.0</ele><time>2026-04-04T12:52:28.827Z</time></trkpt><trkpt lat="44.523714496704564" lon="10.888651465293409"><ele>133.83333333333331</ele><time>2026-04-04T12:52:30.827Z</time></trkpt><trkpt lat="44.5237812480049" lon="10.888706287573997"><ele>133.66666666666666</ele><time>2026-04-04T12:52:32.828Z</time></trkpt><trkpt lat="44.52385504931475" lon="10.888774794106853"><ele>133.5</ele><time>2026-04-04T12:52:34.823Z</time></trkpt><trkpt lat="44.523937562479134" lon="10.888834136548278"><ele>133.33333333333334</ele><time>2026-04-04T12:52:36.828Z</time></trkpt><trkpt lat="44.5240162504615" lon="10.888892133755816"><ele>133.16666666666669</ele><time>2026-04-04T12:52:38.828Z</time></trkpt><trkpt lat="44.52409088916118" lon="10.888972529515001"><ele>133.0</ele><time>2026-04-04T12:52:40.828Z</time></trkpt><trkpt lat="44.52416794322925" lon="10.88904009626011"><ele>133.0</ele><time>2026-04-04T12:52:42.827Z</time></trkpt><trkpt lat="44.52425597228457" lon="10.889092687845366"><ele>133.0</ele><time>2026-04-04T12:52:44.823Z</time></trkpt><trkpt lat="44.52435395996489" lon="10.889109124515661"><ele>133.0</ele><time>2026-04-04T12:52:46.826Z</time></trkpt><trkpt lat="44.52438914057018" lon="10.88902137080183"><ele>133.0</ele><time>2026-04-04T12:52:47.824Z</time></trkpt><trkpt lat="44.52443289575325" lon="10.888912080820683"><ele>133.0</ele><time>2026-04-04T12:52:49.826Z</time></trkpt><trkpt lat="44.52446722328536" lon="10.888802260849129"><ele>133.0</ele><time>2026-04-04T12:52:51.825Z</time></trkpt><trkpt lat="44.524508907103325" lon="10.888698135412511"><ele>133.0</ele><time>2026-04-04T12:52:54Z</time></trkpt><trkpt lat="44.52454853927894" lon="10.888585047195008"><ele>133.0</ele><time>2026-04-04T12:52:56Z</time></trkpt><trkpt lat="44.52458498013371" lon="10.888476444772142"><ele>133.0</ele><time>2026-04-04T12:52:58Z</time></trkpt><trkpt lat="44.52461550347507" lon="10.888364703932679"><ele>133.0</ele><time>2026-04-04T12:53:00Z</time></trkpt><trkpt lat="44.52463817808393" lon="10.888252719182647"><ele>133.0</ele><time>2026-04-04T12:53:02Z</time></trkpt><trkpt lat="44.5246134130197" lon="10.888135191496682"><ele>133.0</ele><time>2026-04-04T12:53:04Z</time></trkpt><trkpt lat="44.524537276794284" lon="10.888063657523935"><ele>133.16666666666669</ele><time>2026-04-04T12:53:06Z</time></trkpt><trkpt lat="44.52446118552376" lon="10.888018816976063"><ele>133.33333333333334</ele><time>2026-04-04T12:53:08Z</time></trkpt><trkpt lat="44.524385505338266" lon="10.887965927785753"><ele>133.5</ele><time>2026-04-04T12:53:10Z</time></trkpt><trkpt lat="44.52430976503118" lon="10.887914836959771"><ele>133.66666666666666</ele><time>2026-04-04T12:53:12Z</time></trkpt><trkpt lat="44.524236777831824" lon="10.887868531449353"><ele>133.83333333333331</ele><time>2026-04-04T12:53:14Z</time></trkpt><trkpt lat="44.52416255418833" lon="10.887850127540835"><ele>134.0</ele><time>2026-04-04T12:53:16Z</time></trkpt><trkpt lat="44.52408726525905" lon="10.887874440111498"><ele>134.0</ele><time>2026-04-04T12:53:18Z</time></trkpt><trkpt lat="44.52400763752627" lon="10.887879720340997"><ele>134.0</ele><time>2026-04-04T12:53:20Z</time></trkpt><trkpt lat="44.523932253094245" lon="10.887820550040187"><ele>134.0</ele><time>2026-04-04T12:53:22Z</time></trkpt><trkpt lat="44.523855550740066" lon="10.887770085856685"><ele>134.0</ele><time>2026-04-04T12:53:24Z</time></trkpt><trkpt lat="44.52377544802486" lon="10.887722050252577"><ele>134.0</ele><time>2026-04-04T12:53:26Z</time></trkpt><trkpt lat="44.52370812289956" lon="10.887665062056238"><ele>134.0</ele><time>2026-04-04T12:53:28Z</time></trkpt><trkpt lat="44.523629822450694" lon="10.887623437640938"><ele>134.0</ele><time>2026-04-04T12:53:30Z</time></trkpt><trkpt lat="44.52355076787813" lon="10.887586371561891"><ele>134.0</ele><time>2026-04-04T12:53:32Z</time></trkpt><trkpt lat="44.523487765269145" lon="10.88752961021772"><ele>134.0</ele><time>2026-04-04T12:53:34Z</time></trkpt><trkpt lat="44.52345867203255" lon="10.887424411249944"><ele>134.0</ele><time>2026-04-04T12:53:37Z</time></trkpt><trkpt lat="44.523513203881556" lon="10.887328644814069"><ele>134.0</ele><time>2026-04-04T12:53:39Z</time></trkpt><trkpt lat="44.52355520961647" lon="10.887224838957165"><ele>134.0</ele><time>2026-04-04T12:53:41Z</time></trkpt><trkpt lat="44.523603219371616" lon="10.88712716346791"><ele>134.0</ele><time>2026-04-04T12:53:43Z</time></trkpt><trkpt lat="44.52363877474812" lon="10.887021571336327"><ele>134.0</ele><time>2026-04-04T12:53:45Z</time></trkpt><trkpt lat="44.52368462740096" lon="10.886908617505071"><ele>134.0</ele><time>2026-04-04T12:53:47Z</time></trkpt><trkpt lat="44.52373930874225" lon="10.886819624599923"><ele>134.0</ele><time>2026-04-04T12:53:49Z</time></trkpt><trkpt lat="44.523783226904946" lon="10.886713426869477"><ele>134.0</ele><time>2026-04-04T12:53:51Z</time></trkpt><trkpt lat="44.523820227127516" lon="10.886600401018976"><ele>134.0</ele><time>2026-04-04T12:53:53Z</time></trkpt><trkpt lat="44.52386402170733" lon="10.886490589586618"><ele>133.83333333333331</ele><time>2026-04-04T12:53:55Z</time></trkpt><trkpt lat="44.52390722173144" lon="10.88636134997989"><ele>133.66666666666666</ele><time>2026-04-04T12:53:57Z</time></trkpt><trkpt lat="44.523946226217284" lon="10.886251970795414"><ele>133.5</ele><time>2026-04-04T12:53:59Z</time></trkpt><trkpt lat="44.52398105960957" lon="10.886148397145782"><ele>133.33333333333334</ele><time>2026-04-04T12:54:01Z</time></trkpt><trkpt lat="44.524025045754165" lon="10.886033324048388"><ele>133.16666666666669</ele><time>2026-04-04T12:54:03Z</time></trkpt><trkpt lat="44.52402785343103" lon="10.885919542078053"><ele>133.0</ele><time>2026-04-04T12:54:05Z</time></trkpt><trkpt lat="44.52394864775781" lon="10.885842472800011"><ele>132.8</ele><time>2026-04-04T12:54:07Z</time></trkpt><trkpt lat="44.52386171330452" lon="10.885804570904845"><ele>132.60000000000002</ele><time>2026-04-04T12:54:09Z</time></trkpt><trkpt lat="44.52378208542364" lon="10.885745323771102"><ele>132.39999999999998</ele><time>2026-04-04T12:54:11Z</time></trkpt><trkpt lat="44.523705305330125" lon="10.885674208614073"><ele>132.2</ele><time>2026-04-04T12:54:13Z</time></trkpt><trkpt lat="44.52366733611044" lon="10.885552279446916"><ele>132.0</ele><time>2026-04-04T12:54:15Z</time></trkpt><trkpt lat="44.52359322660947" lon="10.885483522113493"><ele>132.0</ele><time>2026-04-04T12:54:17Z</time></trkpt><trkpt lat="44.52351768200546" lon="10.885430516383133"><ele>132.0</ele><time>2026-04-04T12:54:19Z</time></trkpt><trkpt lat="44.52343803821834" lon="10.885369297646347"><ele>132.0</ele><time>2026-04-04T12:54:21Z</time></trkpt><trkpt lat="44.523406573389714" lon="10.88525519318127"><ele>132.0</ele><time>2026-04-04T12:54:23Z</time></trkpt><trkpt lat="44.52344006429375" lon="10.88513361990498"><ele>132.0</ele><time>2026-04-04T12:54:25.001Z</time></trkpt><trkpt lat="44.5234627495969" lon="10.885020683713115"><ele>132.0</ele><time>2026-04-04T12:54:27.001Z</time></trkpt><trkpt lat="44.52346941111185" lon="10.884908952492003"><ele>132.0</ele><time>2026-04-04T12:54:29.001Z</time></trkpt><trkpt lat="44.52339970623278" lon="10.884832533929373"><ele>132.0</ele><time>2026-04-04T12:54:31.001Z</time></trkpt><trkpt lat="44.523318576356964" lon="10.88479425824536"><ele>132.0</ele><time>2026-04-04T12:54:33.001Z</time></trkpt><trkpt lat="44.52325342366459" lon="10.884753133697878"><ele>132.0</ele><time>2026-04-04T12:54:35.001Z</time></trkpt><trkpt lat="44.52318378517995" lon="10.884691169813197"><ele>132.0</ele><time>2026-04-04T12:54:37.001Z</time></trkpt><trkpt lat="44.5231173004724" lon="10.884632307056187"><ele>132.0</ele><time>2026-04-04T12:54:39.001Z</time></trkpt><trkpt lat="44.523044792166495" lon="10.88460657261103"><ele>132.0</ele><time>2026-04-04T12:54:41.001Z</time></trkpt><trkpt lat="44.52297275500594" lon="10.884567540480582"><ele>132.0</ele><time>2026-04-04T12:54:43.001Z</time></trkpt><trkpt lat="44.522902925076785" lon="10.8845344695927"><ele>132.0</ele><time>2026-04-04T12:54:45.001Z</time></trkpt><trkpt lat="44.52281360573338" lon="10.884511864589445"><ele>132.0</ele><time>2026-04-04T12:54:48.001Z</time></trkpt><trkpt lat="44.52278403706114" lon="10.884425294093145"><ele>132.0</ele><time>2026-04-04T12:54:50.001Z</time></trkpt><trkpt lat="44.522826275800774" lon="10.884342409364907"><ele>132.0</ele><time>2026-04-04T12:54:52.001Z</time></trkpt><trkpt lat="44.52287199891439" lon="10.884233269840909"><ele>132.0</ele><time>2026-04-04T12:54:55.001Z</time></trkpt><trkpt lat="44.52291689005258" lon="10.884114355824881"><ele>132.0</ele><time>2026-04-04T12:54:58.001Z</time></trkpt><trkpt lat="44.52294830854075" lon="10.884034873632894"><ele>132.0</ele><time>2026-04-04T12:55:00.002Z</time></trkpt><trkpt lat="44.522978814924194" lon="10.883950811238204"><ele>132.0</ele><time>2026-04-04T12:55:02.002Z</time></trkpt><trkpt lat="44.5230097679735" lon="10.883860954317099"><ele>132.0</ele><time>2026-04-04T12:55:04.002Z</time></trkpt><trkpt lat="44.52303932297046" lon="10.883772432611664"><ele>132.0</ele><time>2026-04-04T12:55:06.002Z</time></trkpt><trkpt lat="44.523077880662974" lon="10.883684559440505"><ele>132.0</ele><time>2026-04-04T12:55:08.002Z</time></trkpt><trkpt lat="44.52311133176349" lon="10.88358853201283"><ele>132.0</ele><time>2026-04-04T12:55:10.002Z</time></trkpt><trkpt lat="44.52314249377265" lon="10.88349238122883"><ele>132.0</ele><time>2026-04-04T12:55:12.002Z</time></trkpt><trkpt lat="44.523178723282264" lon="10.883395222924987"><ele>132.0</ele><time>2026-04-04T12:55:14.001Z</time></trkpt><trkpt lat="44.52321150636922" lon="10.883296391324125"><ele>132.0</ele><time>2026-04-04T12:55:16.001Z</time></trkpt><trkpt lat="44.52329924242984" lon="10.88328355120486"><ele>132.0</ele><time>2026-04-04T12:55:19.001Z</time></trkpt><trkpt lat="44.52338963791972" lon="10.883375781911557"><ele>132.0</ele><time>2026-04-04T12:55:21.001Z</time></trkpt><trkpt lat="44.523473448488616" lon="10.883368414994104"><ele>132.4</ele><time>2026-04-04T12:55:23.001Z</time></trkpt><trkpt lat="44.5235179544676" lon="10.883240486897211"><ele>132.79999999999998</ele><time>2026-04-04T12:55:25.001Z</time></trkpt><trkpt lat="44.52355328692637" lon="10.883118985779065"><ele>133.2</ele><time>2026-04-04T12:55:27.001Z</time></trkpt><trkpt lat="44.52359585401674" lon="10.883004909521327"><ele>133.6</ele><time>2026-04-04T12:55:29.001Z</time></trkpt><trkpt lat="44.52363769882796" lon="10.882879909581881"><ele>134.0</ele><time>2026-04-04T12:55:31Z</time></trkpt><trkpt lat="44.52368354143322" lon="10.882756489394566"><ele>134.0</ele><time>2026-04-04T12:55:33Z</time></trkpt><trkpt lat="44.52372428741985" lon="10.88263589364856"><ele>134.0</ele><time>2026-04-04T12:55:35Z</time></trkpt><trkpt lat="44.523761952733636" lon="10.882505816528395"><ele>134.0</ele><time>2026-04-04T12:55:37Z</time></trkpt><trkpt lat="44.523808427983326" lon="10.882382775643238"><ele>134.0</ele><time>2026-04-04T12:55:39Z</time></trkpt><trkpt lat="44.52385561611568" lon="10.88225366114574"><ele>134.0</ele><time>2026-04-04T12:55:41Z</time></trkpt><trkpt lat="44.5238951688733" lon="10.882128073345996"><ele>134.0</ele><time>2026-04-04T12:55:43Z</time></trkpt><trkpt lat="44.523935295646105" lon="10.882005052667372"><ele>134.0</ele><time>2026-04-04T12:55:45Z</time></trkpt><trkpt lat="44.523977214989586" lon="10.881880492248927"><ele>134.0</ele><time>2026-04-04T12:55:47Z</time></trkpt><trkpt lat="44.52401707890352" lon="10.881752278772712"><ele>134.0</ele><time>2026-04-04T12:55:49Z</time></trkpt><trkpt lat="44.524056885249415" lon="10.881622732871934"><ele>134.0</ele><time>2026-04-04T12:55:51Z</time></trkpt><trkpt lat="44.52410178214837" lon="10.881496763959934"><ele>134.2</ele><time>2026-04-04T12:55:53Z</time></trkpt><trkpt lat="44.524143886938646" lon="10.881367764019634"><ele>134.4</ele><time>2026-04-04T12:55:55Z</time></trkpt><trkpt lat="44.52418540061448" lon="10.881235092353183"><ele>134.6</ele><time>2026-04-04T12:55:57Z</time></trkpt><trkpt lat="44.52422944197555" lon="10.881094126172634"><ele>134.8</ele><time>2026-04-04T12:55:59Z</time></trkpt><trkpt lat="44.52427279381522" lon="10.880960893216745"><ele>135.0</ele><time>2026-04-04T12:56:01Z</time></trkpt><trkpt lat="44.52431216054697" lon="10.880825750704537"><ele>135.0</ele><time>2026-04-04T12:56:03Z</time></trkpt><trkpt lat="44.52435805845245" lon="10.880694086221398"><ele>135.0</ele><time>2026-04-04T12:56:05Z</time></trkpt><trkpt lat="44.52440574039308" lon="10.880560315628436"><ele>135.0</ele><time>2026-04-04T12:56:07Z</time></trkpt><trkpt lat="44.524451890335534" lon="10.880417691238607"><ele>135.0</ele><time>2026-04-04T12:56:09Z</time></trkpt><trkpt lat="44.524499919454634" lon="10.880276341443158"><ele>135.0</ele><time>2026-04-04T12:56:11Z</time></trkpt><trkpt lat="44.52453958014136" lon="10.88013692875669"><ele>134.8</ele><time>2026-04-04T12:56:13Z</time></trkpt><trkpt lat="44.52458789058224" lon="10.880005033661378"><ele>134.6</ele><time>2026-04-04T12:56:15Z</time></trkpt><trkpt lat="44.52462280588924" lon="10.87986077598941"><ele>134.4</ele><time>2026-04-04T12:56:17Z</time></trkpt><trkpt lat="44.524651515382004" lon="10.87972060349075"><ele>134.2</ele><time>2026-04-04T12:56:19Z</time></trkpt><trkpt lat="44.524682541860216" lon="10.87959335104864"><ele>134.0</ele><time>2026-04-04T12:56:21Z</time></trkpt><trkpt lat="44.524721726447545" lon="10.879460405692903"><ele>134.0</ele><time>2026-04-04T12:56:23Z</time></trkpt><trkpt lat="44.52475885969552" lon="10.879383603200814"><ele>134.0</ele><time>2026-04-04T12:56:27.999Z</time></trkpt><trkpt lat="44.52484400162577" lon="10.879403525801278"><ele>134.0</ele><time>2026-04-04T12:56:30.999Z</time></trkpt><trkpt lat="44.52491810806348" lon="10.879417096546154"><ele>134.0</ele><time>2026-04-04T12:56:32.999Z</time></trkpt><trkpt lat="44.52501206610824" lon="10.879389906212442"><ele>134.0</ele><time>2026-04-04T12:56:34.999Z</time></trkpt><trkpt lat="44.52510749636275" lon="10.879395057551745"><ele>134.0</ele><time>2026-04-04T12:56:36.999Z</time></trkpt><trkpt lat="44.52520982595229" lon="10.879379432104066"><ele>134.0</ele><time>2026-04-04T12:56:38.999Z</time></trkpt><trkpt lat="44.52531857772014" lon="10.879375581540284"><ele>134.0</ele><time>2026-04-04T12:56:40.999Z</time></trkpt><trkpt lat="44.52542838836694" lon="10.8794155669124"><ele>134.0</ele><time>2026-04-04T12:56:42.999Z</time></trkpt><trkpt lat="44.525542176108516" lon="10.879426240860475"><ele>134.0</ele><time>2026-04-04T12:56:44.999Z</time></trkpt><trkpt lat="44.52565420540307" lon="10.879417578178499"><ele>134.0</ele><time>2026-04-04T12:56:46.999Z</time></trkpt><trkpt lat="44.525765563191854" lon="10.879436329838043"><ele>133.6</ele><time>2026-04-04T12:56:48.999Z</time></trkpt><trkpt lat="44.52588815275073" lon="10.879452857089511"><ele>133.2</ele><time>2026-04-04T12:56:50.999Z</time></trkpt><trkpt lat="44.525951141683734" lon="10.879459011983032"><ele>132.79999999999998</ele><time>2026-04-04T12:56:51.999Z</time></trkpt><trkpt lat="44.52606855340294" lon="10.879478334726972"><ele>132.4</ele><time>2026-04-04T12:56:53.999Z</time></trkpt><trkpt lat="44.52613420099075" lon="10.879489987894013"><ele>132.0</ele><time>2026-04-04T12:56:54.999Z</time></trkpt><trkpt lat="44.52625576159977" lon="10.879517230382502"><ele>132.0</ele><time>2026-04-04T12:56:56.999Z</time></trkpt><trkpt lat="44.52632288305933" lon="10.879533057641032"><ele>132.0</ele><time>2026-04-04T12:56:57.999Z</time></trkpt><trkpt lat="44.526387870951794" lon="10.879559272094596"><ele>132.0</ele><time>2026-04-04T12:56:58.999Z</time></trkpt><trkpt lat="44.52645723105788" lon="10.879581235725743"><ele>132.0</ele><time>2026-04-04T12:56:59.999Z</time></trkpt><trkpt lat="44.52652491159451" lon="10.879605847099029"><ele>132.0</ele><time>2026-04-04T12:57:00.999Z</time></trkpt><trkpt lat="44.52658630104613" lon="10.879652828937152"><ele>132.0</ele><time>2026-04-04T12:57:01.999Z</time></trkpt><trkpt lat="44.52665081787672" lon="10.879660424476922"><ele>132.0</ele><time>2026-04-04T12:57:02.999Z</time></trkpt><trkpt lat="44.52670681916141" lon="10.879705687128997"><ele>132.0</ele><time>2026-04-04T12:57:03.999Z</time></trkpt><trkpt lat="44.52682084961061" lon="10.879747804680964"><ele>132.0</ele><time>2026-04-04T12:57:06.001Z</time></trkpt><trkpt lat="44.52688028437735" lon="10.879780393878326"><ele>132.0</ele><time>2026-04-04T12:57:07.001Z</time></trkpt><trkpt lat="44.526943500668274" lon="10.87980925462902"><ele>132.0</ele><time>2026-04-04T12:57:08.001Z</time></trkpt><trkpt lat="44.527017015324134" lon="10.879842195855073"><ele>132.0</ele><time>2026-04-04T12:57:09.001Z</time></trkpt><trkpt lat="44.527087331412204" lon="10.879863145342998"><ele>132.0</ele><time>2026-04-04T12:57:10.001Z</time></trkpt><trkpt lat="44.52715557442655" lon="10.87988138293317"><ele>131.33333333333334</ele><time>2026-04-04T12:57:11.001Z</time></trkpt><trkpt lat="44.52722337249906" lon="10.879905747248356"><ele>130.66666666666666</ele><time>2026-04-04T12:57:12.001Z</time></trkpt><trkpt lat="44.52730183105235" lon="10.879929868541403"><ele>130.0</ele><time>2026-04-04T12:57:13.001Z</time></trkpt><trkpt lat="44.527382700248644" lon="10.87994486824783"><ele>129.33333333333331</ele><time>2026-04-04T12:57:14.001Z</time></trkpt><trkpt lat="44.52745800072969" lon="10.879958425521215"><ele>128.66666666666666</ele><time>2026-04-04T12:57:15.001Z</time></trkpt><trkpt lat="44.52753595636359" lon="10.879955217139338"><ele>128.0</ele><time>2026-04-04T12:57:16.001Z</time></trkpt><trkpt lat="44.52761279746997" lon="10.879947052504019"><ele>127.99999999999999</ele><time>2026-04-04T12:57:17.001Z</time></trkpt><trkpt lat="44.527689946175954" lon="10.879933242836422"><ele>128.0</ele><time>2026-04-04T12:57:18.001Z</time></trkpt><trkpt lat="44.5277706479627" lon="10.879925325023851"><ele>128.0</ele><time>2026-04-04T12:57:19.001Z</time></trkpt><trkpt lat="44.527848774731304" lon="10.879910186409246"><ele>128.0</ele><time>2026-04-04T12:57:20.001Z</time></trkpt><trkpt lat="44.527925285311774" lon="10.87989598698015"><ele>127.99999999999999</ele><time>2026-04-04T12:57:21Z</time></trkpt><trkpt lat="44.527999025021145" lon="10.879909509290048"><ele>128.0</ele><time>2026-04-04T12:57:22Z</time></trkpt><trkpt lat="44.52807415742515" lon="10.879900299228462"><ele>127.99999999999999</ele><time>2026-04-04T12:57:23Z</time></trkpt><trkpt lat="44.528149139360366" lon="10.879871731277234"><ele>128.0</ele><time>2026-04-04T12:57:24Z</time></trkpt><trkpt lat="44.52821871921176" lon="10.879866941689743"><ele>128.0</ele><time>2026-04-04T12:57:25Z</time></trkpt><trkpt lat="44.52829203203509" lon="10.879855512986113"><ele>128.0</ele><time>2026-04-04T12:57:26Z</time></trkpt><trkpt lat="44.528374547777005" lon="10.879831956732145"><ele>127.99999999999999</ele><time>2026-04-04T12:57:27Z</time></trkpt><trkpt lat="44.52844564615767" lon="10.879811716007827"><ele>128.0</ele><time>2026-04-04T12:57:28Z</time></trkpt><trkpt lat="44.5285156627438" lon="10.879786977447752"><ele>128.0</ele><time>2026-04-04T12:57:29Z</time></trkpt><trkpt lat="44.52858872787716" lon="10.879752506632355"><ele>127.99999999999999</ele><time>2026-04-04T12:57:30Z</time></trkpt><trkpt lat="44.528654675558315" lon="10.87972624368975"><ele>128.0</ele><time>2026-04-04T12:57:31Z</time></trkpt><trkpt lat="44.52871895223582" lon="10.879708066395677"><ele>128.0</ele><time>2026-04-04T12:57:32Z</time></trkpt><trkpt lat="44.52878333105722" lon="10.879678149174971"><ele>127.99999999999999</ele><time>2026-04-04T12:57:33Z</time></trkpt><trkpt lat="44.52884494150584" lon="10.879651076207661"><ele>128.0</ele><time>2026-04-04T12:57:34Z</time></trkpt><trkpt lat="44.52890125470844" lon="10.879608354716472"><ele>128.0</ele><time>2026-04-04T12:57:35Z</time></trkpt><trkpt lat="44.52899098131666" lon="10.879589301836708"><ele>127.83333333333333</ele><time>2026-04-04T12:57:37Z</time></trkpt><trkpt lat="44.52904177162244" lon="10.879527535057166"><ele>127.66666666666666</ele><time>2026-04-04T12:57:45Z</time></trkpt><trkpt lat="44.529052649585836" lon="10.879379988055918"><ele>127.5</ele><time>2026-04-04T12:57:48Z</time></trkpt><trkpt lat="44.52912944269039" lon="10.879337260548368"><ele>127.33333333333334</ele><time>2026-04-04T12:57:50Z</time></trkpt><trkpt lat="44.52921781045251" lon="10.879352997280401"><ele>127.16666666666667</ele><time>2026-04-04T12:57:52Z</time></trkpt><trkpt lat="44.52931391598214" lon="10.879348554471246"><ele>127.0</ele><time>2026-04-04T12:57:54Z</time></trkpt><trkpt lat="44.52941463306843" lon="10.879365275300776"><ele>127.0</ele><time>2026-04-04T12:57:56Z</time></trkpt><trkpt lat="44.52952062290754" lon="10.879349469968822"><ele>126.99999999999999</ele><time>2026-04-04T12:57:58Z</time></trkpt><trkpt lat="44.52963142094802" lon="10.87935591420976"><ele>126.99999999999999</ele><time>2026-04-04T12:58:00Z</time></trkpt><trkpt lat="44.52974751749148" lon="10.87935501022877"><ele>127.0</ele><time>2026-04-04T12:58:02Z</time></trkpt><trkpt lat="44.52980835797841" lon="10.879380628615678"><ele>127.0</ele><time>2026-04-04T12:58:03Z</time></trkpt><trkpt lat="44.52993011192376" lon="10.87935726007091"><ele>127.0</ele><time>2026-04-04T12:58:05Z</time></trkpt><trkpt lat="44.53005406307069" lon="10.879359350237609"><ele>126.99999999999999</ele><time>2026-04-04T12:58:06.999Z</time></trkpt><trkpt lat="44.53011702455448" lon="10.879360163837799"><ele>126.99999999999999</ele><time>2026-04-04T12:58:07.999Z</time></trkpt><trkpt lat="44.530241295591985" lon="10.87936376597634"><ele>127.0</ele><time>2026-04-04T12:58:09.999Z</time></trkpt><trkpt lat="44.530368002999" lon="10.87939853093471"><ele>127.0</ele><time>2026-04-04T12:58:11.999Z</time></trkpt><trkpt lat="44.53043712931751" lon="10.879360695503312"><ele>126.71428571428572</ele><time>2026-04-04T12:58:12.999Z</time></trkpt><trkpt lat="44.53050715715262" lon="10.879366902597958"><ele>126.42857142857142</ele><time>2026-04-04T12:58:13.999Z</time></trkpt><trkpt lat="44.53057594160078" lon="10.879353235915284"><ele>126.14285714285714</ele><time>2026-04-04T12:58:14.999Z</time></trkpt><trkpt lat="44.53063336626963" lon="10.879280864655954"><ele>125.85714285714286</ele><time>2026-04-04T12:58:15.999Z</time></trkpt><trkpt lat="44.530636556777296" lon="10.879181929558744"><ele>125.57142857142858</ele><time>2026-04-04T12:58:16.999Z</time></trkpt><trkpt lat="44.53062505046341" lon="10.879085053801507"><ele>125.28571428571428</ele><time>2026-04-04T12:58:17.999Z</time></trkpt><trkpt lat="44.53061901334274" lon="10.87899063824829"><ele>125.0</ele><time>2026-04-04T12:58:18.999Z</time></trkpt><trkpt lat="44.53061855803492" lon="10.878902329379088"><ele>124.99999999999999</ele><time>2026-04-04T12:58:19.999Z</time></trkpt><trkpt lat="44.530618743963814" lon="10.878807940401966"><ele>125.0</ele><time>2026-04-04T12:58:20.999Z</time></trkpt><trkpt lat="44.53061614701848" lon="10.878711026321978"><ele>125.0</ele><time>2026-04-04T12:58:21.999Z</time></trkpt><trkpt lat="44.530616207991216" lon="10.87861970924977"><ele>125.0</ele><time>2026-04-04T12:58:22.999Z</time></trkpt><trkpt lat="44.530616304192556" lon="10.878531135329178"><ele>124.99999999999999</ele><time>2026-04-04T12:58:23.999Z</time></trkpt><trkpt lat="44.53061493038832" lon="10.878363658684643"><ele>125.0</ele><time>2026-04-04T12:58:25.999Z</time></trkpt><trkpt lat="44.53061558929031" lon="10.878190833279891"><ele>124.75</ele><time>2026-04-04T12:58:27.999Z</time></trkpt><trkpt lat="44.530614246617446" lon="10.878016745002776"><ele>124.5</ele><time>2026-04-04T12:58:29.999Z</time></trkpt><trkpt lat="44.530618838781855" lon="10.877846979369602"><ele>124.25</ele><time>2026-04-04T12:58:31.999Z</time></trkpt><trkpt lat="44.530617292496224" lon="10.877675782410641"><ele>124.0</ele><time>2026-04-04T12:58:33.999Z</time></trkpt><trkpt lat="44.530619853759056" lon="10.877510929570265"><ele>123.75</ele><time>2026-04-04T12:58:35.999Z</time></trkpt><trkpt lat="44.53063308869841" lon="10.877347465102622"><ele>123.5</ele><time>2026-04-04T12:58:37.999Z</time></trkpt><trkpt lat="44.53063604732637" lon="10.877184422103664"><ele>123.25</ele><time>2026-04-04T12:58:39.999Z</time></trkpt><trkpt lat="44.53063230254198" lon="10.877026415468839"><ele>123.0</ele><time>2026-04-04T12:58:41.999Z</time></trkpt><trkpt lat="44.530634616376084" lon="10.876865429287019"><ele>122.75</ele><time>2026-04-04T12:58:43.999Z</time></trkpt><trkpt lat="44.53063930020368" lon="10.876702794769216"><ele>122.5</ele><time>2026-04-04T12:58:45.999Z</time></trkpt><trkpt lat="44.53064410807951" lon="10.876540271719088"><ele>122.25</ele><time>2026-04-04T12:58:47.999Z</time></trkpt><trkpt lat="44.53064418267711" lon="10.876378271357018"><ele>122.0</ele><time>2026-04-04T12:58:49.999Z</time></trkpt><trkpt lat="44.5306486388807" lon="10.876212732430506"><ele>122.0</ele><time>2026-04-04T12:58:51.999Z</time></trkpt><trkpt lat="44.530648899533254" lon="10.876046303769892"><ele>122.0</ele><time>2026-04-04T12:58:53.999Z</time></trkpt><trkpt lat="44.53064915035523" lon="10.875878783617857"><ele>122.0</ele><time>2026-04-04T12:58:55.999Z</time></trkpt><trkpt lat="44.53065462669703" lon="10.875714078768103"><ele>122.0</ele><time>2026-04-04T12:58:57.999Z</time></trkpt><trkpt lat="44.53065528772638" lon="10.875546596401271"><ele>122.0</ele><time>2026-04-04T12:58:59.999Z</time></trkpt><trkpt lat="44.530651528477826" lon="10.875385294037544"><ele>121.99999999999999</ele><time>2026-04-04T12:59:01.999Z</time></trkpt><trkpt lat="44.53068196512122" lon="10.87521983707916"><ele>121.99999999999999</ele><time>2026-04-04T12:59:03.999Z</time></trkpt><trkpt lat="44.530738016003376" lon="10.875105314129042"><ele>122.0</ele><time>2026-04-04T12:59:05.999Z</time></trkpt><trkpt lat="44.5308149084682" lon="10.875011361349609"><ele>122.0</ele><time>2026-04-04T12:59:07.999Z</time></trkpt><trkpt lat="44.53089615869481" lon="10.874909680199924"><ele>122.19999999999999</ele><time>2026-04-04T12:59:09.999Z</time></trkpt><trkpt lat="44.53099148398671" lon="10.874831026740496"><ele>122.39999999999999</ele><time>2026-04-04T12:59:12Z</time></trkpt><trkpt lat="44.5310667160824" lon="10.874730939531782"><ele>122.60000000000001</ele><time>2026-04-04T12:59:14Z</time></trkpt><trkpt lat="44.53115648368268" lon="10.874793156351387"><ele>122.80000000000001</ele><time>2026-04-04T12:59:15Z</time></trkpt><trkpt lat="44.53127398411034" lon="10.874844757358058"><ele>123.0</ele><time>2026-04-04T12:59:17Z</time></trkpt><trkpt lat="44.53139627732168" lon="10.874835683037823"><ele>123.0</ele><time>2026-04-04T12:59:19Z</time></trkpt><trkpt lat="44.531460388241065" lon="10.874810835078417"><ele>123.0</ele><time>2026-04-04T12:59:20Z</time></trkpt><trkpt lat="44.53152007958862" lon="10.87477679208649"><ele>123.0</ele><time>2026-04-04T12:59:21Z</time></trkpt><trkpt lat="44.531577274665054" lon="10.874732673586319"><ele>123.0</ele><time>2026-04-04T12:59:22Z</time></trkpt><trkpt lat="44.53168343322947" lon="10.87463881358428"><ele>123.0</ele><time>2026-04-04T12:59:24Z</time></trkpt><trkpt lat="44.531728832286205" lon="10.874577433668557"><ele>123.0</ele><time>2026-04-04T12:59:25Z</time></trkpt><trkpt lat="44.53179835402141" lon="10.87448157890618"><ele>123.0</ele><time>2026-04-04T12:59:27Z</time></trkpt><trkpt lat="44.53191187677603" lon="10.874580647880727"><ele>123.0</ele><time>2026-04-04T12:59:28Z</time></trkpt><trkpt lat="44.53196823195169" lon="10.874631085336475"><ele>123.0</ele><time>2026-04-04T12:59:29Z</time></trkpt><trkpt lat="44.532016093499365" lon="10.874695698057286"><ele>123.0</ele><time>2026-04-04T12:59:30Z</time></trkpt><trkpt lat="44.53206493622186" lon="10.874757550764006"><ele>123.0</ele><time>2026-04-04T12:59:31Z</time></trkpt><trkpt lat="44.53212889471274" lon="10.874813650349994"><ele>123.0</ele><time>2026-04-04T12:59:32Z</time></trkpt><trkpt lat="44.532185680736276" lon="10.874869395024117"><ele>123.14285714285717</ele><time>2026-04-04T12:59:33Z</time></trkpt><trkpt lat="44.53223685859973" lon="10.874922765012045"><ele>123.28571428571429</ele><time>2026-04-04T12:59:34Z</time></trkpt><trkpt lat="44.53229273372356" lon="10.874981111861574"><ele>123.42857142857144</ele><time>2026-04-04T12:59:35Z</time></trkpt><trkpt lat="44.53234506348258" lon="10.875042815576156"><ele>123.57142857142858</ele><time>2026-04-04T12:59:36Z</time></trkpt><trkpt lat="44.53240384677568" lon="10.8751007001452"><ele>123.71428571428572</ele><time>2026-04-04T12:59:37Z</time></trkpt><trkpt lat="44.53245802913695" lon="10.87515722355628"><ele>123.85714285714286</ele><time>2026-04-04T12:59:38Z</time></trkpt><trkpt lat="44.53251289414405" lon="10.875211255070955"><ele>124.0</ele><time>2026-04-04T12:59:39Z</time></trkpt><trkpt lat="44.53256893640605" lon="10.875268319034877"><ele>123.50000000000001</ele><time>2026-04-04T12:59:40Z</time></trkpt><trkpt lat="44.53262040368628" lon="10.875327363474964"><ele>123.0</ele><time>2026-04-04T12:59:41Z</time></trkpt><trkpt lat="44.532673759512925" lon="10.875376827568527"><ele>122.5</ele><time>2026-04-04T12:59:42Z</time></trkpt><trkpt lat="44.53273062878" lon="10.87544117073028"><ele>122.0</ele><time>2026-04-04T12:59:43Z</time></trkpt><trkpt lat="44.532781268591" lon="10.875498045641283"><ele>121.50000000000001</ele><time>2026-04-04T12:59:44Z</time></trkpt><trkpt lat="44.53283864545665" lon="10.875540464549895"><ele>121.0</ele><time>2026-04-04T12:59:45Z</time></trkpt><trkpt lat="44.53294434316532" lon="10.875639582203037"><ele>120.8</ele><time>2026-04-04T12:59:47Z</time></trkpt><trkpt lat="44.53300481316855" lon="10.875677526443612"><ele>120.6</ele><time>2026-04-04T12:59:48Z</time></trkpt><trkpt lat="44.53307755806444" lon="10.875707431716837"><ele>120.4</ele><time>2026-04-04T12:59:49Z</time></trkpt><trkpt lat="44.53319587600883" lon="10.875760430759916"><ele>120.2</ele><time>2026-04-04T12:59:51Z</time></trkpt><trkpt lat="44.53332094492607" lon="10.875788573236031"><ele>120.0</ele><time>2026-04-04T12:59:53Z</time></trkpt><trkpt lat="44.53344206476795" lon="10.875833128087844"><ele>120.0</ele><time>2026-04-04T12:59:55Z</time></trkpt><trkpt lat="44.5335098083574" lon="10.875846223608725"><ele>120.0</ele><time>2026-04-04T12:59:56Z</time></trkpt><trkpt lat="44.533625179257065" lon="10.875892586182896"><ele>120.0</ele><time>2026-04-04T12:59:58Z</time></trkpt><trkpt lat="44.53368315717172" lon="10.875928502878281"><ele>120.0</ele><time>2026-04-04T12:59:59Z</time></trkpt><trkpt lat="44.53374812815855" lon="10.875954956855729"><ele>120.0</ele><time>2026-04-04T13:00:00Z</time></trkpt><trkpt lat="44.533813029191876" lon="10.875978810985025"><ele>120.0</ele><time>2026-04-04T13:00:01Z</time></trkpt><trkpt lat="44.53387508870493" lon="10.876016564988308"><ele>119.66666666666667</ele><time>2026-04-04T13:00:02Z</time></trkpt><trkpt lat="44.533929637212026" lon="10.876078796302476"><ele>119.33333333333334</ele><time>2026-04-04T13:00:03Z</time></trkpt><trkpt lat="44.533990019548646" lon="10.876137185924332"><ele>119.0</ele><time>2026-04-04T13:00:03.999Z</time></trkpt><trkpt lat="44.534048906207055" lon="10.876203235083848"><ele>118.66666666666667</ele><time>2026-04-04T13:00:04.999Z</time></trkpt><trkpt lat="44.53411168728334" lon="10.8762837835161"><ele>118.33333333333334</ele><time>2026-04-04T13:00:05.999Z</time></trkpt><trkpt lat="44.534170145894485" lon="10.876371195637189"><ele>118.0</ele><time>2026-04-04T13:00:06.999Z</time></trkpt><trkpt lat="44.53423828375923" lon="10.876474278204022"><ele>118.0</ele><time>2026-04-04T13:00:07.999Z</time></trkpt><trkpt lat="44.5343226402998" lon="10.87657049289208"><ele>118.00000000000001</ele><time>2026-04-04T13:00:08.999Z</time></trkpt><trkpt lat="44.534394834623136" lon="10.876679709870986"><ele>118.00000000000001</ele><time>2026-04-04T13:00:09.999Z</time></trkpt><trkpt lat="44.53444235120724" lon="10.87678059007527"><ele>118.0</ele><time>2026-04-04T13:00:10.999Z</time></trkpt><trkpt lat="44.534506628077494" lon="10.876849040512058"><ele>118.0</ele><time>2026-04-04T13:00:11.999Z</time></trkpt><trkpt lat="44.5345615938159" lon="10.87692496144485"><ele>117.83333333333334</ele><time>2026-04-04T13:00:12.999Z</time></trkpt><trkpt lat="44.534623461735286" lon="10.876994555053832"><ele>117.66666666666667</ele><time>2026-04-04T13:00:13.999Z</time></trkpt><trkpt lat="44.53468847435264" lon="10.87707024184293"><ele>117.5</ele><time>2026-04-04T13:00:14.999Z</time></trkpt><trkpt lat="44.53474557629976" lon="10.877126968987868"><ele>117.33333333333334</ele><time>2026-04-04T13:00:15.999Z</time></trkpt><trkpt lat="44.53479220419177" lon="10.877187921390234"><ele>117.16666666666667</ele><time>2026-04-04T13:00:16.999Z</time></trkpt><trkpt lat="44.53485719373951" lon="10.87724623268766"><ele>117.0</ele><time>2026-04-04T13:00:17.999Z</time></trkpt><trkpt lat="44.53492756411175" lon="10.8773061469887"><ele>117.0</ele><time>2026-04-04T13:00:18.999Z</time></trkpt><trkpt lat="44.53498674821665" lon="10.877371202365135"><ele>117.0</ele><time>2026-04-04T13:00:19.999Z</time></trkpt><trkpt lat="44.53505169960789" lon="10.877433639553269"><ele>117.0</ele><time>2026-04-04T13:00:20.999Z</time></trkpt><trkpt lat="44.53511341803149" lon="10.877491113466775"><ele>117.0</ele><time>2026-04-04T13:00:21.999Z</time></trkpt><trkpt lat="44.535174212071496" lon="10.877554204458285"><ele>117.0</ele><time>2026-04-04T13:00:22.999Z</time></trkpt><trkpt lat="44.53523710126252" lon="10.87761995837992"><ele>117.0</ele><time>2026-04-04T13:00:23.999Z</time></trkpt><trkpt lat="44.535299874790645" lon="10.877686327957855"><ele>117.0</ele><time>2026-04-04T13:00:24.999Z</time></trkpt><trkpt lat="44.53536219465206" lon="10.877744644658526"><ele>117.00000000000001</ele><time>2026-04-04T13:00:25.999Z</time></trkpt><trkpt lat="44.535422916993" lon="10.877805137498143"><ele>117.0</ele><time>2026-04-04T13:00:26.999Z</time></trkpt><trkpt lat="44.53547963434204" lon="10.877890163253852"><ele>117.0</ele><time>2026-04-04T13:00:27.999Z</time></trkpt><trkpt lat="44.53553952785003" lon="10.877929999187815"><ele>117.00000000000001</ele><time>2026-04-04T13:00:28.999Z</time></trkpt><trkpt lat="44.53560304762281" lon="10.87798755130778"><ele>117.0</ele><time>2026-04-04T13:00:29.999Z</time></trkpt><trkpt lat="44.53566055664557" lon="10.878052775751373"><ele>117.0</ele><time>2026-04-04T13:00:30.999Z</time></trkpt><trkpt lat="44.535715791881834" lon="10.878115752784913"><ele>117.0</ele><time>2026-04-04T13:00:31.999Z</time></trkpt><trkpt lat="44.53577920510913" lon="10.878175917491498"><ele>117.00000000000001</ele><time>2026-04-04T13:00:32.999Z</time></trkpt><trkpt lat="44.5358352586828" lon="10.878240486055448"><ele>117.0</ele><time>2026-04-04T13:00:33.999Z</time></trkpt><trkpt lat="44.53589051071595" lon="10.878298937050491"><ele>117.0</ele><time>2026-04-04T13:00:34.999Z</time></trkpt><trkpt lat="44.53594995775851" lon="10.878348485057233"><ele>117.00000000000001</ele><time>2026-04-04T13:00:35.999Z</time></trkpt><trkpt lat="44.53601140141514" lon="10.878397432572717"><ele>117.0</ele><time>2026-04-04T13:00:36.999Z</time></trkpt><trkpt lat="44.53607531591992" lon="10.87844804245296"><ele>117.0</ele><time>2026-04-04T13:00:37.999Z</time></trkpt><trkpt lat="44.53619629028039" lon="10.878529272494063"><ele>116.71428571428572</ele><time>2026-04-04T13:00:39.999Z</time></trkpt><trkpt lat="44.536254174072084" lon="10.87857454972995"><ele>116.42857142857144</ele><time>2026-04-04T13:00:40.999Z</time></trkpt><trkpt lat="44.536316642075235" lon="10.878610597135511"><ele>116.14285714285714</ele><time>2026-04-04T13:00:41.999Z</time></trkpt><trkpt lat="44.53637999199018" lon="10.878656174075084"><ele>115.85714285714286</ele><time>2026-04-04T13:00:42.999Z</time></trkpt><trkpt lat="44.536444099014254" lon="10.878691190446073"><ele>115.57142857142857</ele><time>2026-04-04T13:00:43.999Z</time></trkpt><trkpt lat="44.536506472612125" lon="10.87872881620842"><ele>115.28571428571428</ele><time>2026-04-04T13:00:44.999Z</time></trkpt><trkpt lat="44.53656993203949" lon="10.878766712680946"><ele>114.99999999999999</ele><time>2026-04-04T13:00:45.999Z</time></trkpt><trkpt lat="44.53662949809958" lon="10.878803243940979"><ele>115.0</ele><time>2026-04-04T13:00:46.999Z</time></trkpt><trkpt lat="44.53668813239262" lon="10.878845298568837"><ele>115.0</ele><time>2026-04-04T13:00:47.999Z</time></trkpt><trkpt lat="44.53674538109353" lon="10.878892497486087"><ele>115.0</ele><time>2026-04-04T13:00:48.999Z</time></trkpt><trkpt lat="44.53685637275627" lon="10.878971261815847"><ele>115.0</ele><time>2026-04-04T13:00:50.999Z</time></trkpt><trkpt lat="44.53696703889488" lon="10.87903444889709"><ele>115.0</ele><time>2026-04-04T13:00:52.999Z</time></trkpt><trkpt lat="44.53703833641455" lon="10.879101505944098"><ele>115.0</ele><time>2026-04-04T13:00:54.999Z</time></trkpt><trkpt lat="44.53700734390005" lon="10.879224634761842"><ele>115.0</ele><time>2026-04-04T13:00:56.999Z</time></trkpt><trkpt lat="44.53696425881259" lon="10.879341828696857"><ele>115.0</ele><time>2026-04-04T13:00:58.999Z</time></trkpt><trkpt lat="44.53690735901532" lon="10.879475437510916"><ele>115.0</ele><time>2026-04-04T13:01:00.999Z</time></trkpt><trkpt lat="44.53682017778282" lon="10.879580003060887"><ele>115.0</ele><time>2026-04-04T13:01:02.999Z</time></trkpt><trkpt lat="44.536718262852865" lon="10.879500994011957"><ele>115.5</ele><time>2026-04-04T13:01:04.999Z</time></trkpt><trkpt lat="44.536625137192075" lon="10.879434839727535"><ele>116.0</ele><time>2026-04-04T13:01:06.999Z</time></trkpt><trkpt lat="44.53653980589111" lon="10.879363680381665"><ele>116.5</ele><time>2026-04-04T13:01:08.998Z</time></trkpt><trkpt lat="44.53648033455776" lon="10.879304313955664"><ele>117.0</ele><time>2026-04-04T13:01:10.998Z</time></trkpt><trkpt lat="44.536421263881415" lon="10.87953568187574"><ele>117.0</ele><time>2026-04-04T13:01:12.998Z</time></trkpt><trkpt lat="44.53637957331746" lon="10.879661747631987"><ele>116.99999999999999</ele><time>2026-04-04T13:01:14.998Z</time></trkpt><trkpt lat="44.536338972601605" lon="10.879795171951494"><ele>116.99999999999999</ele><time>2026-04-04T13:01:16.998Z</time></trkpt><trkpt lat="44.53630398184441" lon="10.87991195765675"><ele>117.0</ele><time>2026-04-04T13:01:19Z</time></trkpt><trkpt lat="44.53627260410947" lon="10.880038257986602"><ele>117.0</ele><time>2026-04-04T13:01:21Z</time></trkpt><trkpt lat="44.53623852113412" lon="10.8801587281398"><ele>116.8</ele><time>2026-04-04T13:01:23Z</time></trkpt><trkpt lat="44.5362135853911" lon="10.880266037868115"><ele>116.6</ele><time>2026-04-04T13:01:25Z</time></trkpt><trkpt lat="44.536178374041725" lon="10.880389281095526"><ele>116.39999999999999</ele><time>2026-04-04T13:01:27Z</time></trkpt><trkpt lat="44.53614983134639" lon="10.880511840111504"><ele>116.19999999999999</ele><time>2026-04-04T13:01:29Z</time></trkpt><trkpt lat="44.53611817671225" lon="10.880638050472117"><ele>116.0</ele><time>2026-04-04T13:01:31Z</time></trkpt><trkpt lat="44.536073780249836" lon="10.880767192558782"><ele>116.0</ele><time>2026-04-04T13:01:33Z</time></trkpt><trkpt lat="44.53603618497348" lon="10.880878797967833"><ele>116.0</ele><time>2026-04-04T13:01:35Z</time></trkpt><trkpt lat="44.53599869826431" lon="10.88099144849864"><ele>116.0</ele><time>2026-04-04T13:01:37Z</time></trkpt><trkpt lat="44.53596564760349" lon="10.881123542726932"><ele>116.0</ele><time>2026-04-04T13:01:39Z</time></trkpt><trkpt lat="44.53592955302611" lon="10.881255944739502"><ele>116.0</ele><time>2026-04-04T13:01:41Z</time></trkpt><trkpt lat="44.53589470158651" lon="10.881391615941997"><ele>116.19999999999999</ele><time>2026-04-04T13:01:43Z</time></trkpt><trkpt lat="44.535853122671085" lon="10.8815266031627"><ele>116.39999999999999</ele><time>2026-04-04T13:01:45Z</time></trkpt><trkpt lat="44.53581480638394" lon="10.881665302141691"><ele>116.6</ele><time>2026-04-04T13:01:47Z</time></trkpt><trkpt lat="44.53577065533975" lon="10.881794757381403"><ele>116.8</ele><time>2026-04-04T13:01:49Z</time></trkpt><trkpt lat="44.535717489392724" lon="10.881930528025825"><ele>117.0</ele><time>2026-04-04T13:01:51Z</time></trkpt><trkpt lat="44.53568322961937" lon="10.882072919738961"><ele>117.0</ele><time>2026-04-04T13:01:53Z</time></trkpt><trkpt lat="44.53564400806379" lon="10.882206051425564"><ele>116.99999999999999</ele><time>2026-04-04T13:01:55Z</time></trkpt><trkpt lat="44.53558954443007" lon="10.88234834838084"><ele>116.99999999999999</ele><time>2026-04-04T13:01:57Z</time></trkpt><trkpt lat="44.53554561235358" lon="10.88248984321854"><ele>117.0</ele><time>2026-04-04T13:01:59Z</time></trkpt><trkpt lat="44.535495602169966" lon="10.88262882233497"><ele>117.0</ele><time>2026-04-04T13:02:01Z</time></trkpt><trkpt lat="44.53546214596759" lon="10.882767377151742"><ele>116.6</ele><time>2026-04-04T13:02:03Z</time></trkpt><trkpt lat="44.53541897668063" lon="10.882895556247687"><ele>116.19999999999999</ele><time>2026-04-04T13:02:05Z</time></trkpt><trkpt lat="44.53537303447963" lon="10.88301769616"><ele>115.8</ele><time>2026-04-04T13:02:06.999Z</time></trkpt><trkpt lat="44.53534266995782" lon="10.88314901114508"><ele>115.4</ele><time>2026-04-04T13:02:08.999Z</time></trkpt><trkpt lat="44.53529838534653" lon="10.883269106440588"><ele>115.0</ele><time>2026-04-04T13:02:10.999Z</time></trkpt><trkpt lat="44.53525173920837" lon="10.883408886522858"><ele>115.4</ele><time>2026-04-04T13:02:12.999Z</time></trkpt><trkpt lat="44.53521617097581" lon="10.88353975604008"><ele>115.8</ele><time>2026-04-04T13:02:14.999Z</time></trkpt><trkpt lat="44.535166824783445" lon="10.883669814488607"><ele>116.19999999999999</ele><time>2026-04-04T13:02:16.999Z</time></trkpt><trkpt lat="44.53513069397807" lon="10.883795183508928"><ele>116.6</ele><time>2026-04-04T13:02:18.999Z</time></trkpt><trkpt lat="44.53508698535822" lon="10.88393448949155"><ele>117.0</ele><time>2026-04-04T13:02:20.999Z</time></trkpt><trkpt lat="44.53504129991093" lon="10.884079827865714"><ele>117.0</ele><time>2026-04-04T13:02:22.999Z</time></trkpt><trkpt lat="44.53500000745764" lon="10.884206118746077"><ele>116.99999999999999</ele><time>2026-04-04T13:02:24.999Z</time></trkpt><trkpt lat="44.5349632863512" lon="10.884346303394402"><ele>116.99999999999999</ele><time>2026-04-04T13:02:26.999Z</time></trkpt><trkpt lat="44.534920028639846" lon="10.884475564584791"><ele>117.0</ele><time>2026-04-04T13:02:28.999Z</time></trkpt><trkpt lat="44.53487646796128" lon="10.884607185083095"><ele>117.0</ele><time>2026-04-04T13:02:30.999Z</time></trkpt><trkpt lat="44.53484716650516" lon="10.884732123847895"><ele>117.0</ele><time>2026-04-04T13:02:32.999Z</time></trkpt><trkpt lat="44.53480989321149" lon="10.884857902035014"><ele>116.99999999999999</ele><time>2026-04-04T13:02:34.999Z</time></trkpt><trkpt lat="44.53477112830283" lon="10.884949661061738"><ele>116.99999999999999</ele><time>2026-04-04T13:02:37.999Z</time></trkpt><trkpt lat="44.53485720745527" lon="10.88501281205131"><ele>117.0</ele><time>2026-04-04T13:02:38.999Z</time></trkpt><trkpt lat="44.53494489546146" lon="10.885043767051393"><ele>117.0</ele><time>2026-04-04T13:02:40.999Z</time></trkpt><trkpt lat="44.53504385526736" lon="10.885080064922725"><ele>116.5</ele><time>2026-04-04T13:02:42.999Z</time></trkpt><trkpt lat="44.53514683932724" lon="10.88512109503053"><ele>116.0</ele><time>2026-04-04T13:02:44.999Z</time></trkpt><trkpt lat="44.53524469607041" lon="10.885161392192622"><ele>115.5</ele><time>2026-04-04T13:02:46.999Z</time></trkpt><trkpt lat="44.535239728569316" lon="10.885369704809186"><ele>115.0</ele><time>2026-04-04T13:02:49.999Z</time></trkpt><trkpt lat="44.535195455369134" lon="10.885518330864539"><ele>115.0</ele><time>2026-04-04T13:02:51.999Z</time></trkpt><trkpt lat="44.53517022829283" lon="10.885650353975082"><ele>115.0</ele><time>2026-04-04T13:02:53.999Z</time></trkpt><trkpt lat="44.53514175816223" lon="10.885793232339227"><ele>115.0</ele><time>2026-04-04T13:02:55.999Z</time></trkpt><trkpt lat="44.53511711854958" lon="10.8859297015121"><ele>115.0</ele><time>2026-04-04T13:02:57.999Z</time></trkpt><trkpt lat="44.53508523557388" lon="10.886062289358936"><ele>115.0</ele><time>2026-04-04T13:02:59.999Z</time></trkpt><trkpt lat="44.53506086417215" lon="10.886204584078818"><ele>115.0</ele><time>2026-04-04T13:03:01.999Z</time></trkpt><trkpt lat="44.53503159166701" lon="10.886346027135362"><ele>115.0</ele><time>2026-04-04T13:03:03.999Z</time></trkpt><trkpt lat="44.53500170946916" lon="10.886484531662038"><ele>115.0</ele><time>2026-04-04T13:03:05.999Z</time></trkpt><trkpt lat="44.534977659183966" lon="10.88662476972952"><ele>115.0</ele><time>2026-04-04T13:03:07.999Z</time></trkpt><trkpt lat="44.534950587511915" lon="10.886760534887934"><ele>115.0</ele><time>2026-04-04T13:03:09.998Z</time></trkpt><trkpt lat="44.534922817314104" lon="10.88689856419246"><ele>115.2</ele><time>2026-04-04T13:03:11.998Z</time></trkpt><trkpt lat="44.53490057628757" lon="10.887034806533142"><ele>115.4</ele><time>2026-04-04T13:03:13.998Z</time></trkpt><trkpt lat="44.53487364407627" lon="10.887177179118444"><ele>115.6</ele><time>2026-04-04T13:03:15.998Z</time></trkpt><trkpt lat="44.534859705393025" lon="10.887315131759788"><ele>115.8</ele><time>2026-04-04T13:03:17.998Z</time></trkpt><trkpt lat="44.53482088092164" lon="10.8874543704325"><ele>116.0</ele><time>2026-04-04T13:03:19.998Z</time></trkpt><trkpt lat="44.53477880186628" lon="10.887589079148283"><ele>115.8</ele><time>2026-04-04T13:03:21.998Z</time></trkpt><trkpt lat="44.534737413646994" lon="10.887722470997751"><ele>115.6</ele><time>2026-04-04T13:03:24Z</time></trkpt><trkpt lat="44.53469357995539" lon="10.887791059946165"><ele>115.4</ele><time>2026-04-04T13:03:25Z</time></trkpt><trkpt lat="44.534639411712874" lon="10.887912609903136"><ele>115.2</ele><time>2026-04-04T13:03:27Z</time></trkpt><trkpt lat="44.53460189156531" lon="10.888056949167597"><ele>115.0</ele><time>2026-04-04T13:03:29Z</time></trkpt><trkpt lat="44.53455196545637" lon="10.888171390704604"><ele>115.0</ele><time>2026-04-04T13:03:31Z</time></trkpt><trkpt lat="44.53450662638709" lon="10.88823805206596"><ele>115.0</ele><time>2026-04-04T13:03:32Z</time></trkpt><trkpt lat="44.53444178020145" lon="10.888382386883048"><ele>115.0</ele><time>2026-04-04T13:03:34Z</time></trkpt><trkpt lat="44.534373887650894" lon="10.888516808321544"><ele>115.0</ele><time>2026-04-04T13:03:36Z</time></trkpt><trkpt lat="44.53431947926387" lon="10.888646959186726"><ele>115.0</ele><time>2026-04-04T13:03:38Z</time></trkpt><trkpt lat="44.534258068331944" lon="10.88876677228458"><ele>115.0</ele><time>2026-04-04T13:03:40Z</time></trkpt><trkpt lat="44.53420566497718" lon="10.888894642883225"><ele>115.0</ele><time>2026-04-04T13:03:42Z</time></trkpt><trkpt lat="44.53415553043212" lon="10.889016013189584"><ele>115.0</ele><time>2026-04-04T13:03:44Z</time></trkpt><trkpt lat="44.53410380714828" lon="10.889130340563494"><ele>115.0</ele><time>2026-04-04T13:03:46Z</time></trkpt><trkpt lat="44.534048221895254" lon="10.889252081513902"><ele>115.0</ele><time>2026-04-04T13:03:48Z</time></trkpt><trkpt lat="44.53399054172461" lon="10.889368169592858"><ele>114.8</ele><time>2026-04-04T13:03:50Z</time></trkpt><trkpt lat="44.53394303718289" lon="10.88950152840537"><ele>114.6</ele><time>2026-04-04T13:03:52Z</time></trkpt><trkpt lat="44.533879008034916" lon="10.889613267534457"><ele>114.4</ele><time>2026-04-04T13:03:54Z</time></trkpt><trkpt lat="44.533812486644315" lon="10.88973108049251"><ele>114.2</ele><time>2026-04-04T13:03:56Z</time></trkpt><trkpt lat="44.533753142819265" lon="10.889861636673851"><ele>114.0</ele><time>2026-04-04T13:03:58Z</time></trkpt><trkpt lat="44.53369139651211" lon="10.889983997046437"><ele>113.80000000000001</ele><time>2026-04-04T13:04:00Z</time></trkpt><trkpt lat="44.53363109916418" lon="10.890109324721145"><ele>113.60000000000001</ele><time>2026-04-04T13:04:02Z</time></trkpt><trkpt lat="44.53357438890465" lon="10.890234131307349"><ele>113.4</ele><time>2026-04-04T13:04:04Z</time></trkpt><trkpt lat="44.53351830109762" lon="10.890358863981637"><ele>113.2</ele><time>2026-04-04T13:04:05.999Z</time></trkpt><trkpt lat="44.53344878470261" lon="10.890482045791865"><ele>113.0</ele><time>2026-04-04T13:04:07.999Z</time></trkpt><trkpt lat="44.53339013626856" lon="10.890621949043515"><ele>113.0</ele><time>2026-04-04T13:04:09.999Z</time></trkpt><trkpt lat="44.533322948347134" lon="10.89075300588171"><ele>113.00000000000001</ele><time>2026-04-04T13:04:11.999Z</time></trkpt><trkpt lat="44.53326813942558" lon="10.89090818850506"><ele>113.00000000000001</ele><time>2026-04-04T13:04:13.999Z</time></trkpt><trkpt lat="44.53324355229117" lon="10.890991986784565"><ele>113.0</ele><time>2026-04-04T13:04:14.999Z</time></trkpt><trkpt lat="44.53321962498416" lon="10.891155012560244"><ele>113.0</ele><time>2026-04-04T13:04:16.999Z</time></trkpt><trkpt lat="44.53320836545601" lon="10.891323162164012"><ele>113.2</ele><time>2026-04-04T13:04:18.999Z</time></trkpt><trkpt lat="44.53318446044513" lon="10.891469371831635"><ele>113.4</ele><time>2026-04-04T13:04:20.999Z</time></trkpt><trkpt lat="44.533184419652265" lon="10.891619786723776"><ele>113.60000000000001</ele><time>2026-04-04T13:04:22.999Z</time></trkpt><trkpt lat="44.53317872695775" lon="10.891764568685373"><ele>113.80000000000001</ele><time>2026-04-04T13:04:24.999Z</time></trkpt><trkpt lat="44.533165704841" lon="10.891905253154222"><ele>114.0</ele><time>2026-04-04T13:04:26.999Z</time></trkpt><trkpt lat="44.533157330434584" lon="10.892043734398909"><ele>114.2</ele><time>2026-04-04T13:04:28.999Z</time></trkpt><trkpt lat="44.53314579559946" lon="10.892170741489041"><ele>114.4</ele><time>2026-04-04T13:04:30.999Z</time></trkpt><trkpt lat="44.533137441165096" lon="10.892302632605938"><ele>114.6</ele><time>2026-04-04T13:04:32.999Z</time></trkpt><trkpt lat="44.53313189789413" lon="10.892438066802521"><ele>114.8</ele><time>2026-04-04T13:04:34.999Z</time></trkpt><trkpt lat="44.53311428615437" lon="10.892570457246796"><ele>115.0</ele><time>2026-04-04T13:04:36.999Z</time></trkpt><trkpt lat="44.53309371488416" lon="10.892691868277785"><ele>115.16666666666667</ele><time>2026-04-04T13:04:38.999Z</time></trkpt><trkpt lat="44.53307972030527" lon="10.89281962683724"><ele>115.33333333333334</ele><time>2026-04-04T13:04:40.999Z</time></trkpt><trkpt lat="44.533063292497346" lon="10.892945160450202"><ele>115.5</ele><time>2026-04-04T13:04:42.999Z</time></trkpt><trkpt lat="44.533060534399155" lon="10.893057389761498"><ele>115.66666666666666</ele><time>2026-04-04T13:04:44.999Z</time></trkpt><trkpt lat="44.53304883493938" lon="10.893187066631262"><ele>115.83333333333333</ele><time>2026-04-04T13:04:46.999Z</time></trkpt><trkpt lat="44.53303853199363" lon="10.893311149595378"><ele>116.0</ele><time>2026-04-04T13:04:48.999Z</time></trkpt><trkpt lat="44.533026362259626" lon="10.893431062533123"><ele>115.99999999999999</ele><time>2026-04-04T13:04:50.999Z</time></trkpt><trkpt lat="44.533019289193014" lon="10.893554759118468"><ele>116.0</ele><time>2026-04-04T13:04:52.999Z</time></trkpt><trkpt lat="44.5330151696517" lon="10.893681666045762"><ele>116.0</ele><time>2026-04-04T13:04:54.999Z</time></trkpt><trkpt lat="44.53300193061449" lon="10.893811094991781"><ele>116.0</ele><time>2026-04-04T13:04:56.999Z</time></trkpt><trkpt lat="44.53299101751361" lon="10.893930603711345"><ele>115.99999999999999</ele><time>2026-04-04T13:04:58.999Z</time></trkpt><trkpt lat="44.532977848882574" lon="10.894047636503394"><ele>116.0</ele><time>2026-04-04T13:05:00.999Z</time></trkpt><trkpt lat="44.532952439799146" lon="10.894150768606032"><ele>116.33333333333333</ele><time>2026-04-04T13:05:02.999Z</time></trkpt><trkpt lat="44.532951408385685" lon="10.894255612207996"><ele>116.66666666666666</ele><time>2026-04-04T13:05:04.999Z</time></trkpt><trkpt lat="44.53293388363251" lon="10.894351047156986"><ele>117.0</ele><time>2026-04-04T13:05:06.999Z</time></trkpt><trkpt lat="44.53290989458481" lon="10.894451671733586"><ele>117.33333333333334</ele><time>2026-04-04T13:05:08.999Z</time></trkpt><trkpt lat="44.53290916746673" lon="10.894551378938832"><ele>117.66666666666667</ele><time>2026-04-04T13:05:10.998Z</time></trkpt><trkpt lat="44.53289387805394" lon="10.894676778894524"><ele>118.0</ele><time>2026-04-04T13:05:12.998Z</time></trkpt><trkpt lat="44.53287980615146" lon="10.894783682572761"><ele>118.00000000000001</ele><time>2026-04-04T13:05:14.998Z</time></trkpt><trkpt lat="44.532871663398055" lon="10.894907254567062"><ele>118.0</ele><time>2026-04-04T13:05:16.998Z</time></trkpt><trkpt lat="44.5328677941342" lon="10.895018703247192"><ele>118.0</ele><time>2026-04-04T13:05:18.998Z</time></trkpt><trkpt lat="44.53285703220114" lon="10.895136488120244"><ele>118.0</ele><time>2026-04-04T13:05:20.998Z</time></trkpt><trkpt lat="44.53283951367715" lon="10.895248612598133"><ele>118.00000000000001</ele><time>2026-04-04T13:05:22.998Z</time></trkpt><trkpt lat="44.53276124280552" lon="10.89525775528898"><ele>118.0</ele><time>2026-04-04T13:05:24.998Z</time></trkpt><trkpt lat="44.532679209003476" lon="10.895355141497921"><ele>117.66666666666667</ele><time>2026-04-04T13:05:27.998Z</time></trkpt><trkpt lat="44.53265543040026" lon="10.895451082700667"><ele>117.33333333333334</ele><time>2026-04-04T13:05:30Z</time></trkpt><trkpt lat="44.53264079217247" lon="10.895547115581225"><ele>117.0</ele><time>2026-04-04T13:05:32Z</time></trkpt><trkpt lat="44.5326185928562" lon="10.895644008517765"><ele>116.66666666666666</ele><time>2026-04-04T13:05:34Z</time></trkpt><trkpt lat="44.53259523414102" lon="10.895752793780787"><ele>116.33333333333333</ele><time>2026-04-04T13:05:36Z</time></trkpt><trkpt lat="44.532566575880836" lon="10.895872875321041"><ele>116.0</ele><time>2026-04-04T13:05:38Z</time></trkpt><trkpt lat="44.53253183817162" lon="10.895992021477603"><ele>115.4</ele><time>2026-04-04T13:05:40Z</time></trkpt><trkpt lat="44.532499896383506" lon="10.896128263479012"><ele>114.8</ele><time>2026-04-04T13:05:42Z</time></trkpt><trkpt lat="44.53245962194295" lon="10.896256420926916"><ele>114.20000000000002</ele><time>2026-04-04T13:05:44Z</time></trkpt><trkpt lat="44.53242901185074" lon="10.896384715928258"><ele>113.60000000000001</ele><time>2026-04-04T13:05:46Z</time></trkpt><trkpt lat="44.53240266820054" lon="10.896520462931724"><ele>113.0</ele><time>2026-04-04T13:05:48Z</time></trkpt><trkpt lat="44.53236817900329" lon="10.896671534014896"><ele>113.0</ele><time>2026-04-04T13:05:50Z</time></trkpt><trkpt lat="44.53233777320859" lon="10.896807321022278"><ele>113.00000000000001</ele><time>2026-04-04T13:05:52Z</time></trkpt><trkpt lat="44.5323046925634" lon="10.896929667048601"><ele>113.00000000000001</ele><time>2026-04-04T13:05:54Z</time></trkpt><trkpt lat="44.53225902468737" lon="10.897045968707031"><ele>113.0</ele><time>2026-04-04T13:05:56Z</time></trkpt><trkpt lat="44.532218265342664" lon="10.897167779332776"><ele>113.0</ele><time>2026-04-04T13:05:58Z</time></trkpt><trkpt lat="44.5321889907219" lon="10.897288556106089"><ele>113.0</ele><time>2026-04-04T13:06:00Z</time></trkpt><trkpt lat="44.53214211395088" lon="10.897406637792164"><ele>113.00000000000001</ele><time>2026-04-04T13:06:02Z</time></trkpt><trkpt lat="44.53210481325438" lon="10.897531052054815"><ele>113.00000000000001</ele><time>2026-04-04T13:06:04Z</time></trkpt><trkpt lat="44.5320586715845" lon="10.897665897744226"><ele>113.0</ele><time>2026-04-04T13:06:06Z</time></trkpt><trkpt lat="44.532031109312136" lon="10.897790799038296"><ele>113.0</ele><time>2026-04-04T13:06:08Z</time></trkpt><trkpt lat="44.5320077453269" lon="10.897914017301014"><ele>113.16666666666666</ele><time>2026-04-04T13:06:10Z</time></trkpt><trkpt lat="44.53196880658196" lon="10.898038711136385"><ele>113.33333333333333</ele><time>2026-04-04T13:06:12Z</time></trkpt><trkpt lat="44.531931138356576" lon="10.898157056722745"><ele>113.5</ele><time>2026-04-04T13:06:13.999Z</time></trkpt><trkpt lat="44.53189538361888" lon="10.898263748496648"><ele>113.66666666666666</ele><time>2026-04-04T13:06:15.999Z</time></trkpt><trkpt lat="44.53187562721443" lon="10.898374677879865"><ele>113.83333333333333</ele><time>2026-04-04T13:06:17.999Z</time></trkpt><trkpt lat="44.531885363634196" lon="10.898495147569841"><ele>114.0</ele><time>2026-04-04T13:06:19.999Z</time></trkpt><trkpt lat="44.531888937932536" lon="10.898595059892665"><ele>114.0</ele><time>2026-04-04T13:06:21.999Z</time></trkpt><trkpt lat="44.531897614134266" lon="10.898685912405153"><ele>114.0</ele><time>2026-04-04T13:06:32.999Z</time></trkpt><trkpt lat="44.53193402755067" lon="10.898767220995385"><ele>114.0</ele><time>2026-04-04T13:06:34.999Z</time></trkpt><trkpt lat="44.53196294043121" lon="10.898860508566306"><ele>114.0</ele><time>2026-04-04T13:06:36.999Z</time></trkpt><trkpt lat="44.53197787053173" lon="10.898992788203417"><ele>114.0</ele><time>2026-04-04T13:06:38.999Z</time></trkpt><trkpt lat="44.53198110551638" lon="10.899125092656915"><ele>114.0</ele><time>2026-04-04T13:06:40.999Z</time></trkpt><trkpt lat="44.53200664036071" lon="10.89926134283524"><ele>113.5</ele><time>2026-04-04T13:06:42.999Z</time></trkpt><trkpt lat="44.53200096375779" lon="10.89941741004158"><ele>113.0</ele><time>2026-04-04T13:06:44.999Z</time></trkpt><trkpt lat="44.53201577976883" lon="10.899566871134468"><ele>112.5</ele><time>2026-04-04T13:06:46.999Z</time></trkpt><trkpt lat="44.53204221122002" lon="10.899729518814828"><ele>112.0</ele><time>2026-04-04T13:06:48.999Z</time></trkpt><trkpt lat="44.5320393129251" lon="10.899905173875927"><ele>112.0</ele><time>2026-04-04T13:06:50.999Z</time></trkpt><trkpt lat="44.53205277549447" lon="10.900082990358454"><ele>111.99999999999999</ele><time>2026-04-04T13:06:52.999Z</time></trkpt><trkpt lat="44.532081736411286" lon="10.900260535146717"><ele>111.99999999999999</ele><time>2026-04-04T13:06:54.999Z</time></trkpt><trkpt lat="44.53209696679182" lon="10.900356522252348"><ele>112.0</ele><time>2026-04-04T13:06:55.999Z</time></trkpt><trkpt lat="44.53211336593821" lon="10.900448348194796"><ele>112.0</ele><time>2026-04-04T13:06:56.999Z</time></trkpt><trkpt lat="44.53210601729596" lon="10.900546368635217"><ele>111.50000000000001</ele><time>2026-04-04T13:06:57.999Z</time></trkpt><trkpt lat="44.53211926155306" lon="10.900694076781916"><ele>111.0</ele><time>2026-04-04T13:06:59.999Z</time></trkpt><trkpt lat="44.532133335800346" lon="10.90079289686869"><ele>110.5</ele><time>2026-04-04T13:07:01.999Z</time></trkpt><trkpt lat="44.53206200733825" lon="10.90082016370305"><ele>110.0</ele><time>2026-04-04T13:07:03.999Z</time></trkpt><trkpt lat="44.5320061301344" lon="10.900716866873568"><ele>109.50000000000001</ele><time>2026-04-04T13:07:06.999Z</time></trkpt><trkpt lat="44.53196197752252" lon="10.900640263170565"><ele>109.0</ele><time>2026-04-04T13:07:08.999Z</time></trkpt><trkpt lat="44.53190649820674" lon="10.900575778368518"><ele>109.0</ele><time>2026-04-04T13:07:10.999Z</time></trkpt><trkpt lat="44.531830372500146" lon="10.900519869857902"><ele>109.0</ele><time>2026-04-04T13:07:12.999Z</time></trkpt><trkpt lat="44.53173298528392" lon="10.900503672078397"><ele>109.0</ele><time>2026-04-04T13:07:14.999Z</time></trkpt><trkpt lat="44.53163238497894" lon="10.90048399976151"><ele>109.0</ele><time>2026-04-04T13:07:16.999Z</time></trkpt><trkpt lat="44.531521114391744" lon="10.900460702151175"><ele>109.0</ele><time>2026-04-04T13:07:18.998Z</time></trkpt><trkpt lat="44.53140376367792" lon="10.900435635314345"><ele>109.00000000000001</ele><time>2026-04-04T13:07:20.998Z</time></trkpt><trkpt lat="44.53133892180746" lon="10.900428080572821"><ele>109.0</ele><time>2026-04-04T13:07:21.998Z</time></trkpt><trkpt lat="44.53122520610954" lon="10.90048729727325"><ele>109.0</ele><time>2026-04-04T13:07:23.998Z</time></trkpt><trkpt lat="44.53117071656435" lon="10.900537736414472"><ele>109.0</ele><time>2026-04-04T13:07:24.998Z</time></trkpt><trkpt lat="44.531081366719505" lon="10.90064293008941"><ele>109.00000000000001</ele><time>2026-04-04T13:07:26.998Z</time></trkpt><trkpt lat="44.53102571792255" lon="10.900698623232499"><ele>109.0</ele><time>2026-04-04T13:07:27.998Z</time></trkpt><trkpt lat="44.53095711156702" lon="10.90072467508567"><ele>109.66666666666667</ele><time>2026-04-04T13:07:28.998Z</time></trkpt><trkpt lat="44.53088860920332" lon="10.90074407478319"><ele>110.33333333333334</ele><time>2026-04-04T13:07:29.998Z</time></trkpt><trkpt lat="44.53082091273812" lon="10.900737935748511"><ele>111.0</ele><time>2026-04-04T13:07:30.998Z</time></trkpt><trkpt lat="44.530760159774744" lon="10.900691991521903"><ele>111.66666666666666</ele><time>2026-04-04T13:07:31.998Z</time></trkpt><trkpt lat="44.53065018119646" lon="10.900630742361187"><ele>112.33333333333333</ele><time>2026-04-04T13:07:33.998Z</time></trkpt><trkpt lat="44.530533023787605" lon="10.900629982227912"><ele>113.0</ele><time>2026-04-04T13:07:36Z</time></trkpt><trkpt lat="44.53042454298594" lon="10.900690650799756"><ele>113.2</ele><time>2026-04-04T13:07:38Z</time></trkpt><trkpt lat="44.5303120755277" lon="10.900718565102553"><ele>113.4</ele><time>2026-04-04T13:07:40Z</time></trkpt><trkpt lat="44.53024817197557" lon="10.90075008606296"><ele>113.60000000000001</ele><time>2026-04-04T13:07:41Z</time></trkpt><trkpt lat="44.53013708572415" lon="10.900817636795352"><ele>113.80000000000001</ele><time>2026-04-04T13:07:43Z</time></trkpt><trkpt lat="44.530037370522045" lon="10.900858902742291"><ele>114.0</ele><time>2026-04-04T13:07:45Z</time></trkpt><trkpt lat="44.52994184984895" lon="10.900889534367986"><ele>114.0</ele><time>2026-04-04T13:07:47Z</time></trkpt><trkpt lat="44.5298759600229" lon="10.90090374785422"><ele>114.0</ele><time>2026-04-04T13:07:48Z</time></trkpt><trkpt lat="44.529788983385345" lon="10.900873900203765"><ele>114.0</ele><time>2026-04-04T13:07:50Z</time></trkpt><trkpt lat="44.52969748665538" lon="10.900804324078326"><ele>114.0</ele><time>2026-04-04T13:07:52Z</time></trkpt><trkpt lat="44.52960629856377" lon="10.900735444758658"><ele>114.0</ele><time>2026-04-04T13:07:54Z</time></trkpt><trkpt lat="44.52951296738962" lon="10.90068807700945"><ele>114.2</ele><time>2026-04-04T13:07:56Z</time></trkpt><trkpt lat="44.52941703635837" lon="10.900665157137974"><ele>114.4</ele><time>2026-04-04T13:07:58Z</time></trkpt><trkpt lat="44.52931203735107" lon="10.900643213824132"><ele>114.6</ele><time>2026-04-04T13:08:00Z</time></trkpt><trkpt lat="44.52922415615583" lon="10.900574313246182"><ele>114.8</ele><time>2026-04-04T13:08:02Z</time></trkpt><trkpt lat="44.529145339034116" lon="10.900474957619975"><ele>115.0</ele><time>2026-04-04T13:08:04Z</time></trkpt><trkpt lat="44.52908444517016" lon="10.900358655134104"><ele>115.0</ele><time>2026-04-04T13:08:06Z</time></trkpt><trkpt lat="44.52904001669601" lon="10.900266198408671"><ele>115.0</ele><time>2026-04-04T13:08:08Z</time></trkpt><trkpt lat="44.52897178074295" lon="10.900205371043239"><ele>115.0</ele><time>2026-04-04T13:08:10Z</time></trkpt><trkpt lat="44.5288763191989" lon="10.900181039141685"><ele>115.0</ele><time>2026-04-04T13:08:12Z</time></trkpt><trkpt lat="44.52877825607505" lon="10.900192586733974"><ele>115.0</ele><time>2026-04-04T13:08:14Z</time></trkpt><trkpt lat="44.52868385919047" lon="10.900237947420504"><ele>114.8</ele><time>2026-04-04T13:08:16Z</time></trkpt><trkpt lat="44.52858034057117" lon="10.900248280539836"><ele>114.6</ele><time>2026-04-04T13:08:18Z</time></trkpt><trkpt lat="44.52847396419153" lon="10.900261306907515"><ele>114.4</ele><time>2026-04-04T13:08:19.999Z</time></trkpt><trkpt lat="44.52838332095302" lon="10.900290758075409"><ele>114.2</ele><time>2026-04-04T13:08:21.999Z</time></trkpt><trkpt lat="44.52827639643569" lon="10.900296710292233"><ele>114.0</ele><time>2026-04-04T13:08:23.999Z</time></trkpt><trkpt lat="44.52818314768099" lon="10.90026174630369"><ele>114.0</ele><time>2026-04-04T13:08:25.999Z</time></trkpt><trkpt lat="44.528091231323785" lon="10.900265031272681"><ele>114.0</ele><time>2026-04-04T13:08:27.999Z</time></trkpt><trkpt lat="44.52799522250521" lon="10.900296072121927"><ele>114.0</ele><time>2026-04-04T13:08:29.999Z</time></trkpt><trkpt lat="44.527909351026835" lon="10.900350579211848"><ele>114.0</ele><time>2026-04-04T13:08:31.999Z</time></trkpt><trkpt lat="44.52782531535003" lon="10.90040516830522"><ele>114.0</ele><time>2026-04-04T13:08:33.999Z</time></trkpt><trkpt lat="44.527743374333404" lon="10.900450162207486"><ele>114.5</ele><time>2026-04-04T13:08:35.999Z</time></trkpt><trkpt lat="44.52766323529611" lon="10.900488702864267"><ele>115.0</ele><time>2026-04-04T13:08:37.999Z</time></trkpt><trkpt lat="44.52759289804787" lon="10.900518701701396"><ele>115.5</ele><time>2026-04-04T13:08:39.999Z</time></trkpt><trkpt lat="44.527509608220655" lon="10.900560565520575"><ele>116.0</ele><time>2026-04-04T13:08:41.999Z</time></trkpt><trkpt lat="44.527429230653176" lon="10.900601669359256"><ele>116.5</ele><time>2026-04-04T13:08:43.999Z</time></trkpt><trkpt lat="44.52734703446035" lon="10.90063043513459"><ele>117.0</ele><time>2026-04-04T13:08:45.999Z</time></trkpt><trkpt lat="44.527253056849496" lon="10.900640750297365"><ele>117.0</ele><time>2026-04-04T13:08:47.999Z</time></trkpt><trkpt lat="44.527167750591886" lon="10.90061387552439"><ele>116.99999999999999</ele><time>2026-04-04T13:08:49.999Z</time></trkpt><trkpt lat="44.52708364055301" lon="10.900630108259495"><ele>116.99999999999999</ele><time>2026-04-04T13:08:51.999Z</time></trkpt><trkpt lat="44.526991029547766" lon="10.90066798696453"><ele>117.0</ele><time>2026-04-04T13:08:53.999Z</time></trkpt><trkpt lat="44.526897163352416" lon="10.900630355834993"><ele>117.0</ele><time>2026-04-04T13:08:55.999Z</time></trkpt><trkpt lat="44.52682389836814" lon="10.900525628626259"><ele>116.8</ele><time>2026-04-04T13:08:57.999Z</time></trkpt><trkpt lat="44.52674639314911" lon="10.900427326522895"><ele>116.6</ele><time>2026-04-04T13:08:59.999Z</time></trkpt><trkpt lat="44.526650734631374" lon="10.900360006665258"><ele>116.39999999999999</ele><time>2026-04-04T13:09:01.999Z</time></trkpt><trkpt lat="44.52655558910057" lon="10.900317192536932"><ele>116.19999999999999</ele><time>2026-04-04T13:09:03.999Z</time></trkpt><trkpt lat="44.52646213621152" lon="10.900282835479711"><ele>116.0</ele><time>2026-04-04T13:09:05.999Z</time></trkpt><trkpt lat="44.52636303357603" lon="10.90029818356729"><ele>116.0</ele><time>2026-04-04T13:09:07.999Z</time></trkpt><trkpt lat="44.52626317866072" lon="10.900337416487213"><ele>116.0</ele><time>2026-04-04T13:09:09.999Z</time></trkpt><trkpt lat="44.52617131917409" lon="10.900300505024374"><ele>116.0</ele><time>2026-04-04T13:09:11.999Z</time></trkpt><trkpt lat="44.526083922480915" lon="10.900231005798528"><ele>116.0</ele><time>2026-04-04T13:09:13.999Z</time></trkpt><trkpt lat="44.52600188824892" lon="10.900154908857322"><ele>116.0</ele><time>2026-04-04T13:09:15.999Z</time></trkpt><trkpt lat="44.525945721398095" lon="10.90004058710289"><ele>116.19999999999999</ele><time>2026-04-04T13:09:17.999Z</time></trkpt><trkpt lat="44.52590534245131" lon="10.89991507954703"><ele>116.39999999999999</ele><time>2026-04-04T13:09:19.999Z</time></trkpt><trkpt lat="44.52583580953969" lon="10.899815571755491"><ele>116.6</ele><time>2026-04-04T13:09:21.999Z</time></trkpt><trkpt lat="44.525753664669935" lon="10.899766092207255"><ele>116.8</ele><time>2026-04-04T13:09:23.999Z</time></trkpt><trkpt lat="44.5256660555905" lon="10.899711461177567"><ele>117.0</ele><time>2026-04-04T13:09:25.998Z</time></trkpt><trkpt lat="44.52559331539816" lon="10.899626963110643"><ele>117.0</ele><time>2026-04-04T13:09:27.998Z</time></trkpt><trkpt lat="44.525542109741075" lon="10.899535013346897"><ele>117.0</ele><time>2026-04-04T13:09:29.998Z</time></trkpt><trkpt lat="44.52547291696177" lon="10.899452416402225"><ele>117.0</ele><time>2026-04-04T13:09:31.998Z</time></trkpt><trkpt lat="44.52540224913515" lon="10.899405852958486"><ele>117.0</ele><time>2026-04-04T13:09:33.998Z</time></trkpt><trkpt lat="44.52532430458552" lon="10.899338631919031"><ele>117.0</ele><time>2026-04-04T13:09:35.998Z</time></trkpt><trkpt lat="44.52525925476167" lon="10.899287059729183"><ele>117.0</ele><time>2026-04-04T13:09:37.998Z</time></trkpt><trkpt lat="44.525200606974344" lon="10.899213696851222"><ele>117.33333333333333</ele><time>2026-04-04T13:09:39.998Z</time></trkpt><trkpt lat="44.52514295400781" lon="10.899111581486821"><ele>117.66666666666666</ele><time>2026-04-04T13:09:42Z</time></trkpt><trkpt lat="44.52507967286201" lon="10.8990051109034"><ele>118.0</ele><time>2026-04-04T13:09:44Z</time></trkpt><trkpt lat="44.5250132283349" lon="10.898890376769355"><ele>118.33333333333333</ele><time>2026-04-04T13:09:46Z</time></trkpt><trkpt lat="44.52497866134384" lon="10.898793583720764"><ele>118.66666666666666</ele><time>2026-04-04T13:09:48Z</time></trkpt><trkpt lat="44.524980711239344" lon="10.898700959932658"><ele>119.0</ele><time>2026-04-04T13:09:50Z</time></trkpt><trkpt lat="44.52494004020596" lon="10.89857484771354"><ele>118.99999999999999</ele><time>2026-04-04T13:09:54Z</time></trkpt><trkpt lat="44.52489760465157" lon="10.898502522125103"><ele>119.0</ele><time>2026-04-04T13:09:56Z</time></trkpt><trkpt lat="44.52484739762517" lon="10.898429830771656"><ele>119.0</ele><time>2026-04-04T13:09:58Z</time></trkpt><trkpt lat="44.5248134052048" lon="10.898326070616536"><ele>119.0</ele><time>2026-04-04T13:10:00Z</time></trkpt><trkpt lat="44.52480327544317" lon="10.898219944190767"><ele>118.99999999999999</ele><time>2026-04-04T13:10:02Z</time></trkpt><trkpt lat="44.52478383460432" lon="10.898121081142733"><ele>119.0</ele><time>2026-04-04T13:10:04Z</time></trkpt><trkpt lat="44.524757878416075" lon="10.898005840389875"><ele>118.99999999999999</ele><time>2026-04-04T13:10:06Z</time></trkpt><trkpt lat="44.524740852893395" lon="10.897902355177974"><ele>119.0</ele><time>2026-04-04T13:10:08Z</time></trkpt><trkpt lat="44.52470238103419" lon="10.897791050463503"><ele>119.0</ele><time>2026-04-04T13:10:10Z</time></trkpt><trkpt lat="44.52467029974772" lon="10.897696119719699"><ele>119.0</ele><time>2026-04-04T13:10:12Z</time></trkpt><trkpt lat="44.524637611526416" lon="10.897604195134267"><ele>118.99999999999999</ele><time>2026-04-04T13:10:14Z</time></trkpt><trkpt lat="44.524603969481994" lon="10.897519175261813"><ele>119.0</ele><time>2026-04-04T13:10:16Z</time></trkpt><trkpt lat="44.52456928967621" lon="10.897423494199984"><ele>119.33333333333333</ele><time>2026-04-04T13:10:18Z</time></trkpt><trkpt lat="44.52452786369076" lon="10.897339554205603"><ele>119.66666666666666</ele><time>2026-04-04T13:10:20Z</time></trkpt><trkpt lat="44.524484076772325" lon="10.89726492556625"><ele>120.0</ele><time>2026-04-04T13:10:22Z</time></trkpt><trkpt lat="44.52443878552416" lon="10.897180925960228"><ele>120.33333333333334</ele><time>2026-04-04T13:10:24Z</time></trkpt><trkpt lat="44.52439025618424" lon="10.897092485303801"><ele>120.66666666666667</ele><time>2026-04-04T13:10:25.999Z</time></trkpt><trkpt lat="44.52433344970755" lon="10.89703135672419"><ele>121.0</ele><time>2026-04-04T13:10:27.999Z</time></trkpt><trkpt lat="44.52425068666758" lon="10.896949670574916"><ele>121.0</ele><time>2026-04-04T13:10:29.999Z</time></trkpt><trkpt lat="44.52420567715273" lon="10.896788877975228"><ele>121.0</ele><time>2026-04-04T13:10:31.999Z</time></trkpt><trkpt lat="44.52416593655479" lon="10.89662627496883"><ele>121.0</ele><time>2026-04-04T13:10:33.999Z</time></trkpt><trkpt lat="44.524130786877585" lon="10.896490843956279"><ele>121.0</ele><time>2026-04-04T13:10:35.999Z</time></trkpt><trkpt lat="44.52408671746849" lon="10.896347469556332"><ele>121.19999999999999</ele><time>2026-04-04T13:10:37.999Z</time></trkpt><trkpt lat="44.52404503975125" lon="10.896214961145944"><ele>121.39999999999999</ele><time>2026-04-04T13:10:39.999Z</time></trkpt><trkpt lat="44.524017961493435" lon="10.896085458247665"><ele>121.6</ele><time>2026-04-04T13:10:41.999Z</time></trkpt><trkpt lat="44.52399458332373" lon="10.895957517618193"><ele>121.8</ele><time>2026-04-04T13:10:43.999Z</time></trkpt><trkpt lat="44.523974487920334" lon="10.895833796554783"><ele>122.0</ele><time>2026-04-04T13:10:45.999Z</time></trkpt><trkpt lat="44.523963389955945" lon="10.895720147597661"><ele>121.99999999999999</ele><time>2026-04-04T13:10:47.999Z</time></trkpt><trkpt lat="44.52393169939299" lon="10.895619328335828"><ele>122.0</ele><time>2026-04-04T13:10:49.999Z</time></trkpt><trkpt lat="44.523906735212705" lon="10.89550373146674"><ele>122.0</ele><time>2026-04-04T13:10:51.999Z</time></trkpt><trkpt lat="44.52386072327596" lon="10.89539438477252"><ele>122.0</ele><time>2026-04-04T13:10:53.999Z</time></trkpt><trkpt lat="44.52381402777771" lon="10.895313102942803"><ele>121.99999999999999</ele><time>2026-04-04T13:10:55.999Z</time></trkpt><trkpt lat="44.523775028290984" lon="10.895240446447321"><ele>122.0</ele><time>2026-04-04T13:10:57.999Z</time></trkpt><trkpt lat="44.52371353777528" lon="10.895153926548124"><ele>121.99999999999999</ele><time>2026-04-04T13:11:00.999Z</time></trkpt><trkpt lat="44.52366265135103" lon="10.8950910413858"><ele>122.0</ele><time>2026-04-04T13:11:02.999Z</time></trkpt><trkpt lat="44.523615407744856" lon="10.895015325870224"><ele>121.99999999999999</ele><time>2026-04-04T13:11:04.999Z</time></trkpt><trkpt lat="44.52357785928569" lon="10.894933328783926"><ele>121.99999999999999</ele><time>2026-04-04T13:11:06.999Z</time></trkpt><trkpt lat="44.52355447460234" lon="10.894830745624827"><ele>122.0</ele><time>2026-04-04T13:11:08.999Z</time></trkpt><trkpt lat="44.52358351803433" lon="10.894731149327441"><ele>121.99999999999999</ele><time>2026-04-04T13:11:10.999Z</time></trkpt><trkpt lat="44.52362221269233" lon="10.894650258788374"><ele>121.99999999999999</ele><time>2026-04-04T13:11:12.999Z</time></trkpt><trkpt lat="44.52363226565945" lon="10.894559510947678"><ele>121.99999999999999</ele><time>2026-04-04T13:11:14.999Z</time></trkpt><trkpt lat="44.52358921059594" lon="10.894479413835892"><ele>122.0</ele><time>2026-04-04T13:11:16.999Z</time></trkpt><trkpt lat="44.523541854265794" lon="10.894408820971641"><ele>122.0</ele><time>2026-04-04T13:11:18.999Z</time></trkpt><trkpt lat="44.523493410044296" lon="10.89432392613449"><ele>122.0</ele><time>2026-04-04T13:11:20.999Z</time></trkpt><trkpt lat="44.52344194301863" lon="10.894242470642926"><ele>121.99999999999999</ele><time>2026-04-04T13:11:22.999Z</time></trkpt><trkpt lat="44.523402308372056" lon="10.894159494781636"><ele>122.0</ele><time>2026-04-04T13:11:24.999Z</time></trkpt><trkpt lat="44.52334543994715" lon="10.894065925427812"><ele>122.49999999999999</ele><time>2026-04-04T13:11:26.999Z</time></trkpt><trkpt lat="44.52331540739152" lon="10.89397323395409"><ele>123.0</ele><time>2026-04-04T13:11:28.999Z</time></trkpt><trkpt lat="44.523286736133336" lon="10.893874911524547"><ele>123.5</ele><time>2026-04-04T13:11:30.999Z</time></trkpt><trkpt lat="44.52322973082758" lon="10.893809060751543"><ele>124.0</ele><time>2026-04-04T13:11:32.999Z</time></trkpt><trkpt lat="44.523141498758974" lon="10.893822839651232"><ele>124.49999999999999</ele><time>2026-04-04T13:11:34.998Z</time></trkpt><trkpt lat="44.52302506515125" lon="10.893771451706938"><ele>125.0</ele><time>2026-04-04T13:11:36.998Z</time></trkpt><trkpt lat="44.52296155884037" lon="10.893761489095127"><ele>124.6</ele><time>2026-04-04T13:11:37.998Z</time></trkpt><trkpt lat="44.522892980644706" lon="10.89374694485246"><ele>124.2</ele><time>2026-04-04T13:11:38.998Z</time></trkpt><trkpt lat="44.522829273895006" lon="10.893726001033652"><ele>123.80000000000001</ele><time>2026-04-04T13:11:39.998Z</time></trkpt><trkpt lat="44.52273062603987" lon="10.893643318889122"><ele>123.4</ele><time>2026-04-04T13:11:41.998Z</time></trkpt><trkpt lat="44.52263475583039" lon="10.89356562545148"><ele>123.0</ele><time>2026-04-04T13:11:43.998Z</time></trkpt><trkpt lat="44.52256266114392" lon="10.893474480928942"><ele>123.0</ele><time>2026-04-04T13:11:45.998Z</time></trkpt><trkpt lat="44.522512719688145" lon="10.893348038964524"><ele>123.00000000000001</ele><time>2026-04-04T13:11:48Z</time></trkpt><trkpt lat="44.52245166152756" lon="10.893234062078657"><ele>123.00000000000001</ele><time>2026-04-04T13:11:50Z</time></trkpt><trkpt lat="44.52236988582046" lon="10.893143132980306"><ele>123.0</ele><time>2026-04-04T13:11:52Z</time></trkpt><trkpt lat="44.52229270256048" lon="10.893045415782039"><ele>123.0</ele><time>2026-04-04T13:11:54Z</time></trkpt><trkpt lat="44.522252788504574" lon="10.892928401163564"><ele>123.0</ele><time>2026-04-04T13:11:56Z</time></trkpt><trkpt lat="44.52220971421552" lon="10.892806760477118"><ele>123.00000000000001</ele><time>2026-04-04T13:11:58Z</time></trkpt><trkpt lat="44.52216530020823" lon="10.89269841809484"><ele>123.00000000000001</ele><time>2026-04-04T13:12:00Z</time></trkpt><trkpt lat="44.52211890895368" lon="10.892606664447586"><ele>123.0</ele><time>2026-04-04T13:12:02Z</time></trkpt><trkpt lat="44.522031578684384" lon="10.892542155645112"><ele>123.0</ele><time>2026-04-04T13:12:04Z</time></trkpt><trkpt lat="44.52194631856272" lon="10.89251725204766"><ele>123.4</ele><time>2026-04-04T13:12:06Z</time></trkpt><trkpt lat="44.52186137431034" lon="10.892488356853434"><ele>123.80000000000001</ele><time>2026-04-04T13:12:08Z</time></trkpt><trkpt lat="44.52176830594805" lon="10.892465274234755"><ele>124.2</ele><time>2026-04-04T13:12:10Z</time></trkpt><trkpt lat="44.521693398170626" lon="10.89240251498984"><ele>124.6</ele><time>2026-04-04T13:12:12Z</time></trkpt><trkpt lat="44.52162565390045" lon="10.89232121074245"><ele>125.0</ele><time>2026-04-04T13:12:14Z</time></trkpt><trkpt lat="44.521558806342306" lon="10.892233705602608"><ele>125.0</ele><time>2026-04-04T13:12:16Z</time></trkpt><trkpt lat="44.521514757913145" lon="10.892122353860374"><ele>125.0</ele><time>2026-04-04T13:12:18Z</time></trkpt><trkpt lat="44.52144577914001" lon="10.892035097598479"><ele>125.0</ele><time>2026-04-04T13:12:20Z</time></trkpt><trkpt lat="44.52134352661147" lon="10.892010689232421"><ele>125.0</ele><time>2026-04-04T13:12:22Z</time></trkpt><trkpt lat="44.52126229101222" lon="10.891984880889884"><ele>125.0</ele><time>2026-04-04T13:12:24Z</time></trkpt><trkpt lat="44.52116703041944" lon="10.891969519472896"><ele>125.33333333333333</ele><time>2026-04-04T13:12:26Z</time></trkpt><trkpt lat="44.52108641487829" lon="10.8919214968803"><ele>125.66666666666666</ele><time>2026-04-04T13:12:28Z</time></trkpt><trkpt lat="44.52100492953073" lon="10.891864362177824"><ele>126.0</ele><time>2026-04-04T13:12:30Z</time></trkpt><trkpt lat="44.52092159418731" lon="10.891839990508082"><ele>126.33333333333334</ele><time>2026-04-04T13:12:32Z</time></trkpt><trkpt lat="44.52082619790267" lon="10.891803765847927"><ele>126.66666666666667</ele><time>2026-04-04T13:12:33.999Z</time></trkpt><trkpt lat="44.5207441860457" lon="10.891771612052946"><ele>127.0</ele><time>2026-04-04T13:12:35.999Z</time></trkpt><trkpt lat="44.52065494220107" lon="10.891719410230317"><ele>127.00000000000001</ele><time>2026-04-04T13:12:37.999Z</time></trkpt><trkpt lat="44.52058368000678" lon="10.89165861637317"><ele>127.0</ele><time>2026-04-04T13:12:39.999Z</time></trkpt><trkpt lat="44.52051339344437" lon="10.8916121508754"><ele>127.0</ele><time>2026-04-04T13:12:41.999Z</time></trkpt><trkpt lat="44.52043961636452" lon="10.891562862381498"><ele>127.0</ele><time>2026-04-04T13:12:43.999Z</time></trkpt><trkpt lat="44.52036854098337" lon="10.891507928326709"><ele>127.00000000000001</ele><time>2026-04-04T13:12:45.999Z</time></trkpt><trkpt lat="44.52028832117392" lon="10.891434433647326"><ele>127.0</ele><time>2026-04-04T13:12:48.999Z</time></trkpt><trkpt lat="44.52022870133292" lon="10.89137349024328"><ele>127.50000000000001</ele><time>2026-04-04T13:12:50.999Z</time></trkpt><trkpt lat="44.52019189947259" lon="10.891274051265613"><ele>128.0</ele><time>2026-04-04T13:12:52.999Z</time></trkpt><trkpt lat="44.52015796874209" lon="10.891168902387648"><ele>128.5</ele><time>2026-04-04T13:12:54.999Z</time></trkpt><trkpt lat="44.52009101362042" lon="10.89109250626844"><ele>129.0</ele><time>2026-04-04T13:12:56.999Z</time></trkpt><trkpt lat="44.52001671052572" lon="10.891047214090197"><ele>129.5</ele><time>2026-04-04T13:12:58.999Z</time></trkpt><trkpt lat="44.519956976341504" lon="10.89098554648039"><ele>130.0</ele><time>2026-04-04T13:13:00.999Z</time></trkpt><trkpt lat="44.519894078368345" lon="10.89090928357649"><ele>130.0</ele><time>2026-04-04T13:13:02.999Z</time></trkpt><trkpt lat="44.519841308927056" lon="10.890820096767472"><ele>130.0</ele><time>2026-04-04T13:13:04.999Z</time></trkpt><trkpt lat="44.519767348308186" lon="10.890756738621008"><ele>130.0</ele><time>2026-04-04T13:13:06.999Z</time></trkpt><trkpt lat="44.519679141299996" lon="10.890740422720798"><ele>130.0</ele><time>2026-04-04T13:13:08.999Z</time></trkpt><trkpt lat="44.51960624507101" lon="10.890710603617"><ele>130.0</ele><time>2026-04-04T13:13:10.999Z</time></trkpt><trkpt lat="44.51954800440528" lon="10.89065758387784"><ele>130.0</ele><time>2026-04-04T13:13:12.999Z</time></trkpt><trkpt lat="44.519486484672875" lon="10.890600121921475"><ele>130.16666666666669</ele><time>2026-04-04T13:13:14.999Z</time></trkpt><trkpt lat="44.51941850511017" lon="10.890547686032003"><ele>130.33333333333334</ele><time>2026-04-04T13:13:16.999Z</time></trkpt><trkpt lat="44.519364627495314" lon="10.89047221429291"><ele>130.5</ele><time>2026-04-04T13:13:18.999Z</time></trkpt><trkpt lat="44.51931409332531" lon="10.890398947675287"><ele>130.66666666666666</ele><time>2026-04-04T13:13:20.999Z</time></trkpt><trkpt lat="44.51925233856977" lon="10.890309120431434"><ele>130.83333333333331</ele><time>2026-04-04T13:13:22.999Z</time></trkpt><trkpt lat="44.519187653547625" lon="10.890226272712468"><ele>131.0</ele><time>2026-04-04T13:13:24.999Z</time></trkpt><trkpt lat="44.519106844470706" lon="10.890160950092808"><ele>131.0</ele><time>2026-04-04T13:13:26.999Z</time></trkpt><trkpt lat="44.51901506254101" lon="10.890104552206482"><ele>131.0</ele><time>2026-04-04T13:13:28.999Z</time></trkpt><trkpt lat="44.518911698449216" lon="10.890048528009876"><ele>131.0</ele><time>2026-04-04T13:13:30.999Z</time></trkpt><trkpt lat="44.51882293428497" lon="10.88998542624876"><ele>131.0</ele><time>2026-04-04T13:13:32.999Z</time></trkpt><trkpt lat="44.51875872204291" lon="10.889969533422313"><ele>131.0</ele><time>2026-04-04T13:13:33.999Z</time></trkpt><trkpt lat="44.51869575504618" lon="10.889949920497822"><ele>131.0</ele><time>2026-04-04T13:13:34.999Z</time></trkpt><trkpt lat="44.51858678076185" lon="10.889904216997866"><ele>130.8</ele><time>2026-04-04T13:13:36.999Z</time></trkpt><trkpt lat="44.51847973713407" lon="10.889845728110537"><ele>130.6</ele><time>2026-04-04T13:13:38.999Z</time></trkpt><trkpt lat="44.51837906895479" lon="10.889785716596682"><ele>130.4</ele><time>2026-04-04T13:13:40.999Z</time></trkpt><trkpt lat="44.51828287900488" lon="10.88971405661152"><ele>130.2</ele><time>2026-04-04T13:13:42.998Z</time></trkpt><trkpt lat="44.51818939976741" lon="10.88964074290006"><ele>130.0</ele><time>2026-04-04T13:13:44.998Z</time></trkpt><trkpt lat="44.51810875217238" lon="10.889571299876213"><ele>130.0</ele><time>2026-04-04T13:13:46.998Z</time></trkpt><trkpt lat="44.51802111827008" lon="10.889497802230682"><ele>130.0</ele><time>2026-04-04T13:13:48.998Z</time></trkpt><trkpt lat="44.51793504211416" lon="10.889440331230748"><ele>130.0</ele><time>2026-04-04T13:13:50.998Z</time></trkpt><trkpt lat="44.51785969289715" lon="10.889363378912684"><ele>130.0</ele><time>2026-04-04T13:13:52.998Z</time></trkpt><trkpt lat="44.51779297916713" lon="10.88926660893383"><ele>130.0</ele><time>2026-04-04T13:13:55Z</time></trkpt><trkpt lat="44.51772999989854" lon="10.88917232535678"><ele>129.8</ele><time>2026-04-04T13:13:57Z</time></trkpt><trkpt lat="44.51766073801971" lon="10.889062569877634"><ele>129.6</ele><time>2026-04-04T13:13:59Z</time></trkpt><trkpt lat="44.51760173031551" lon="10.88896091209448"><ele>129.4</ele><time>2026-04-04T13:14:01Z</time></trkpt><trkpt lat="44.51754699508318" lon="10.888860902922787"><ele>129.2</ele><time>2026-04-04T13:14:03Z</time></trkpt><trkpt lat="44.517495334167904" lon="10.88875266219547"><ele>129.0</ele><time>2026-04-04T13:14:05Z</time></trkpt><trkpt lat="44.51742982186893" lon="10.888654625653835"><ele>129.0</ele><time>2026-04-04T13:14:07Z</time></trkpt><trkpt lat="44.517341741497624" lon="10.88860693510681"><ele>129.0</ele><time>2026-04-04T13:14:09Z</time></trkpt><trkpt lat="44.517258400891585" lon="10.888582982821262"><ele>129.0</ele><time>2026-04-04T13:14:11Z</time></trkpt><trkpt lat="44.51718487914349" lon="10.888533264670938"><ele>129.0</ele><time>2026-04-04T13:14:13Z</time></trkpt><trkpt lat="44.51712809863051" lon="10.888435756654902"><ele>129.0</ele><time>2026-04-04T13:14:15Z</time></trkpt><trkpt lat="44.517065454590885" lon="10.8883567961816"><ele>129.0</ele><time>2026-04-04T13:14:17Z</time></trkpt><trkpt lat="44.51704363459378" lon="10.888240473989951"><ele>129.42857142857142</ele><time>2026-04-04T13:14:19Z</time></trkpt><trkpt lat="44.51708484383101" lon="10.888141734789283"><ele>129.85714285714286</ele><time>2026-04-04T13:14:21Z</time></trkpt><trkpt lat="44.517072077597966" lon="10.88802412237224"><ele>130.28571428571428</ele><time>2026-04-04T13:14:24Z</time></trkpt><trkpt lat="44.51703725424667" lon="10.887945196390056"><ele>130.71428571428572</ele><time>2026-04-04T13:14:26Z</time></trkpt><trkpt lat="44.51699204672848" lon="10.887874849231897"><ele>131.14285714285714</ele><time>2026-04-04T13:14:28Z</time></trkpt><trkpt lat="44.51695414145436" lon="10.887796580602254"><ele>131.57142857142856</ele><time>2026-04-04T13:14:30Z</time></trkpt><trkpt lat="44.51691292172379" lon="10.887718249173169"><ele>132.0</ele><time>2026-04-04T13:14:32Z</time></trkpt><trkpt lat="44.51687501125862" lon="10.887636631913068"><ele>132.0</ele><time>2026-04-04T13:14:34Z</time></trkpt><trkpt lat="44.51683212046641" lon="10.88754465207139"><ele>132.0</ele><time>2026-04-04T13:14:36Z</time></trkpt><trkpt lat="44.5169995028289" lon="10.887282875214115"><ele>132.0</ele><time>2026-04-04T13:14:37Z</time></trkpt><trkpt lat="44.516951957727144" lon="10.887206379849669"><ele>132.0</ele><time>2026-04-04T13:14:39Z</time></trkpt><trkpt lat="44.516902423019914" lon="10.887126511629177"><ele>132.0</ele><time>2026-04-04T13:14:40.999Z</time></trkpt><trkpt lat="44.51684283686583" lon="10.887028612046777"><ele>132.0</ele><time>2026-04-04T13:14:43.999Z</time></trkpt><trkpt lat="44.51679954486688" lon="10.886956051741269"><ele>132.0</ele><time>2026-04-04T13:14:45.999Z</time></trkpt><trkpt lat="44.51675580360666" lon="10.886882738408351"><ele>132.0</ele><time>2026-04-04T13:14:47.999Z</time></trkpt><trkpt lat="44.516700686796035" lon="10.886790358932807"><ele>132.0</ele><time>2026-04-04T13:14:50.999Z</time></trkpt><trkpt lat="44.51664970870735" lon="10.886704916244405"><ele>132.0</ele><time>2026-04-04T13:14:53.999Z</time></trkpt><trkpt lat="44.51660917606192" lon="10.886636980378835"><ele>132.71428571428572</ele><time>2026-04-04T13:14:55.999Z</time></trkpt><trkpt lat="44.51655671314836" lon="10.886548110200946"><ele>133.42857142857144</ele><time>2026-04-04T13:14:57.999Z</time></trkpt><trkpt lat="44.516513596366345" lon="10.886475163286818"><ele>134.14285714285717</ele><time>2026-04-04T13:14:59.999Z</time></trkpt><trkpt lat="44.51646538467743" lon="10.88639359648331"><ele>134.85714285714286</ele><time>2026-04-04T13:15:01.999Z</time></trkpt><trkpt lat="44.51641768029302" lon="10.886312888002355"><ele>135.57142857142858</ele><time>2026-04-04T13:15:03.999Z</time></trkpt><trkpt lat="44.51637410638293" lon="10.886239167608224"><ele>136.2857142857143</ele><time>2026-04-04T13:15:05.999Z</time></trkpt><trkpt lat="44.516328522624555" lon="10.8861620469573"><ele>137.0</ele><time>2026-04-04T13:15:07.999Z</time></trkpt><trkpt lat="44.51626966691971" lon="10.886062472093327"><ele>137.00000000000003</ele><time>2026-04-04T13:15:10.999Z</time></trkpt><trkpt lat="44.51622784183491" lon="10.885991710467403"><ele>137.0</ele><time>2026-04-04T13:15:12.999Z</time></trkpt><trkpt lat="44.516184180462716" lon="10.885917842223517"><ele>137.0</ele><time>2026-04-04T13:15:14.999Z</time></trkpt><trkpt lat="44.51613541082333" lon="10.885835331430462"><ele>137.0</ele><time>2026-04-04T13:15:16.999Z</time></trkpt><trkpt lat="44.51609359022466" lon="10.885764577268715"><ele>137.0</ele><time>2026-04-04T13:15:18.999Z</time></trkpt><trkpt lat="44.51604713663563" lon="10.885685984993216"><ele>137.00000000000003</ele><time>2026-04-04T13:15:20.999Z</time></trkpt><trkpt lat="44.516003634834114" lon="10.885612386583915"><ele>137.0</ele><time>2026-04-04T13:15:22.999Z</time></trkpt><trkpt lat="44.51596123307285" lon="10.88554064935577"><ele>137.0</ele><time>2026-04-04T13:15:24.999Z</time></trkpt><trkpt lat="44.515910553956516" lon="10.88545490805529"><ele>137.0</ele><time>2026-04-04T13:15:26.999Z</time></trkpt><trkpt lat="44.51585702732276" lon="10.885364349191615"><ele>137.0</ele><time>2026-04-04T13:15:28.999Z</time></trkpt><trkpt lat="44.51580419118453" lon="10.885274958594376"><ele>137.0</ele><time>2026-04-04T13:15:30.999Z</time></trkpt><trkpt lat="44.515756742549456" lon="10.885194685374815"><ele>137.0</ele><time>2026-04-04T13:15:32.999Z</time></trkpt><trkpt lat="44.515708481229844" lon="10.885114015181808"><ele>137.0</ele><time>2026-04-04T13:15:35.999Z</time></trkpt><trkpt lat="44.515665735012476" lon="10.885042267246059"><ele>137.00000000000003</ele><time>2026-04-04T13:15:37.999Z</time></trkpt><trkpt lat="44.51562474095079" lon="10.884972871504672"><ele>137.0</ele><time>2026-04-04T13:15:39.999Z</time></trkpt><trkpt lat="44.515581795219695" lon="10.884900430494582"><ele>137.0</ele><time>2026-04-04T13:15:41.999Z</time></trkpt><trkpt lat="44.515539884253" lon="10.884829734896755"><ele>137.0</ele><time>2026-04-04T13:15:43.999Z</time></trkpt><trkpt lat="44.51548389682611" lon="10.884735295110785"><ele>137.0</ele><time>2026-04-04T13:15:46.999Z</time></trkpt><trkpt lat="44.51543879607929" lon="10.884659218846704"><ele>137.00000000000003</ele><time>2026-04-04T13:15:48.998Z</time></trkpt><trkpt lat="44.51538034626693" lon="10.884560625495638"><ele>137.0</ele><time>2026-04-04T13:15:50.998Z</time></trkpt><trkpt lat="44.51533292760051" lon="10.884480639524229"><ele>137.0</ele><time>2026-04-04T13:15:52.998Z</time></trkpt><trkpt lat="44.51527515106117" lon="10.884383181787879"><ele>137.0</ele><time>2026-04-04T13:15:55.998Z</time></trkpt><trkpt lat="44.51520957271519" lon="10.884272563943588"><ele>137.0</ele><time>2026-04-04T13:15:58.998Z</time></trkpt><trkpt lat="44.51515263327859" lon="10.884176518240503"><ele>137.0</ele><time>2026-04-04T13:16:01Z</time></trkpt><trkpt lat="44.51511055533147" lon="10.884105519586479"><ele>137.0</ele><time>2026-04-04T13:16:03Z</time></trkpt><trkpt lat="44.51506316332671" lon="10.8840255237172"><ele>137.0</ele><time>2026-04-04T13:16:05Z</time></trkpt><trkpt lat="44.51501632095454" lon="10.883946455593358"><ele>137.14285714285717</ele><time>2026-04-04T13:16:07Z</time></trkpt><trkpt lat="44.514973333146436" lon="10.883873893852373"><ele>137.28571428571428</ele><time>2026-04-04T13:16:09Z</time></trkpt><trkpt lat="44.51493095060639" lon="10.883802353918634"><ele>137.42857142857144</ele><time>2026-04-04T13:16:11Z</time></trkpt><trkpt lat="44.514884725601114" lon="10.883724327863252"><ele>137.57142857142858</ele><time>2026-04-04T13:16:13Z</time></trkpt><trkpt lat="44.51483909541478" lon="10.883647305982622"><ele>137.71428571428572</ele><time>2026-04-04T13:16:15Z</time></trkpt><trkpt lat="44.514790362671235" lon="10.883565047018749"><ele>137.85714285714286</ele><time>2026-04-04T13:16:17Z</time></trkpt><trkpt lat="44.51474375001016" lon="10.883486366612274"><ele>138.0</ele><time>2026-04-04T13:16:19Z</time></trkpt><trkpt lat="44.51470016443106" lon="10.883412795996543"><ele>138.14285714285714</ele><time>2026-04-04T13:16:21Z</time></trkpt><trkpt lat="44.5146516039811" lon="10.883330827835023"><ele>138.2857142857143</ele><time>2026-04-04T13:16:23Z</time></trkpt><trkpt lat="44.514603997701016" lon="10.883250470332976"><ele>138.42857142857144</ele><time>2026-04-04T13:16:25Z</time></trkpt><trkpt lat="44.51455501984698" lon="10.8831677976985"><ele>138.57142857142858</ele><time>2026-04-04T13:16:27Z</time></trkpt><trkpt lat="44.5145097158857" lon="10.883091326414682"><ele>138.71428571428572</ele><time>2026-04-04T13:16:29Z</time></trkpt><trkpt lat="44.51446207691633" lon="10.88301092916261"><ele>138.85714285714286</ele><time>2026-04-04T13:16:31Z</time></trkpt><trkpt lat="44.514416508727614" lon="10.882934028499024"><ele>139.0</ele><time>2026-04-04T13:16:33Z</time></trkpt><trkpt lat="44.51436883561461" lon="10.88285357550775"><ele>139.0</ele><time>2026-04-04T13:16:35Z</time></trkpt><trkpt lat="44.514326308367714" lon="10.882781806710078"><ele>139.0</ele><time>2026-04-04T13:16:37Z</time></trkpt><trkpt lat="44.51426453012451" lon="10.88267754994972"><ele>139.0</ele><time>2026-04-04T13:16:40Z</time></trkpt><trkpt lat="44.51422349347488" lon="10.882608296686183"><ele>139.0</ele><time>2026-04-04T13:16:42Z</time></trkpt><trkpt lat="44.514171289315904" lon="10.882520197176543"><ele>139.0</ele><time>2026-04-04T13:16:45Z</time></trkpt><trkpt lat="44.51412890054554" lon="10.88244866202953"><ele>139.0</ele><time>2026-04-04T13:16:47Z</time></trkpt><trkpt lat="44.514066573055636" lon="10.882343501422392"><ele>139.66666666666669</ele><time>2026-04-04T13:16:49.999Z</time></trkpt><trkpt lat="44.514021390800856" lon="10.882267273770571"><ele>140.33333333333334</ele><time>2026-04-04T13:16:51.999Z</time></trkpt><trkpt lat="44.51396307732544" lon="10.882168892322136"><ele>141.0</ele><time>2026-04-04T13:16:54.999Z</time></trkpt><trkpt lat="44.513915384167575" lon="10.882088428492551"><ele>141.66666666666666</ele><time>2026-04-04T13:16:57.999Z</time></trkpt><trkpt lat="44.51386140055093" lon="10.881997351971988"><ele>142.33333333333331</ele><time>2026-04-04T13:17:01.999Z</time></trkpt><trkpt lat="44.51381924274126" lon="10.881927232345287"><ele>143.0</ele><time>2026-04-04T13:17:52.999Z</time></trkpt><trkpt lat="44.513768457392516" lon="10.881842976477015"><ele>142.83333333333331</ele><time>2026-04-04T13:17:56.999Z</time></trkpt><trkpt lat="44.5137249423806" lon="10.881770782602082"><ele>142.66666666666666</ele><time>2026-04-04T13:17:59.998Z</time></trkpt><trkpt lat="44.51366642500489" lon="10.881675053537377"><ele>142.5</ele><time>2026-04-04T13:18:02.998Z</time></trkpt><trkpt lat="44.51362302302473" lon="10.88160369003916"><ele>142.33333333333334</ele><time>2026-04-04T13:18:04.998Z</time></trkpt><trkpt lat="44.51358054461045" lon="10.88153368172201"><ele>142.16666666666669</ele><time>2026-04-04T13:18:07Z</time></trkpt><trkpt lat="44.51351907501893" lon="10.88143249258039"><ele>142.0</ele><time>2026-04-04T13:18:10Z</time></trkpt><trkpt lat="44.513476191004" lon="10.881362834589574"><ele>142.33333333333334</ele><time>2026-04-04T13:18:12Z</time></trkpt><trkpt lat="44.51342617887489" lon="10.881281598076882"><ele>142.66666666666669</ele><time>2026-04-04T13:18:14Z</time></trkpt><trkpt lat="44.51336163602084" lon="10.881176758850751"><ele>143.0</ele><time>2026-04-04T13:18:17Z</time></trkpt><trkpt lat="44.51331703311619" lon="10.88110318345375"><ele>143.33333333333334</ele><time>2026-04-04T13:18:19Z</time></trkpt><trkpt lat="44.513271755816255" lon="10.881028285764359"><ele>143.66666666666666</ele><time>2026-04-04T13:18:21Z</time></trkpt><trkpt lat="44.51322317396252" lon="10.880947921689677"><ele>144.0</ele><time>2026-04-04T13:18:24Z</time></trkpt><trkpt lat="44.513175319945475" lon="10.880860456797569"><ele>144.0</ele><time>2026-04-04T13:18:29Z</time></trkpt><trkpt lat="44.51313129376731" lon="10.880752242656824"><ele>144.0</ele><time>2026-04-04T13:18:32Z</time></trkpt><trkpt lat="44.51309638416123" lon="10.880670252060815"><ele>144.0</ele><time>2026-04-04T13:18:34Z</time></trkpt><trkpt lat="44.51303408712061" lon="10.88057111295128"><ele>144.0</ele><time>2026-04-04T13:18:36Z</time></trkpt><trkpt lat="44.51298679092879" lon="10.880495187624277"><ele>144.0</ele><time>2026-04-04T13:18:38Z</time></trkpt><trkpt lat="44.51293807029428" lon="10.880416732521711"><ele>144.0</ele><time>2026-04-04T13:18:40Z</time></trkpt><trkpt lat="44.512882321735454" lon="10.880326960393674"><ele>144.16666666666666</ele><time>2026-04-04T13:18:42Z</time></trkpt><trkpt lat="44.51281679171935" lon="10.88022133868564"><ele>144.33333333333334</ele><time>2026-04-04T13:18:44Z</time></trkpt><trkpt lat="44.51276205034121" lon="10.880132644137804"><ele>144.5</ele><time>2026-04-04T13:18:46Z</time></trkpt><trkpt lat="44.5126997267627" lon="10.880031664549886"><ele>144.66666666666669</ele><time>2026-04-04T13:18:48Z</time></trkpt><trkpt lat="44.5126534289437" lon="10.879956650794947"><ele>144.83333333333334</ele><time>2026-04-04T13:18:50Z</time></trkpt><trkpt lat="44.51260443807002" lon="10.879876799065338"><ele>145.0</ele><time>2026-04-04T13:18:51.999Z</time></trkpt><trkpt lat="44.512550645386646" lon="10.879789062235085"><ele>145.28571428571428</ele><time>2026-04-04T13:18:54.999Z</time></trkpt><trkpt lat="44.51250636667637" lon="10.879716689100459"><ele>145.57142857142858</ele><time>2026-04-04T13:18:56.999Z</time></trkpt><trkpt lat="44.51245746034856" lon="10.879636752415223"><ele>145.85714285714286</ele><time>2026-04-04T13:18:58.999Z</time></trkpt><trkpt lat="44.51240689358837" lon="10.879554101608354"><ele>146.14285714285714</ele><time>2026-04-04T13:19:00.999Z</time></trkpt><trkpt lat="44.51236603376957" lon="10.879485559257558"><ele>146.42857142857144</ele><time>2026-04-04T13:19:02.999Z</time></trkpt><trkpt lat="44.5123216545009" lon="10.87941060758704"><ele>146.71428571428572</ele><time>2026-04-04T13:19:04.999Z</time></trkpt><trkpt lat="44.51227574865379" lon="10.879332431142997"><ele>147.0</ele><time>2026-04-04T13:19:06.999Z</time></trkpt><trkpt lat="44.51221885296019" lon="10.879233845581268"><ele>147.0</ele><time>2026-04-04T13:19:08.999Z</time></trkpt><trkpt lat="44.5121696511024" lon="10.879149407925702"><ele>147.0</ele><time>2026-04-04T13:19:10.999Z</time></trkpt><trkpt lat="44.512100743035205" lon="10.879032901110836"><ele>147.0</ele><time>2026-04-04T13:19:13.999Z</time></trkpt><trkpt lat="44.51205898345828" lon="10.878962295923056"><ele>147.0</ele><time>2026-04-04T13:19:15.999Z</time></trkpt><trkpt lat="44.51201528452978" lon="10.87888841163811"><ele>147.0</ele><time>2026-04-04T13:19:17.999Z</time></trkpt><trkpt lat="44.51196193323173" lon="10.878798207574158"><ele>147.0</ele><time>2026-04-04T13:19:20.999Z</time></trkpt><trkpt lat="44.51190789226159" lon="10.878706837477747"><ele>147.0</ele><time>2026-04-04T13:19:23.999Z</time></trkpt><trkpt lat="44.51186105569955" lon="10.878628307502606"><ele>147.0</ele><time>2026-04-04T13:19:25.999Z</time></trkpt><trkpt lat="44.51182052337361" lon="10.878560654922206"><ele>147.0</ele><time>2026-04-04T13:19:27.999Z</time></trkpt><trkpt lat="44.511774480951175" lon="10.878483805554241"><ele>147.0</ele><time>2026-04-04T13:19:30.999Z</time></trkpt><trkpt lat="44.51173246024603" lon="10.878413670060043"><ele>147.0</ele><time>2026-04-04T13:19:33.999Z</time></trkpt><trkpt lat="44.51168919056703" lon="10.878341448615277"><ele>147.0</ele><time>2026-04-04T13:19:36.999Z</time></trkpt><trkpt lat="44.51162796655251" lon="10.87823925951724"><ele>147.0</ele><time>2026-04-04T13:19:39.999Z</time></trkpt><trkpt lat="44.51158595184771" lon="10.87816913333553"><ele>147.33333333333334</ele><time>2026-04-04T13:19:41.999Z</time></trkpt><trkpt lat="44.511532314656925" lon="10.878077242891006"><ele>147.66666666666666</ele><time>2026-04-04T13:19:43.999Z</time></trkpt><trkpt lat="44.51147819138608" lon="10.877984696120832"><ele>148.0</ele><time>2026-04-04T13:19:45.999Z</time></trkpt><trkpt lat="44.51142888361577" lon="10.87790038347946"><ele>148.33333333333331</ele><time>2026-04-04T13:19:47.999Z</time></trkpt><trkpt lat="44.51137697111218" lon="10.877811617056578"><ele>148.66666666666666</ele><time>2026-04-04T13:19:49.999Z</time></trkpt><trkpt lat="44.51132528420034" lon="10.877723304210386"><ele>149.0</ele><time>2026-04-04T13:19:52.999Z</time></trkpt><trkpt lat="44.51127449755401" lon="10.877637620968457"><ele>149.5</ele><time>2026-04-04T13:19:56.999Z</time></trkpt><trkpt lat="44.511223340147666" lon="10.877551312211578"><ele>150.0</ele><time>2026-04-04T13:20:00.999Z</time></trkpt><trkpt lat="44.511169802694035" lon="10.877462661122696"><ele>150.5</ele><time>2026-04-04T13:20:03.998Z</time></trkpt><trkpt lat="44.51111661140153" lon="10.877378636533873"><ele>151.0</ele><time>2026-04-04T13:20:06.998Z</time></trkpt><trkpt lat="44.51107041969147" lon="10.877310993718828"><ele>151.5</ele><time>2026-04-04T13:20:08.998Z</time></trkpt><trkpt lat="44.51099705925714" lon="10.877206577399429"><ele>152.0</ele><time>2026-04-04T13:20:12Z</time></trkpt><trkpt lat="44.51094247725379" lon="10.87713237429506"><ele>152.0</ele><time>2026-04-04T13:20:14Z</time></trkpt><trkpt lat="44.51089046425804" lon="10.877061665869686"><ele>152.0</ele><time>2026-04-04T13:20:16Z</time></trkpt><trkpt lat="44.510796067338305" lon="10.876949211054994"><ele>152.0</ele><time>2026-04-04T13:20:18Z</time></trkpt><trkpt lat="44.51033680710403" lon="10.87753160501322"><ele>152.0</ele><time>2026-04-04T13:20:20Z</time></trkpt><trkpt lat="44.51025794292635" lon="10.877480915113159"><ele>152.0</ele><time>2026-04-04T13:20:22Z</time></trkpt><trkpt lat="44.51016981398457" lon="10.877440417211018"><ele>152.0</ele><time>2026-04-04T13:20:24Z</time></trkpt><trkpt lat="44.51009001593695" lon="10.877404213437803"><ele>152.0</ele><time>2026-04-04T13:20:26Z</time></trkpt><trkpt lat="44.51000207288141" lon="10.877372770949359"><ele>152.0</ele><time>2026-04-04T13:20:28Z</time></trkpt><trkpt lat="44.50991446487705" lon="10.877342437253157"><ele>152.0</ele><time>2026-04-04T13:20:30Z</time></trkpt><trkpt lat="44.50983891185853" lon="10.877289922316386"><ele>152.0</ele><time>2026-04-04T13:20:32Z</time></trkpt><trkpt lat="44.50975388883858" lon="10.877261901644834"><ele>152.0</ele><time>2026-04-04T13:20:34Z</time></trkpt><trkpt lat="44.5096751564006" lon="10.877223065685174"><ele>152.0</ele><time>2026-04-04T13:20:36Z</time></trkpt><trkpt lat="44.50960287045354" lon="10.877186904438203"><ele>152.0</ele><time>2026-04-04T13:20:38Z</time></trkpt><trkpt lat="44.50952002863368" lon="10.877152650752828"><ele>152.0</ele><time>2026-04-04T13:20:40Z</time></trkpt><trkpt lat="44.50944254851165" lon="10.87711073149428"><ele>152.0</ele><time>2026-04-04T13:20:42Z</time></trkpt><trkpt lat="44.50935675185118" lon="10.87710411519846"><ele>151.7142857142857</ele><time>2026-04-04T13:20:44Z</time></trkpt><trkpt lat="44.50927329772129" lon="10.877094028536625"><ele>151.42857142857144</ele><time>2026-04-04T13:20:46Z</time></trkpt><trkpt lat="44.50921263805848" lon="10.877064021992599"><ele>151.14285714285714</ele><time>2026-04-04T13:20:48Z</time></trkpt><trkpt lat="44.509152327370494" lon="10.877029478024957"><ele>150.85714285714283</ele><time>2026-04-04T13:20:50Z</time></trkpt><trkpt lat="44.50909196087744" lon="10.877000177231997"><ele>150.57142857142856</ele><time>2026-04-04T13:20:52Z</time></trkpt><trkpt lat="44.50900942905085" lon="10.876949334184253"><ele>150.28571428571428</ele><time>2026-04-04T13:20:54.999Z</time></trkpt><trkpt lat="44.50895080262321" lon="10.876911181876121"><ele>150.0</ele><time>2026-04-04T13:20:56.999Z</time></trkpt><trkpt lat="44.508883485025194" lon="10.876867351927181"><ele>150.0</ele><time>2026-04-04T13:20:58.999Z</time></trkpt><trkpt lat="44.50880686413449" lon="10.876813224722282"><ele>150.0</ele><time>2026-04-04T13:21:00.999Z</time></trkpt><trkpt lat="44.50872668185972" lon="10.876772723878688"><ele>150.0</ele><time>2026-04-04T13:21:02.999Z</time></trkpt><trkpt lat="44.5086537971401" lon="10.876718925434139"><ele>150.0</ele><time>2026-04-04T13:21:04.999Z</time></trkpt><trkpt lat="44.508568078267906" lon="10.876665781521758"><ele>150.0</ele><time>2026-04-04T13:21:06.999Z</time></trkpt><trkpt lat="44.50848059992464" lon="10.876643936116162"><ele>150.0</ele><time>2026-04-04T13:21:08.999Z</time></trkpt><trkpt lat="44.50840145340519" lon="10.876608593030573"><ele>150.16666666666666</ele><time>2026-04-04T13:21:10.999Z</time></trkpt><trkpt lat="44.50831526635196" lon="10.876568128536281"><ele>150.33333333333334</ele><time>2026-04-04T13:21:12.999Z</time></trkpt><trkpt lat="44.508227973808246" lon="10.876528546989713"><ele>150.5</ele><time>2026-04-04T13:21:14.999Z</time></trkpt><trkpt lat="44.50814302578046" lon="10.87648483989582"><ele>150.66666666666669</ele><time>2026-04-04T13:21:16.999Z</time></trkpt><trkpt lat="44.50806326458894" lon="10.876447866221614"><ele>150.83333333333334</ele><time>2026-04-04T13:21:18.999Z</time></trkpt><trkpt lat="44.50798508679259" lon="10.87640040091854"><ele>151.0</ele><time>2026-04-04T13:21:20.999Z</time></trkpt><trkpt lat="44.50790614576521" lon="10.876371735887892"><ele>151.16666666666669</ele><time>2026-04-04T13:21:22.999Z</time></trkpt><trkpt lat="44.50782939311179" lon="10.876347337641953"><ele>151.33333333333334</ele><time>2026-04-04T13:21:24.999Z</time></trkpt><trkpt lat="44.50775755297599" lon="10.876318267895332"><ele>151.5</ele><time>2026-04-04T13:21:26.999Z</time></trkpt><trkpt lat="44.507677796755274" lon="10.876272123374129"><ele>151.66666666666666</ele><time>2026-04-04T13:21:28.999Z</time></trkpt><trkpt lat="44.50759601976369" lon="10.876232601196325"><ele>151.83333333333331</ele><time>2026-04-04T13:21:30.999Z</time></trkpt><trkpt lat="44.50751849931706" lon="10.87618988627506"><ele>152.0</ele><time>2026-04-04T13:21:32.999Z</time></trkpt><trkpt lat="44.507429797884434" lon="10.876150228464812"><ele>152.0</ele><time>2026-04-04T13:21:34.999Z</time></trkpt><trkpt lat="44.507353196458816" lon="10.87610110284715"><ele>152.0</ele><time>2026-04-04T13:21:36.999Z</time></trkpt><trkpt lat="44.50726378471501" lon="10.876087224952471"><ele>152.0</ele><time>2026-04-04T13:21:38.999Z</time></trkpt><trkpt lat="44.50717294815621" lon="10.876126962455887"><ele>152.0</ele><time>2026-04-04T13:21:40.999Z</time></trkpt><trkpt lat="44.50707956621666" lon="10.876091749557359"><ele>152.0</ele><time>2026-04-04T13:21:42.999Z</time></trkpt><trkpt lat="44.5069980521402" lon="10.876040852549586"><ele>152.2</ele><time>2026-04-04T13:21:44.999Z</time></trkpt><trkpt lat="44.50690433780051" lon="10.875999773021189"><ele>152.39999999999998</ele><time>2026-04-04T13:21:46.999Z</time></trkpt><trkpt lat="44.506819761800145" lon="10.875964245643553"><ele>152.60000000000002</ele><time>2026-04-04T13:21:48.999Z</time></trkpt><trkpt lat="44.50672624381407" lon="10.875918663349584"><ele>152.8</ele><time>2026-04-04T13:21:50.999Z</time></trkpt><trkpt lat="44.506635560938065" lon="10.87587943060562"><ele>153.0</ele><time>2026-04-04T13:21:52.999Z</time></trkpt><trkpt lat="44.506533023481815" lon="10.87582651613088"><ele>153.20000000000002</ele><time>2026-04-04T13:21:54.999Z</time></trkpt><trkpt lat="44.50646059241735" lon="10.875812865477554"><ele>153.4</ele><time>2026-04-04T13:21:55.999Z</time></trkpt><trkpt lat="44.506349616564776" lon="10.875756582783584"><ele>153.60000000000002</ele><time>2026-04-04T13:21:57.999Z</time></trkpt><trkpt lat="44.50622628882554" lon="10.875736352907806"><ele>153.8</ele><time>2026-04-04T13:21:59.999Z</time></trkpt><trkpt lat="44.50613463448941" lon="10.875699186209435"><ele>154.0</ele><time>2026-04-04T13:22:01.999Z</time></trkpt><trkpt lat="44.506037733637214" lon="10.875684921780932"><ele>154.2</ele><time>2026-04-04T13:22:03.999Z</time></trkpt><trkpt lat="44.50593695581401" lon="10.875679401943977"><ele>154.4</ele><time>2026-04-04T13:22:05.999Z</time></trkpt><trkpt lat="44.50584117331753" lon="10.875700024142722"><ele>154.6</ele><time>2026-04-04T13:22:07.999Z</time></trkpt><trkpt lat="44.50573969110692" lon="10.875724977487968"><ele>154.8</ele><time>2026-04-04T13:22:09.998Z</time></trkpt><trkpt lat="44.50564354730188" lon="10.875693065844567"><ele>155.0</ele><time>2026-04-04T13:22:11.998Z</time></trkpt><trkpt lat="44.505552227366906" lon="10.87567238964274"><ele>155.0</ele><time>2026-04-04T13:22:13.998Z</time></trkpt><trkpt lat="44.50547411323896" lon="10.875661194506879"><ele>155.0</ele><time>2026-04-04T13:22:15.998Z</time></trkpt><trkpt lat="44.50539778458734" lon="10.87569316549279"><ele>155.0</ele><time>2026-04-04T13:22:18Z</time></trkpt><trkpt lat="44.50531443095283" lon="10.875707222719162"><ele>155.0</ele><time>2026-04-04T13:22:20Z</time></trkpt><trkpt lat="44.505217497441066" lon="10.875721737219065"><ele>155.0</ele><time>2026-04-04T13:22:22Z</time></trkpt><trkpt lat="44.505121768066225" lon="10.875705298873765"><ele>155.0</ele><time>2026-04-04T13:22:24Z</time></trkpt><trkpt lat="44.50502569869503" lon="10.875713788060818"><ele>155.8</ele><time>2026-04-04T13:22:26Z</time></trkpt><trkpt lat="44.5049321704998" lon="10.875758061995445"><ele>156.6</ele><time>2026-04-04T13:22:28Z</time></trkpt><trkpt lat="44.50484953216477" lon="10.875811291057037"><ele>157.4</ele><time>2026-04-04T13:22:30Z</time></trkpt><trkpt lat="44.5047519323595" lon="10.875817323481659"><ele>158.2</ele><time>2026-04-04T13:22:32Z</time></trkpt><trkpt lat="44.5046602858285" lon="10.87578956504249"><ele>159.0</ele><time>2026-04-04T13:22:34Z</time></trkpt><trkpt lat="44.50456490363268" lon="10.87577776902568"><ele>158.83333333333334</ele><time>2026-04-04T13:22:36Z</time></trkpt><trkpt lat="44.50447814900287" lon="10.875773371813521"><ele>158.66666666666666</ele><time>2026-04-04T13:22:38Z</time></trkpt><trkpt lat="44.50439136498439" lon="10.875791858593944"><ele>158.5</ele><time>2026-04-04T13:22:40Z</time></trkpt><trkpt lat="44.50431334928453" lon="10.875808977469859"><ele>158.33333333333331</ele><time>2026-04-04T13:22:42Z</time></trkpt><trkpt lat="44.504241849194806" lon="10.875838773972806"><ele>158.16666666666666</ele><time>2026-04-04T13:22:44Z</time></trkpt><trkpt lat="44.50416307563057" lon="10.875879722403438"><ele>158.0</ele><time>2026-04-04T13:22:46Z</time></trkpt><trkpt lat="44.504071794822536" lon="10.875941012744804"><ele>158.0</ele><time>2026-04-04T13:22:48Z</time></trkpt><trkpt lat="44.50398580534698" lon="10.875981366776278"><ele>158.0</ele><time>2026-04-04T13:22:50Z</time></trkpt><trkpt lat="44.50389744172067" lon="10.875988514271624"><ele>158.0</ele><time>2026-04-04T13:22:52Z</time></trkpt><trkpt lat="44.503823214475986" lon="10.87597319080779"><ele>158.0</ele><time>2026-04-04T13:22:54Z</time></trkpt><trkpt lat="44.50374970685509" lon="10.875990172218618"><ele>158.0</ele><time>2026-04-04T13:22:56Z</time></trkpt><trkpt lat="44.503677378641434" lon="10.875986775188467"><ele>158.0</ele><time>2026-04-04T13:22:58Z</time></trkpt><trkpt lat="44.50360712104701" lon="10.87600404959606"><ele>158.33333333333331</ele><time>2026-04-04T13:23:00Z</time></trkpt><trkpt lat="44.50353230363909" lon="10.87600836691676"><ele>158.66666666666666</ele><time>2026-04-04T13:23:02Z</time></trkpt><trkpt lat="44.503456619699854" lon="10.87600316807553"><ele>159.0</ele><time>2026-04-04T13:23:04Z</time></trkpt><trkpt lat="44.50337441001379" lon="10.876004132183061"><ele>159.33333333333334</ele><time>2026-04-04T13:23:05.999Z</time></trkpt><trkpt lat="44.503302222307425" lon="10.876019773599584"><ele>159.66666666666669</ele><time>2026-04-04T13:23:07.999Z</time></trkpt><trkpt lat="44.503231157221286" lon="10.876019558234358"><ele>160.0</ele><time>2026-04-04T13:23:09.999Z</time></trkpt><trkpt lat="44.50315327800281" lon="10.876016530141008"><ele>160.0</ele><time>2026-04-04T13:23:11.999Z</time></trkpt><trkpt lat="44.503076023329385" lon="10.876003541681461"><ele>160.0</ele><time>2026-04-04T13:23:13.999Z</time></trkpt><trkpt lat="44.50300991606724" lon="10.87597105883088"><ele>160.0</ele><time>2026-04-04T13:23:15.999Z</time></trkpt><trkpt lat="44.50293637101149" lon="10.875948892454801"><ele>160.0</ele><time>2026-04-04T13:23:18.999Z</time></trkpt><trkpt lat="44.50285793271175" lon="10.87595225262188"><ele>160.0</ele><time>2026-04-04T13:23:20.999Z</time></trkpt><trkpt lat="44.50276786482047" lon="10.875971427808354"><ele>160.0</ele><time>2026-04-04T13:23:22.999Z</time></trkpt><trkpt lat="44.50268145472486" lon="10.87596331293051"><ele>160.0</ele><time>2026-04-04T13:23:24.999Z</time></trkpt><trkpt lat="44.502602151371995" lon="10.875934362574952"><ele>160.0</ele><time>2026-04-04T13:23:26.999Z</time></trkpt><trkpt lat="44.50254248209787" lon="10.875905546917169"><ele>160.0</ele><time>2026-04-04T13:23:28.999Z</time></trkpt><trkpt lat="44.50245995034728" lon="10.875846495317836"><ele>160.0</ele><time>2026-04-04T13:23:31.999Z</time></trkpt><trkpt lat="44.5023877670433" lon="10.875785147264493"><ele>160.0</ele><time>2026-04-04T13:23:34.999Z</time></trkpt><trkpt lat="44.50230570993626" lon="10.875748119976443"><ele>160.0</ele><time>2026-04-04T13:23:37.999Z</time></trkpt><trkpt lat="44.50223607728118" lon="10.875708541008796"><ele>160.0</ele><time>2026-04-04T13:23:40.999Z</time></trkpt><trkpt lat="44.50215357630359" lon="10.87567188440906"><ele>160.0</ele><time>2026-04-04T13:23:43.999Z</time></trkpt><trkpt lat="44.50207063947101" lon="10.875627840094383"><ele>160.0</ele><time>2026-04-04T13:23:46.999Z</time></trkpt><trkpt lat="44.501970165759445" lon="10.875625415816561"><ele>160.0</ele><time>2026-04-04T13:23:49.999Z</time></trkpt><trkpt lat="44.50188140143109" lon="10.875622331311869"><ele>160.0</ele><time>2026-04-04T13:23:51.999Z</time></trkpt><trkpt lat="44.50177568899597" lon="10.875606708545831"><ele>160.6</ele><time>2026-04-04T13:23:53.999Z</time></trkpt><trkpt lat="44.50166951435031" lon="10.875598632011242"><ele>161.2</ele><time>2026-04-04T13:23:55.999Z</time></trkpt><trkpt lat="44.501575322700496" lon="10.875589560057314"><ele>161.8</ele><time>2026-04-04T13:23:57.999Z</time></trkpt><trkpt lat="44.50147829992712" lon="10.875572924914403"><ele>162.4</ele><time>2026-04-04T13:23:59.999Z</time></trkpt><trkpt lat="44.50138431888" lon="10.87554221994157"><ele>163.0</ele><time>2026-04-04T13:24:01.999Z</time></trkpt><trkpt lat="44.5012995747823" lon="10.875526329945806"><ele>163.66666666666669</ele><time>2026-04-04T13:24:03.999Z</time></trkpt><trkpt lat="44.50121575354602" lon="10.875515642610832"><ele>164.33333333333334</ele><time>2026-04-04T13:24:05.999Z</time></trkpt><trkpt lat="44.501134683380734" lon="10.875512852275973"><ele>165.0</ele><time>2026-04-04T13:24:07.999Z</time></trkpt><trkpt lat="44.50105923967137" lon="10.8755049915231"><ele>165.66666666666666</ele><time>2026-04-04T13:24:09.999Z</time></trkpt><trkpt lat="44.50099332836829" lon="10.87546350462838"><ele>166.33333333333331</ele><time>2026-04-04T13:24:11.999Z</time></trkpt><trkpt lat="44.50092306082226" lon="10.87538543858254"><ele>167.0</ele><time>2026-04-04T13:24:14.999Z</time></trkpt><trkpt lat="44.50087637300243" lon="10.875283036538578"><ele>167.0</ele><time>2026-04-04T13:24:16.999Z</time></trkpt><trkpt lat="44.50080121721021" lon="10.875225069245598"><ele>167.0</ele><time>2026-04-04T13:24:18.999Z</time></trkpt><trkpt lat="44.500749608089954" lon="10.875156365848012"><ele>167.0</ele><time>2026-04-04T13:24:20.999Z</time></trkpt><trkpt lat="44.500690231444615" lon="10.875072646096035"><ele>167.0</ele><time>2026-04-04T13:24:23Z</time></trkpt><trkpt lat="44.50063404316435" lon="10.874976506811056"><ele>167.0</ele><time>2026-04-04T13:24:25Z</time></trkpt><trkpt lat="44.50055942767805" lon="10.874890859755567"><ele>167.0</ele><time>2026-04-04T13:24:27Z</time></trkpt><trkpt lat="44.500494385369926" lon="10.8748092761036"><ele>166.83333333333331</ele><time>2026-04-04T13:24:29Z</time></trkpt><trkpt lat="44.50043508086695" lon="10.874730222392545"><ele>166.66666666666666</ele><time>2026-04-04T13:24:31Z</time></trkpt><trkpt lat="44.50036583586713" lon="10.874671002940424"><ele>166.5</ele><time>2026-04-04T13:24:33Z</time></trkpt><trkpt lat="44.50030378319557" lon="10.87461542706489"><ele>166.33333333333334</ele><time>2026-04-04T13:24:35Z</time></trkpt><trkpt lat="44.50022597141151" lon="10.874550809320425"><ele>166.16666666666669</ele><time>2026-04-04T13:24:38Z</time></trkpt><trkpt lat="44.500148187713016" lon="10.87448431114235"><ele>166.0</ele><time>2026-04-04T13:24:41Z</time></trkpt><trkpt lat="44.50008926941153" lon="10.874431797332196"><ele>165.83333333333334</ele><time>2026-04-04T13:24:43Z</time></trkpt><trkpt lat="44.50003698036996" lon="10.87432762465087"><ele>165.66666666666669</ele><time>2026-04-04T13:24:46Z</time></trkpt><trkpt lat="44.50000471004668" lon="10.874242102404855"><ele>165.5</ele><time>2026-04-04T13:24:49Z</time></trkpt><trkpt lat="44.49997575821785" lon="10.874153127598534"><ele>165.33333333333334</ele><time>2026-04-04T13:24:52Z</time></trkpt><trkpt lat="44.499966875541155" lon="10.874064368424229"><ele>165.16666666666666</ele><time>2026-04-04T13:24:55Z</time></trkpt><trkpt lat="44.49993304510068" lon="10.873956198210875"><ele>165.0</ele><time>2026-04-04T13:24:58Z</time></trkpt><trkpt lat="44.499877961891634" lon="10.8738673240842"><ele>165.0</ele><time>2026-04-04T13:25:01Z</time></trkpt><trkpt lat="44.49980949598122" lon="10.873786743961674"><ele>165.0</ele><time>2026-04-04T13:25:04Z</time></trkpt><trkpt lat="44.499749624063796" lon="10.873730627516165"><ele>165.0</ele><time>2026-04-04T13:25:06Z</time></trkpt><trkpt lat="44.49967951226217" lon="10.873629936978894"><ele>165.0</ele><time>2026-04-04T13:25:09Z</time></trkpt><trkpt lat="44.49961747507496" lon="10.873570411822124"><ele>165.0</ele><time>2026-04-04T13:25:11Z</time></trkpt><trkpt lat="44.49956581159419" lon="10.873497483160023"><ele>165.0</ele><time>2026-04-04T13:25:13Z</time></trkpt><trkpt lat="44.49953301124957" lon="10.873407638139982"><ele>165.83333333333334</ele><time>2026-04-04T13:25:14.999Z</time></trkpt><trkpt lat="44.49949379179891" lon="10.87332082832951"><ele>166.66666666666666</ele><time>2026-04-04T13:25:16.999Z</time></trkpt><trkpt lat="44.499454954293974" lon="10.873229209091175"><ele>167.5</ele><time>2026-04-04T13:25:18.999Z</time></trkpt><trkpt lat="44.4994114987842" lon="10.873149594602305"><ele>168.33333333333331</ele><time>2026-04-04T13:25:20.999Z</time></trkpt><trkpt lat="44.49935126887785" lon="10.873063562291998"><ele>169.16666666666666</ele><time>2026-04-04T13:25:23.999Z</time></trkpt><trkpt lat="44.499301051268056" lon="10.872971021584135"><ele>170.0</ele><time>2026-04-04T13:25:26.999Z</time></trkpt><trkpt lat="44.499269066283574" lon="10.8728842065073"><ele>170.0</ele><time>2026-04-04T13:25:29.999Z</time></trkpt><trkpt lat="44.49922913550249" lon="10.872773889592843"><ele>170.0</ele><time>2026-04-04T13:25:32.999Z</time></trkpt><trkpt lat="44.49919368173582" lon="10.872673794897672"><ele>170.0</ele><time>2026-04-04T13:25:35.999Z</time></trkpt><trkpt lat="44.49915743902361" lon="10.872572068607262"><ele>170.0</ele><time>2026-04-04T13:25:39.999Z</time></trkpt><trkpt lat="44.499120283375554" lon="10.872497810557915"><ele>170.0</ele><time>2026-04-04T13:25:42.999Z</time></trkpt><trkpt lat="44.49907674266073" lon="10.872407298478867"><ele>170.0</ele><time>2026-04-04T13:25:46.999Z</time></trkpt><trkpt lat="44.49903820840525" lon="10.872311639715173"><ele>170.0</ele><time>2026-04-04T13:25:50.999Z</time></trkpt><trkpt lat="44.49902045152373" lon="10.872197845554634"><ele>170.0</ele><time>2026-04-04T13:25:55.999Z</time></trkpt><trkpt lat="44.49899802341827" lon="10.872092120627915"><ele>170.0</ele><time>2026-04-04T13:25:59.999Z</time></trkpt><trkpt lat="44.49897567848724" lon="10.871984393646011"><ele>170.0</ele><time>2026-04-04T13:26:05.999Z</time></trkpt><trkpt lat="44.498944369210314" lon="10.871904693959785"><ele>170.0</ele><time>2026-04-04T13:26:08.999Z</time></trkpt><trkpt lat="44.4989085789569" lon="10.871804275948682"><ele>170.0</ele><time>2026-04-04T13:26:12.999Z</time></trkpt><trkpt lat="44.49887397542878" lon="10.871712301578652"><ele>170.16666666666666</ele><time>2026-04-04T13:26:16.999Z</time></trkpt><trkpt lat="44.4988448416638" lon="10.87161620528234"><ele>170.33333333333331</ele><time>2026-04-04T13:26:20.999Z</time></trkpt><trkpt lat="44.49882667281839" lon="10.871524272294952"><ele>170.5</ele><time>2026-04-04T13:26:23.999Z</time></trkpt><trkpt lat="44.498793726306396" lon="10.871444582444374"><ele>170.66666666666666</ele><time>2026-04-04T13:26:26.999Z</time></trkpt><trkpt lat="44.49875773986602" lon="10.871332021732467"><ele>170.83333333333334</ele><time>2026-04-04T13:26:30Z</time></trkpt><trkpt lat="44.498729458851294" lon="10.871219827080555"><ele>171.0</ele><time>2026-04-04T13:26:33Z</time></trkpt><trkpt lat="44.49869284677224" lon="10.871112750620284"><ele>171.16666666666666</ele><time>2026-04-04T13:26:36Z</time></trkpt><trkpt lat="44.498662965591365" lon="10.871001614463873"><ele>171.33333333333334</ele><time>2026-04-04T13:26:39Z</time></trkpt><trkpt lat="44.49862186015441" lon="10.870891320555069"><ele>171.5</ele><time>2026-04-04T13:26:42Z</time></trkpt><trkpt lat="44.498583994126086" lon="10.870784864194453"><ele>171.66666666666669</ele><time>2026-04-04T13:26:45Z</time></trkpt><trkpt lat="44.49855775427562" lon="10.870678761161674"><ele>171.83333333333334</ele><time>2026-04-04T13:26:48Z</time></trkpt><trkpt lat="44.49852140224338" lon="10.870582322493705"><ele>172.0</ele><time>2026-04-04T13:26:51Z</time></trkpt><trkpt lat="44.49847269751601" lon="10.87047350674566"><ele>172.16666666666669</ele><time>2026-04-04T13:26:54Z</time></trkpt><trkpt lat="44.49841591192418" lon="10.870391311455734"><ele>172.33333333333334</ele><time>2026-04-04T13:26:57Z</time></trkpt><trkpt lat="44.49837003648053" lon="10.87029685907136"><ele>172.5</ele><time>2026-04-04T13:27:00Z</time></trkpt><trkpt lat="44.49832596849352" lon="10.870232238649711"><ele>172.66666666666666</ele><time>2026-04-04T13:27:02Z</time></trkpt><trkpt lat="44.49828597552722" lon="10.870158072527582"><ele>172.83333333333331</ele><time>2026-04-04T13:27:04Z</time></trkpt><trkpt lat="44.498257270121385" lon="10.870063879698014"><ele>173.0</ele><time>2026-04-04T13:27:06Z</time></trkpt><trkpt lat="44.498210681472024" lon="10.869959884778927"><ele>173.25</ele><time>2026-04-04T13:27:08Z</time></trkpt><trkpt lat="44.498182510433104" lon="10.869863473393252"><ele>173.5</ele><time>2026-04-04T13:27:10Z</time></trkpt><trkpt lat="44.498154236584945" lon="10.869770291116081"><ele>173.75</ele><time>2026-04-04T13:27:12Z</time></trkpt><trkpt lat="44.49832132829463" lon="10.869506732053791"><ele>174.0</ele><time>2026-04-04T13:27:13Z</time></trkpt><trkpt lat="44.498262150720414" lon="10.869412243849625"><ele>174.0</ele><time>2026-04-04T13:27:16Z</time></trkpt><trkpt lat="44.49820764502531" lon="10.869325215142553"><ele>174.0</ele><time>2026-04-04T13:27:19Z</time></trkpt><trkpt lat="44.498164058847095" lon="10.869255311045597"><ele>174.0</ele><time>2026-04-04T13:27:20.999Z</time></trkpt><trkpt lat="44.4981045849182" lon="10.869159165889897"><ele>174.0</ele><time>2026-04-04T13:27:23.999Z</time></trkpt><trkpt lat="44.49804242359148" lon="10.86905867643881"><ele>174.0</ele><time>2026-04-04T13:27:26.999Z</time></trkpt><trkpt lat="44.49798259480798" lon="10.868961957707896"><ele>174.0</ele><time>2026-04-04T13:27:29.999Z</time></trkpt><trkpt lat="44.497937697177804" lon="10.868889376580649"><ele>173.85714285714286</ele><time>2026-04-04T13:27:31.999Z</time></trkpt><trkpt lat="44.49787629115498" lon="10.868790108070243"><ele>173.71428571428572</ele><time>2026-04-04T13:27:34.999Z</time></trkpt><trkpt lat="44.49783199525134" lon="10.868718499713594"><ele>173.57142857142856</ele><time>2026-04-04T13:27:36.999Z</time></trkpt><trkpt lat="44.49778558471447" lon="10.868644456894629"><ele>173.42857142857144</ele><time>2026-04-04T13:27:38.999Z</time></trkpt><trkpt lat="44.497741326707676" lon="10.86857407842831"><ele>173.2857142857143</ele><time>2026-04-04T13:27:40.999Z</time></trkpt><trkpt lat="44.49769841673794" lon="10.868505843677182"><ele>173.14285714285714</ele><time>2026-04-04T13:27:42.999Z</time></trkpt><trkpt lat="44.49765593123995" lon="10.868438486037487"><ele>173.0</ele><time>2026-04-04T13:27:44.999Z</time></trkpt><trkpt lat="44.497612513878536" lon="10.868370327494244"><ele>173.66666666666666</ele><time>2026-04-04T13:27:46.999Z</time></trkpt><trkpt lat="44.49756969641593" lon="10.868303110674415"><ele>174.33333333333331</ele><time>2026-04-04T13:27:48.999Z</time></trkpt><trkpt lat="44.4975077113043" lon="10.868205803599716"><ele>175.0</ele><time>2026-04-04T13:27:51.999Z</time></trkpt><trkpt lat="44.49744418176099" lon="10.868106531505699"><ele>175.66666666666666</ele><time>2026-04-04T13:27:54.999Z</time></trkpt><trkpt lat="44.497377614821644" lon="10.868005429782476"><ele>176.33333333333334</ele><time>2026-04-04T13:27:57.999Z</time></trkpt><trkpt lat="44.49731858058967" lon="10.86792096935658"><ele>177.0</ele><time>2026-04-04T13:28:00.999Z</time></trkpt><trkpt lat="44.49727209275332" lon="10.867856090768456"><ele>177.0</ele><time>2026-04-04T13:28:02.999Z</time></trkpt><trkpt lat="44.49720723799415" lon="10.867767951162723"><ele>177.0</ele><time>2026-04-04T13:28:05.999Z</time></trkpt><trkpt lat="44.49715442502735" lon="10.86770166294312"><ele>177.0</ele><time>2026-04-04T13:28:07.999Z</time></trkpt><trkpt lat="44.49708399299212" lon="10.867613792687198"><ele>177.0</ele><time>2026-04-04T13:28:10.999Z</time></trkpt><trkpt lat="44.497029252740454" lon="10.86755094901849"><ele>177.0</ele><time>2026-04-04T13:28:12.999Z</time></trkpt><trkpt lat="44.49696750416863" lon="10.867479519209736"><ele>177.0</ele><time>2026-04-04T13:28:15.999Z</time></trkpt><trkpt lat="44.49690309827387" lon="10.8674108187455"><ele>176.83333333333334</ele><time>2026-04-04T13:28:18.999Z</time></trkpt><trkpt lat="44.49683116744926" lon="10.867334986306188"><ele>176.66666666666666</ele><time>2026-04-04T13:28:21.999Z</time></trkpt><trkpt lat="44.496762470208964" lon="10.867264840858894"><ele>176.5</ele><time>2026-04-04T13:28:24.999Z</time></trkpt><trkpt lat="44.49669032694211" lon="10.867196559409553"><ele>176.33333333333331</ele><time>2026-04-04T13:28:27.999Z</time></trkpt><trkpt lat="44.49661618184007" lon="10.86712906267878"><ele>176.16666666666666</ele><time>2026-04-04T13:28:30.999Z</time></trkpt><trkpt lat="44.49654457904316" lon="10.867066700810705"><ele>176.0</ele><time>2026-04-04T13:28:33.999Z</time></trkpt><trkpt lat="44.49646881426554" lon="10.86700418198299"><ele>176.0</ele><time>2026-04-04T13:28:37Z</time></trkpt><trkpt lat="44.496393902291246" lon="10.866944711200995"><ele>176.0</ele><time>2026-04-04T13:28:40Z</time></trkpt><trkpt lat="44.496315121397565" lon="10.86688747369774"><ele>176.0</ele><time>2026-04-04T13:28:43Z</time></trkpt><trkpt lat="44.496237752628176" lon="10.866832347344326"><ele>176.0</ele><time>2026-04-04T13:28:46Z</time></trkpt><trkpt lat="44.496144606065684" lon="10.866767305049787"><ele>176.0</ele><time>2026-04-04T13:28:49Z</time></trkpt><trkpt lat="44.49605365235037" lon="10.866703955086772"><ele>176.33333333333331</ele><time>2026-04-04T13:28:51Z</time></trkpt><trkpt lat="44.49597610259395" lon="10.866651470823696"><ele>176.66666666666666</ele><time>2026-04-04T13:28:53Z</time></trkpt><trkpt lat="44.495893985569566" lon="10.866595895643718"><ele>177.0</ele><time>2026-04-04T13:28:55Z</time></trkpt><trkpt lat="44.49581324713313" lon="10.866541253381778"><ele>177.33333333333334</ele><time>2026-04-04T13:28:57Z</time></trkpt><trkpt lat="44.49573575080768" lon="10.866488805393614"><ele>177.66666666666669</ele><time>2026-04-04T13:28:59Z</time></trkpt><trkpt lat="44.49565479863962" lon="10.866434018494529"><ele>178.0</ele><time>2026-04-04T13:29:01Z</time></trkpt><trkpt lat="44.49557880560918" lon="10.866382587874101"><ele>178.0</ele><time>2026-04-04T13:29:03Z</time></trkpt><trkpt lat="44.49549793490291" lon="10.866327856114058"><ele>178.0</ele><time>2026-04-04T13:29:05Z</time></trkpt><trkpt lat="44.49541820019096" lon="10.866273893191977"><ele>178.0</ele><time>2026-04-04T13:29:07Z</time></trkpt><trkpt lat="44.495344054038874" lon="10.866223712450116"><ele>178.0</ele><time>2026-04-04T13:29:09Z</time></trkpt><trkpt lat="44.49526669383544" lon="10.866171356604031"><ele>178.0</ele><time>2026-04-04T13:29:11Z</time></trkpt><trkpt lat="44.49519435303984" lon="10.866122397712607"><ele>178.0</ele><time>2026-04-04T13:29:13Z</time></trkpt><trkpt lat="44.495119618565504" lon="10.866071655234888"><ele>178.16666666666669</ele><time>2026-04-04T13:29:15Z</time></trkpt><trkpt lat="44.495044264695494" lon="10.866020096007073"><ele>178.33333333333334</ele><time>2026-04-04T13:29:17Z</time></trkpt><trkpt lat="44.49497355322381" lon="10.865971713268008"><ele>178.5</ele><time>2026-04-04T13:29:19Z</time></trkpt><trkpt lat="44.49489572461955" lon="10.865918460691825"><ele>178.66666666666666</ele><time>2026-04-04T13:29:21Z</time></trkpt><trkpt lat="44.49482225643927" lon="10.865868191696192"><ele>178.83333333333331</ele><time>2026-04-04T13:29:23Z</time></trkpt><trkpt lat="44.494745686302544" lon="10.865815800252406"><ele>179.0</ele><time>2026-04-04T13:29:25Z</time></trkpt><trkpt lat="44.49466875584775" lon="10.86576316231348"><ele>179.0</ele><time>2026-04-04T13:29:26.999Z</time></trkpt><trkpt lat="44.494592578082646" lon="10.86571103928822"><ele>179.0</ele><time>2026-04-04T13:29:28.999Z</time></trkpt><trkpt lat="44.49451738534439" lon="10.865659760066439"><ele>179.0</ele><time>2026-04-04T13:29:30.999Z</time></trkpt><trkpt lat="44.4944415745565" lon="10.865608344395563"><ele>179.0</ele><time>2026-04-04T13:29:32.999Z</time></trkpt><trkpt lat="44.49436400278557" lon="10.865555734443104"><ele>179.0</ele><time>2026-04-04T13:29:34.999Z</time></trkpt><trkpt lat="44.49428689930164" lon="10.865503442066942"><ele>179.0</ele><time>2026-04-04T13:29:36.999Z</time></trkpt><trkpt lat="44.49420626421614" lon="10.865448751756022"><ele>179.33333333333331</ele><time>2026-04-04T13:29:38.999Z</time></trkpt><trkpt lat="44.494127506714854" lon="10.865395320794269"><ele>179.66666666666666</ele><time>2026-04-04T13:29:40.999Z</time></trkpt><trkpt lat="44.49404969660392" lon="10.865342532506046"><ele>180.0</ele><time>2026-04-04T13:29:42.999Z</time></trkpt><trkpt lat="44.49397027071768" lon="10.86528864807513"><ele>180.33333333333334</ele><time>2026-04-04T13:29:44.999Z</time></trkpt><trkpt lat="44.49389525961279" lon="10.865237758745742"><ele>180.66666666666669</ele><time>2026-04-04T13:29:46.999Z</time></trkpt><trkpt lat="44.49381559020752" lon="10.8651837090604"><ele>181.0</ele><time>2026-04-04T13:29:48.999Z</time></trkpt><trkpt lat="44.49373660187766" lon="10.865130121449864"><ele>181.0</ele><time>2026-04-04T13:29:50.999Z</time></trkpt><trkpt lat="44.493654034239796" lon="10.865074105569901"><ele>181.0</ele><time>2026-04-04T13:29:52.999Z</time></trkpt><trkpt lat="44.49357581980215" lon="10.865021043029515"><ele>181.0</ele><time>2026-04-04T13:29:54.999Z</time></trkpt><trkpt lat="44.493494488377486" lon="10.86496586580423"><ele>181.0</ele><time>2026-04-04T13:29:56.999Z</time></trkpt><trkpt lat="44.49341231484795" lon="10.864910117289279"><ele>181.0</ele><time>2026-04-04T13:29:58.999Z</time></trkpt><trkpt lat="44.49332907175752" lon="10.864853643168122"><ele>181.0</ele><time>2026-04-04T13:30:00.999Z</time></trkpt><trkpt lat="44.49324302971217" lon="10.864795270128672"><ele>181.0</ele><time>2026-04-04T13:30:02.999Z</time></trkpt><trkpt lat="44.493158661381514" lon="10.864738032634653"><ele>181.0</ele><time>2026-04-04T13:30:04.999Z</time></trkpt><trkpt lat="44.4930726564647" lon="10.864679684835787"><ele>181.0</ele><time>2026-04-04T13:30:06.999Z</time></trkpt><trkpt lat="44.49298299626484" lon="10.864618857111997"><ele>181.0</ele><time>2026-04-04T13:30:08.999Z</time></trkpt><trkpt lat="44.49290738246735" lon="10.864567558941037"><ele>181.33333333333334</ele><time>2026-04-04T13:30:10.999Z</time></trkpt><trkpt lat="44.492829887797754" lon="10.864514984704138"><ele>181.66666666666669</ele><time>2026-04-04T13:30:12.999Z</time></trkpt><trkpt lat="44.492747344838925" lon="10.864458985510188"><ele>182.0</ele><time>2026-04-04T13:30:14.999Z</time></trkpt><trkpt lat="44.49266807014363" lon="10.864405203658984"><ele>182.33333333333334</ele><time>2026-04-04T13:30:16.999Z</time></trkpt><trkpt lat="44.49259338913717" lon="10.864354538269824"><ele>182.66666666666666</ele><time>2026-04-04T13:30:18.999Z</time></trkpt><trkpt lat="44.49251242109685" lon="10.864299631620097"><ele>183.0</ele><time>2026-04-04T13:30:20.999Z</time></trkpt><trkpt lat="44.4924304174442" lon="10.864244225753731"><ele>183.16666666666666</ele><time>2026-04-04T13:30:22.999Z</time></trkpt><trkpt lat="44.4923547988807" lon="10.864193134059674"><ele>183.33333333333334</ele><time>2026-04-04T13:30:24.999Z</time></trkpt><trkpt lat="44.49228064225516" lon="10.864143030132652"><ele>183.5</ele><time>2026-04-04T13:30:26.999Z</time></trkpt><trkpt lat="44.49221269423407" lon="10.86409712102328"><ele>183.66666666666669</ele><time>2026-04-04T13:30:28.999Z</time></trkpt><trkpt lat="44.49214668028653" lon="10.864052520399676"><ele>183.83333333333334</ele><time>2026-04-04T13:30:30.999Z</time></trkpt><trkpt lat="44.49205922229686" lon="10.863993429419411"><ele>184.0</ele><time>2026-04-04T13:30:33.999Z</time></trkpt><trkpt lat="44.491998672881074" lon="10.863952519176989"><ele>184.33333333333334</ele><time>2026-04-04T13:30:35.999Z</time></trkpt><trkpt lat="44.49194188444998" lon="10.863914150054027"><ele>184.66666666666669</ele><time>2026-04-04T13:30:37.999Z</time></trkpt><trkpt lat="44.49186020597162" lon="10.86385896396585"><ele>185.0</ele><time>2026-04-04T13:30:41Z</time></trkpt><trkpt lat="44.49177714898797" lon="10.863802846513819"><ele>185.33333333333334</ele><time>2026-04-04T13:30:44Z</time></trkpt><trkpt lat="44.49169383004316" lon="10.86374655206325"><ele>185.66666666666666</ele><time>2026-04-04T13:30:47Z</time></trkpt><trkpt lat="44.491636132508404" lon="10.863707132749557"><ele>186.0</ele><time>2026-04-04T13:30:49Z</time></trkpt><trkpt lat="44.49155751347855" lon="10.863653042008455"><ele>186.00000000000003</ele><time>2026-04-04T13:30:52Z</time></trkpt><trkpt lat="44.49149270965173" lon="10.863608456355376"><ele>186.0</ele><time>2026-04-04T13:30:55Z</time></trkpt><trkpt lat="44.49143406841601" lon="10.863568110559235"><ele>186.0</ele><time>2026-04-04T13:30:58Z</time></trkpt><trkpt lat="44.49136153049104" lon="10.863518203854825"><ele>186.0</ele><time>2026-04-04T13:31:01Z</time></trkpt><trkpt lat="44.49128976150266" lon="10.863467630040436"><ele>186.0</ele><time>2026-04-04T13:31:04Z</time></trkpt><trkpt lat="44.49122440411784" lon="10.863421630464257"><ele>186.00000000000003</ele><time>2026-04-04T13:31:08Z</time></trkpt><trkpt lat="44.4911560579399" lon="10.863373527273167"><ele>186.0</ele><time>2026-04-04T13:31:11Z</time></trkpt><trkpt lat="44.491081738339474" lon="10.863319847354074"><ele>186.66666666666666</ele><time>2026-04-04T13:31:14Z</time></trkpt><trkpt lat="44.49100860089859" lon="10.863266067808919"><ele>187.33333333333334</ele><time>2026-04-04T13:31:17Z</time></trkpt><trkpt lat="44.49093747882298" lon="10.863211837285958"><ele>188.0</ele><time>2026-04-04T13:31:20Z</time></trkpt><trkpt lat="44.49087090508685" lon="10.863161074855794"><ele>188.66666666666669</ele><time>2026-04-04T13:31:23Z</time></trkpt><trkpt lat="44.490799259091176" lon="10.86310535567431"><ele>189.33333333333334</ele><time>2026-04-04T13:31:26Z</time></trkpt><trkpt lat="44.49073034239306" lon="10.863051185986098"><ele>190.0</ele><time>2026-04-04T13:31:29Z</time></trkpt><trkpt lat="44.490653249427304" lon="10.862988980364008"><ele>190.0</ele><time>2026-04-04T13:31:32Z</time></trkpt><trkpt lat="44.49057414485216" lon="10.862924303652296"><ele>190.0</ele><time>2026-04-04T13:31:34.999Z</time></trkpt><trkpt lat="44.49049470884813" lon="10.862859338768882"><ele>190.0</ele><time>2026-04-04T13:31:37.999Z</time></trkpt><trkpt lat="44.490440002423455" lon="10.86281428836867"><ele>190.0</ele><time>2026-04-04T13:31:39.999Z</time></trkpt><trkpt lat="44.49035865721648" lon="10.862747301121338"><ele>190.0</ele><time>2026-04-04T13:31:42.999Z</time></trkpt><trkpt lat="44.4903015041332" lon="10.862700235830713"><ele>190.0</ele><time>2026-04-04T13:31:44.999Z</time></trkpt><trkpt lat="44.49024494260547" lon="10.862653657772183"><ele>189.8</ele><time>2026-04-04T13:31:46.999Z</time></trkpt><trkpt lat="44.490164856509466" lon="10.862587707365858"><ele>189.6</ele><time>2026-04-04T13:31:49.999Z</time></trkpt><trkpt lat="44.49008486130911" lon="10.862521831823102"><ele>189.39999999999998</ele><time>2026-04-04T13:31:52.999Z</time></trkpt><trkpt lat="44.490009104523516" lon="10.862459446581964"><ele>189.2</ele><time>2026-04-04T13:31:55.999Z</time></trkpt><trkpt lat="44.489935846820394" lon="10.862399119271984"><ele>189.0</ele><time>2026-04-04T13:31:58.999Z</time></trkpt><trkpt lat="44.48985416060332" lon="10.862331851211962"><ele>189.0</ele><time>2026-04-04T13:32:01.999Z</time></trkpt><trkpt lat="44.489774977184624" lon="10.862266644156856"><ele>189.0</ele><time>2026-04-04T13:32:04.999Z</time></trkpt><trkpt lat="44.48971808962268" lon="10.862219797621835"><ele>189.0</ele><time>2026-04-04T13:32:06.999Z</time></trkpt><trkpt lat="44.48963858128698" lon="10.862154322970166"><ele>189.0</ele><time>2026-04-04T13:32:09.999Z</time></trkpt><trkpt lat="44.48956713432151" lon="10.862095486850162"><ele>189.0</ele><time>2026-04-04T13:32:12.999Z</time></trkpt><trkpt lat="44.489492316974825" lon="10.862033875180856"><ele>189.0</ele><time>2026-04-04T13:32:15.999Z</time></trkpt><trkpt lat="44.48943774874072" lon="10.861988938598543"><ele>189.0</ele><time>2026-04-04T13:32:17.999Z</time></trkpt><trkpt lat="44.48935655034541" lon="10.86192207220929"><ele>189.0</ele><time>2026-04-04T13:32:20.999Z</time></trkpt><trkpt lat="44.48926971879326" lon="10.8618505669846"><ele>189.0</ele><time>2026-04-04T13:32:23.999Z</time></trkpt><trkpt lat="44.489203298223174" lon="10.861795870009637"><ele>189.0</ele><time>2026-04-04T13:32:25.999Z</time></trkpt><trkpt lat="44.48914341972836" lon="10.861746560435703"><ele>189.0</ele><time>2026-04-04T13:32:27.999Z</time></trkpt><trkpt lat="44.48908719357671" lon="10.861700258556837"><ele>189.0</ele><time>2026-04-04T13:32:29.999Z</time></trkpt><trkpt lat="44.48902884739748" lon="10.861652210853753"><ele>189.0</ele><time>2026-04-04T13:32:31.999Z</time></trkpt><trkpt lat="44.488949855092194" lon="10.86158716118616"><ele>189.0</ele><time>2026-04-04T13:32:34.999Z</time></trkpt><trkpt lat="44.488875465795466" lon="10.861525902067392"><ele>189.0</ele><time>2026-04-04T13:32:37.999Z</time></trkpt><trkpt lat="44.488803203015024" lon="10.861466394081562"><ele>189.0</ele><time>2026-04-04T13:32:40.999Z</time></trkpt><trkpt lat="44.488745170947524" lon="10.861418605004964"><ele>189.0</ele><time>2026-04-04T13:32:42.999Z</time></trkpt><trkpt lat="44.48866408697344" lon="10.861351873120585"><ele>189.0</ele><time>2026-04-04T13:32:45.999Z</time></trkpt><trkpt lat="44.48858686840035" lon="10.861288529769157"><ele>189.33333333333334</ele><time>2026-04-04T13:32:49Z</time></trkpt><trkpt lat="44.48852084921595" lon="10.861234373405237"><ele>189.66666666666666</ele><time>2026-04-04T13:32:52Z</time></trkpt><trkpt lat="44.488456726327136" lon="10.861181772601313"><ele>190.0</ele><time>2026-04-04T13:32:55Z</time></trkpt><trkpt lat="44.488400601182015" lon="10.861135732450768"><ele>190.33333333333331</ele><time>2026-04-04T13:32:58Z</time></trkpt><trkpt lat="44.48832989532651" lon="10.861077731530456"><ele>190.66666666666666</ele><time>2026-04-04T13:33:01Z</time></trkpt><trkpt lat="44.48825693306684" lon="10.861017823549453"><ele>191.0</ele><time>2026-04-04T13:33:04Z</time></trkpt><trkpt lat="44.4881967081915" lon="10.86096835075838"><ele>191.33333333333331</ele><time>2026-04-04T13:33:07Z</time></trkpt><trkpt lat="44.48812990319419" lon="10.86091347258799"><ele>191.66666666666666</ele><time>2026-04-04T13:33:17Z</time></trkpt><trkpt lat="44.48806577326332" lon="10.860860791949522"><ele>192.0</ele><time>2026-04-04T13:33:20Z</time></trkpt><trkpt lat="44.488001762926864" lon="10.860808209563002"><ele>192.33333333333331</ele><time>2026-04-04T13:33:23Z</time></trkpt><trkpt lat="44.487934233342" lon="10.860752736166265"><ele>192.66666666666666</ele><time>2026-04-04T13:33:26Z</time></trkpt><trkpt lat="44.487876227997006" lon="10.860705086658763"><ele>193.0</ele><time>2026-04-04T13:33:29Z</time></trkpt><trkpt lat="44.487803790229286" lon="10.86064558137232"><ele>192.99999999999997</ele><time>2026-04-04T13:33:32Z</time></trkpt><trkpt lat="44.487736918643314" lon="10.860590648533146"><ele>193.0</ele><time>2026-04-04T13:33:35Z</time></trkpt><trkpt lat="44.487661657664844" lon="10.860528824063044"><ele>193.0</ele><time>2026-04-04T13:33:37.999Z</time></trkpt><trkpt lat="44.48758518802728" lon="10.860466006742785"><ele>193.0</ele><time>2026-04-04T13:33:40.999Z</time></trkpt><trkpt lat="44.487513995256435" lon="10.860407524165609"><ele>192.99999999999997</ele><time>2026-04-04T13:33:43.999Z</time></trkpt><trkpt lat="44.48743689308988" lon="10.860344188873261"><ele>193.0</ele><time>2026-04-04T13:33:46.999Z</time></trkpt><trkpt lat="44.48736477946338" lon="10.860284949869397"><ele>193.0</ele><time>2026-04-04T13:33:49.999Z</time></trkpt><trkpt lat="44.48728995015764" lon="10.860223480036074"><ele>193.0</ele><time>2026-04-04T13:33:52.999Z</time></trkpt><trkpt lat="44.48721526094968" lon="10.860162125224168"><ele>193.0</ele><time>2026-04-04T13:33:55.999Z</time></trkpt><trkpt lat="44.487045838429346" lon="10.860157811933215"><ele>193.0</ele><time>2026-04-04T13:33:57.999Z</time></trkpt><trkpt lat="44.48696048642736" lon="10.860131393266068"><ele>193.0</ele><time>2026-04-04T13:34:00.999Z</time></trkpt><trkpt lat="44.48686967788463" lon="10.860098308847098"><ele>193.83333333333331</ele><time>2026-04-04T13:34:03.999Z</time></trkpt><trkpt lat="44.486802987991986" lon="10.860072947520253"><ele>194.66666666666666</ele><time>2026-04-04T13:34:05.999Z</time></trkpt><trkpt lat="44.486733176607125" lon="10.860046399154651"><ele>195.5</ele><time>2026-04-04T13:34:07.999Z</time></trkpt><trkpt lat="44.486668512534465" lon="10.860021821615408"><ele>196.33333333333331</ele><time>2026-04-04T13:34:09.999Z</time></trkpt><trkpt lat="44.486585401503596" lon="10.859989408339898"><ele>197.16666666666666</ele><time>2026-04-04T13:34:12.999Z</time></trkpt><trkpt lat="44.486501819683774" lon="10.859959727652903"><ele>198.0</ele><time>2026-04-04T13:34:15.999Z</time></trkpt><trkpt lat="44.4864289470157" lon="10.859935166975088"><ele>198.0</ele><time>2026-04-04T13:34:18.999Z</time></trkpt><trkpt lat="44.48635451065896" lon="10.85992133756555"><ele>198.0</ele><time>2026-04-04T13:34:21.999Z</time></trkpt><trkpt lat="44.486281072536585" lon="10.859908990233075"><ele>198.0</ele><time>2026-04-04T13:34:32.999Z</time></trkpt><trkpt lat="44.4862223915219" lon="10.859671087847893"><ele>198.0</ele><time>2026-04-04T13:34:40.999Z</time></trkpt><trkpt lat="44.48619934008723" lon="10.85958896236273"><ele>198.0</ele><time>2026-04-04T13:34:42.999Z</time></trkpt><trkpt lat="44.48636240728885" lon="10.859259546739041"><ele>198.33333333333334</ele><time>2026-04-04T13:34:45.999Z</time></trkpt><trkpt lat="44.48631058809669" lon="10.859168921865592"><ele>198.66666666666669</ele><time>2026-04-04T13:34:48.999Z</time></trkpt><trkpt lat="44.486252621737044" lon="10.859063492619025"><ele>199.0</ele><time>2026-04-04T13:34:51.999Z</time></trkpt><trkpt lat="44.48621121202923" lon="10.858988176836183"><ele>199.33333333333334</ele><time>2026-04-04T13:34:54Z</time></trkpt><trkpt lat="44.48617262702089" lon="10.858917998548854"><ele>199.66666666666669</ele><time>2026-04-04T13:34:56Z</time></trkpt><trkpt lat="44.48611842744491" lon="10.858819420529716"><ele>200.0</ele><time>2026-04-04T13:34:59Z</time></trkpt><trkpt lat="44.48607884919993" lon="10.858747435543533"><ele>200.00000000000003</ele><time>2026-04-04T13:35:01Z</time></trkpt><trkpt lat="44.48602519382188" lon="10.858649847201795"><ele>200.0</ele><time>2026-04-04T13:35:04Z</time></trkpt><trkpt lat="44.485981736977294" lon="10.858570808028162"><ele>200.0</ele><time>2026-04-04T13:35:06Z</time></trkpt><trkpt lat="44.485926028780355" lon="10.858469486034878"><ele>200.0</ele><time>2026-04-04T13:35:09Z</time></trkpt><trkpt lat="44.48587240783528" lon="10.858371960401145"><ele>200.00000000000003</ele><time>2026-04-04T13:35:12Z</time></trkpt><trkpt lat="44.48581755486286" lon="10.858272193892226"><ele>200.0</ele><time>2026-04-04T13:35:15Z</time></trkpt><trkpt lat="44.4857633398855" lon="10.858173587891747"><ele>200.66666666666669</ele><time>2026-04-04T13:35:18Z</time></trkpt><trkpt lat="44.48570351117548" lon="10.858064771447408"><ele>201.33333333333334</ele><time>2026-04-04T13:35:21Z</time></trkpt><trkpt lat="44.48566026216912" lon="10.857986110310714"><ele>202.0</ele><time>2026-04-04T13:35:23Z</time></trkpt><trkpt lat="44.48561961529174" lon="10.857912181761506"><ele>202.66666666666669</ele><time>2026-04-04T13:35:25Z</time></trkpt><trkpt lat="44.48557316749528" lon="10.857827702492779"><ele>203.33333333333334</ele><time>2026-04-04T13:35:27Z</time></trkpt><trkpt lat="44.48553225074483" lon="10.857752962083202"><ele>204.0</ele><time>2026-04-04T13:35:29Z</time></trkpt><trkpt lat="44.485488662278826" lon="10.857673242703447"><ele>203.85714285714286</ele><time>2026-04-04T13:35:31Z</time></trkpt><trkpt lat="44.48544627956392" lon="10.857595728489182"><ele>203.71428571428572</ele><time>2026-04-04T13:35:33Z</time></trkpt><trkpt lat="44.485406510986174" lon="10.857522995384132"><ele>203.57142857142856</ele><time>2026-04-04T13:35:35Z</time></trkpt><trkpt lat="44.48536587891471" lon="10.857448683025117"><ele>203.42857142857144</ele><time>2026-04-04T13:35:37Z</time></trkpt><trkpt lat="44.48532445568449" lon="10.857372378359527"><ele>203.28571428571428</ele><time>2026-04-04T13:35:39Z</time></trkpt><trkpt lat="44.4852840133762" lon="10.857302446096753"><ele>203.14285714285714</ele><time>2026-04-04T13:35:40.999Z</time></trkpt><trkpt lat="44.485241505589684" lon="10.857229531476415"><ele>203.0</ele><time>2026-04-04T13:35:42.999Z</time></trkpt><trkpt lat="44.48519919353316" lon="10.857156825726715"><ele>203.00000000000003</ele><time>2026-04-04T13:35:44.999Z</time></trkpt><trkpt lat="44.48513413261389" lon="10.857056632384335"><ele>203.0</ele><time>2026-04-04T13:35:47.999Z</time></trkpt><trkpt lat="44.48507701760476" lon="10.856977932775505"><ele>203.0</ele><time>2026-04-04T13:35:50.999Z</time></trkpt><trkpt lat="44.48501104520296" lon="10.856893464556485"><ele>203.0</ele><time>2026-04-04T13:35:53.999Z</time></trkpt><trkpt lat="44.48496155202174" lon="10.856836286891106"><ele>203.00000000000003</ele><time>2026-04-04T13:35:55.999Z</time></trkpt><trkpt lat="44.484895056716695" lon="10.85676402232871"><ele>203.0</ele><time>2026-04-04T13:35:58.999Z</time></trkpt><trkpt lat="44.4848358325199" lon="10.856703968700565"><ele>203.00000000000003</ele><time>2026-04-04T13:36:03.999Z</time></trkpt><trkpt lat="44.48478083387346" lon="10.856651352178774"><ele>203.0</ele><time>2026-04-04T13:36:08.999Z</time></trkpt><trkpt lat="44.48475094590091" lon="10.856836477468077"><ele>203.0</ele><time>2026-04-04T13:36:16.999Z</time></trkpt><trkpt lat="44.484815418427885" lon="10.85688415594868"><ele>203.0</ele><time>2026-04-04T13:36:19.999Z</time></trkpt><trkpt lat="44.484872626837316" lon="10.856959598704245"><ele>203.00000000000003</ele><time>2026-04-04T13:36:22.999Z</time></trkpt><trkpt lat="44.48491966240305" lon="10.857026420249875"><ele>203.0</ele><time>2026-04-04T13:36:24.999Z</time></trkpt><trkpt lat="44.48496360892978" lon="10.857095253569927"><ele>203.00000000000003</ele><time>2026-04-04T13:36:26.999Z</time></trkpt><trkpt lat="44.48501158801131" lon="10.857163353107298"><ele>203.0</ele><time>2026-04-04T13:36:28.999Z</time></trkpt><trkpt lat="44.48503357774273" lon="10.857264796349087"><ele>203.0</ele><time>2026-04-04T13:36:30.999Z</time></trkpt><trkpt lat="44.48506311970347" lon="10.857372279354482"><ele>203.0</ele><time>2026-04-04T13:36:32.999Z</time></trkpt><trkpt lat="44.48510337190974" lon="10.857511019385182"><ele>203.00000000000003</ele><time>2026-04-04T13:36:34.999Z</time></trkpt><trkpt lat="44.485134300298824" lon="10.85765391272658"><ele>203.0</ele><time>2026-04-04T13:36:36.999Z</time></trkpt><trkpt lat="44.48517710452289" lon="10.85781058274716"><ele>202.60000000000002</ele><time>2026-04-04T13:36:38.999Z</time></trkpt><trkpt lat="44.48523988113067" lon="10.857963820762764"><ele>202.20000000000002</ele><time>2026-04-04T13:36:40.999Z</time></trkpt><trkpt lat="44.48527710408747" lon="10.85806002407961"><ele>201.8</ele><time>2026-04-04T13:36:41.999Z</time></trkpt><trkpt lat="44.48530872150032" lon="10.85814452981272"><ele>201.4</ele><time>2026-04-04T13:36:42.999Z</time></trkpt><trkpt lat="44.48537523902775" lon="10.858271262721992"><ele>201.0</ele><time>2026-04-04T13:36:44.999Z</time></trkpt><trkpt lat="44.48541463607906" lon="10.858344510014105"><ele>200.8</ele><time>2026-04-04T13:36:45.999Z</time></trkpt><trkpt lat="44.48548202461309" lon="10.858447084900286"><ele>200.60000000000002</ele><time>2026-04-04T13:36:47.999Z</time></trkpt><trkpt lat="44.485507788004675" lon="10.858578625772115"><ele>200.4</ele><time>2026-04-04T13:36:49.999Z</time></trkpt><trkpt lat="44.48555113578465" lon="10.858695659637165"><ele>200.2</ele><time>2026-04-04T13:36:51.999Z</time></trkpt><trkpt lat="44.48559513993007" lon="10.858791303458295"><ele>200.0</ele><time>2026-04-04T13:36:53.999Z</time></trkpt><trkpt lat="44.485654048494425" lon="10.858890263130247"><ele>200.0</ele><time>2026-04-04T13:36:55.999Z</time></trkpt><trkpt lat="44.485702775973465" lon="10.859004902032652"><ele>200.0</ele><time>2026-04-04T13:36:57.998Z</time></trkpt><trkpt lat="44.48573842007456" lon="10.859137376048746"><ele>200.0</ele><time>2026-04-04T13:37:00Z</time></trkpt><trkpt lat="44.48577143253623" lon="10.859269962891839"><ele>200.0</ele><time>2026-04-04T13:37:02Z</time></trkpt><trkpt lat="44.485814965802824" lon="10.859409559865528"><ele>200.0</ele><time>2026-04-04T13:37:04Z</time></trkpt><trkpt lat="44.48587274867028" lon="10.859509356888116"><ele>199.8</ele><time>2026-04-04T13:37:06Z</time></trkpt><trkpt lat="44.48594731144895" lon="10.859616270427288"><ele>199.6</ele><time>2026-04-04T13:37:08Z</time></trkpt><trkpt lat="44.48600938148382" lon="10.859704300746897"><ele>199.39999999999998</ele><time>2026-04-04T13:37:10Z</time></trkpt><trkpt lat="44.486080595672355" lon="10.85980873841137"><ele>199.2</ele><time>2026-04-04T13:37:12Z</time></trkpt><trkpt lat="44.48615405381867" lon="10.859897595123412"><ele>199.0</ele><time>2026-04-04T13:37:14Z</time></trkpt><trkpt lat="44.48620919662967" lon="10.859963956491084"><ele>198.83333333333331</ele><time>2026-04-04T13:37:16Z</time></trkpt><trkpt lat="44.486278417795766" lon="10.859984288037085"><ele>198.66666666666666</ele><time>2026-04-04T13:37:19Z</time></trkpt><trkpt lat="44.48632862435443" lon="10.860050285198446"><ele>198.5</ele><time>2026-04-04T13:37:23Z</time></trkpt><trkpt lat="44.486388105839524" lon="10.860165123139081"><ele>198.33333333333331</ele><time>2026-04-04T13:37:25Z</time></trkpt><trkpt lat="44.48646280376359" lon="10.860256155032268"><ele>198.16666666666666</ele><time>2026-04-04T13:37:27Z</time></trkpt><trkpt lat="44.486551438107334" lon="10.860328878259033"><ele>198.0</ele><time>2026-04-04T13:37:29Z</time></trkpt><trkpt lat="44.48664301249248" lon="10.860405574091022"><ele>197.4</ele><time>2026-04-04T13:37:31Z</time></trkpt><trkpt lat="44.48673777674321" lon="10.860468945966655"><ele>196.8</ele><time>2026-04-04T13:37:33Z</time></trkpt><trkpt lat="44.4868415908807" lon="10.860521386792337"><ele>196.2</ele><time>2026-04-04T13:37:35Z</time></trkpt><trkpt lat="44.486938662187484" lon="10.860548131268432"><ele>195.6</ele><time>2026-04-04T13:37:37Z</time></trkpt><trkpt lat="44.48704162414329" lon="10.860574581590296"><ele>195.0</ele><time>2026-04-04T13:37:39Z</time></trkpt><trkpt lat="44.48714144064434" lon="10.860603296964065"><ele>194.5</ele><time>2026-04-04T13:37:41Z</time></trkpt><trkpt lat="44.48723962458961" lon="10.860648956324892"><ele>194.0</ele><time>2026-04-04T13:37:43Z</time></trkpt><trkpt lat="44.487337376507305" lon="10.860705835266039"><ele>193.5</ele><time>2026-04-04T13:37:45Z</time></trkpt><trkpt lat="44.48742979456545" lon="10.860758340994408"><ele>193.0</ele><time>2026-04-04T13:37:47Z</time></trkpt><trkpt lat="44.48759581209748" lon="10.86065009877734"><ele>193.0</ele><time>2026-04-04T13:37:48.999Z</time></trkpt><trkpt lat="44.487688011247094" lon="10.860725837380341"><ele>193.0</ele><time>2026-04-04T13:37:50.999Z</time></trkpt><trkpt lat="44.48777296392312" lon="10.86079562329611"><ele>193.0</ele><time>2026-04-04T13:37:52.999Z</time></trkpt><trkpt lat="44.487861301130245" lon="10.860868189392312"><ele>193.0</ele><time>2026-04-04T13:37:54.999Z</time></trkpt><trkpt lat="44.48795162955171" lon="10.86094239132289"><ele>193.0</ele><time>2026-04-04T13:37:56.999Z</time></trkpt><trkpt lat="44.48804433731443" lon="10.86101854773814"><ele>192.60000000000002</ele><time>2026-04-04T13:37:58.999Z</time></trkpt><trkpt lat="44.48813917346183" lon="10.861096452637025"><ele>192.20000000000002</ele><time>2026-04-04T13:38:00.999Z</time></trkpt><trkpt lat="44.4882315230046" lon="10.86117231473525"><ele>191.8</ele><time>2026-04-04T13:38:02.999Z</time></trkpt><trkpt lat="44.488323175759554" lon="10.861247520782767"><ele>191.4</ele><time>2026-04-04T13:38:04.999Z</time></trkpt><trkpt lat="44.488402631155786" lon="10.861312699090364"><ele>191.0</ele><time>2026-04-04T13:38:06.999Z</time></trkpt><trkpt lat="44.48847879057133" lon="10.861375173629344"><ele>191.0</ele><time>2026-04-04T13:38:08.999Z</time></trkpt><trkpt lat="44.48856221054907" lon="10.861443604029414"><ele>191.0</ele><time>2026-04-04T13:38:10.999Z</time></trkpt><trkpt lat="44.48864843844676" lon="10.861514760164072"><ele>191.0</ele><time>2026-04-04T13:38:12.999Z</time></trkpt><trkpt lat="44.48873824441359" lon="10.861580059536948"><ele>191.0</ele><time>2026-04-04T13:38:14.999Z</time></trkpt><trkpt lat="44.488816768510524" lon="10.861654598619555"><ele>191.0</ele><time>2026-04-04T13:38:16.999Z</time></trkpt><trkpt lat="44.48890251127676" lon="10.861732478815274"><ele>190.25</ele><time>2026-04-04T13:38:18.999Z</time></trkpt><trkpt lat="44.48899643299125" lon="10.861813633920837"><ele>189.5</ele><time>2026-04-04T13:38:20.999Z</time></trkpt><trkpt lat="44.48909497917373" lon="10.861901873766483"><ele>188.75</ele><time>2026-04-04T13:38:22.999Z</time></trkpt><trkpt lat="44.489200286836976" lon="10.861975750233814"><ele>188.0</ele><time>2026-04-04T13:38:24.999Z</time></trkpt><trkpt lat="44.48930244957627" lon="10.862037377555529"><ele>188.0</ele><time>2026-04-04T13:38:26.999Z</time></trkpt><trkpt lat="44.48937305639399" lon="10.862112455760487"><ele>188.0</ele><time>2026-04-04T13:38:28.999Z</time></trkpt><trkpt lat="44.48942432188896" lon="10.86217300469532"><ele>188.0</ele><time>2026-04-04T13:38:30.999Z</time></trkpt><trkpt lat="44.489500621102174" lon="10.862216189710704"><ele>188.0</ele><time>2026-04-04T13:38:32.999Z</time></trkpt><trkpt lat="44.48957836003894" lon="10.862280207243556"><ele>188.0</ele><time>2026-04-04T13:38:34.999Z</time></trkpt><trkpt lat="44.48964939290879" lon="10.862338702402733"><ele>188.0</ele><time>2026-04-04T13:38:36.999Z</time></trkpt><trkpt lat="44.489730143692036" lon="10.862405200248654"><ele>188.2</ele><time>2026-04-04T13:38:38.999Z</time></trkpt><trkpt lat="44.48980471904136" lon="10.862466612613446"><ele>188.4</ele><time>2026-04-04T13:38:40.999Z</time></trkpt><trkpt lat="44.489888277779464" lon="10.862535422653231"><ele>188.6</ele><time>2026-04-04T13:38:42.999Z</time></trkpt><trkpt lat="44.48997406551251" lon="10.86260606834215"><ele>188.79999999999998</ele><time>2026-04-04T13:38:44.999Z</time></trkpt><trkpt lat="44.49004928445662" lon="10.862668010599537"><ele>189.0</ele><time>2026-04-04T13:38:46.999Z</time></trkpt><trkpt lat="44.49012605818861" lon="10.862731233315698"><ele>189.2</ele><time>2026-04-04T13:38:48.999Z</time></trkpt><trkpt lat="44.490209421377116" lon="10.86279988243513"><ele>189.39999999999998</ele><time>2026-04-04T13:38:50.999Z</time></trkpt><trkpt lat="44.490285680564185" lon="10.862862681392915"><ele>189.6</ele><time>2026-04-04T13:38:52.999Z</time></trkpt><trkpt lat="44.490365457066844" lon="10.862928376875896"><ele>189.8</ele><time>2026-04-04T13:38:54.999Z</time></trkpt><trkpt lat="44.49044424301743" lon="10.862993248335085"><ele>190.0</ele><time>2026-04-04T13:38:56.999Z</time></trkpt><trkpt lat="44.490521595531185" lon="10.863056492439881"><ele>190.0</ele><time>2026-04-04T13:38:58.999Z</time></trkpt><trkpt lat="44.490603602735014" lon="10.86312354235892"><ele>190.0</ele><time>2026-04-04T13:39:00.999Z</time></trkpt><trkpt lat="44.49067276493641" lon="10.863179380971875"><ele>190.0</ele><time>2026-04-04T13:39:02.999Z</time></trkpt><trkpt lat="44.490746430529654" lon="10.86323728338181"><ele>190.0</ele><time>2026-04-04T13:39:05Z</time></trkpt><trkpt lat="44.49082291808267" lon="10.863296703035731"><ele>190.0</ele><time>2026-04-04T13:39:07Z</time></trkpt><trkpt lat="44.49090126900958" lon="10.8633564455899"><ele>190.0</ele><time>2026-04-04T13:39:09Z</time></trkpt><trkpt lat="44.49097397339996" lon="10.86341176396909"><ele>189.8</ele><time>2026-04-04T13:39:11Z</time></trkpt><trkpt lat="44.49105176677015" lon="10.863468521077406"><ele>189.6</ele><time>2026-04-04T13:39:13Z</time></trkpt><trkpt lat="44.49112969722754" lon="10.863524241813007"><ele>189.39999999999998</ele><time>2026-04-04T13:39:15Z</time></trkpt><trkpt lat="44.49121535557283" lon="10.86359804260684"><ele>189.2</ele><time>2026-04-04T13:39:17Z</time></trkpt><trkpt lat="44.491314008009134" lon="10.863663094596754"><ele>189.0</ele><time>2026-04-04T13:39:19Z</time></trkpt><trkpt lat="44.49138579406592" lon="10.863702666440963"><ele>188.5</ele><time>2026-04-04T13:39:20Z</time></trkpt><trkpt lat="44.49144061261416" lon="10.86374841799816"><ele>188.0</ele><time>2026-04-04T13:39:21Z</time></trkpt><trkpt lat="44.49150023588341" lon="10.863798446325692"><ele>187.5</ele><time>2026-04-04T13:39:22Z</time></trkpt><trkpt lat="44.49161748173819" lon="10.863878039109416"><ele>187.0</ele><time>2026-04-04T13:39:24Z</time></trkpt><trkpt lat="44.49167835824678" lon="10.863921838103812"><ele>186.5</ele><time>2026-04-04T13:39:25Z</time></trkpt><trkpt lat="44.491741348928976" lon="10.8639604092668"><ele>186.0</ele><time>2026-04-04T13:39:26Z</time></trkpt><trkpt lat="44.491798205237934" lon="10.863998411532053"><ele>186.0</ele><time>2026-04-04T13:39:27Z</time></trkpt><trkpt lat="44.49190403707341" lon="10.864070757017823"><ele>186.0</ele><time>2026-04-04T13:39:29Z</time></trkpt><trkpt lat="44.49202045655461" lon="10.864149515332306"><ele>186.0</ele><time>2026-04-04T13:39:31Z</time></trkpt><trkpt lat="44.492082092365266" lon="10.86418598110563"><ele>186.0</ele><time>2026-04-04T13:39:32Z</time></trkpt><trkpt lat="44.49214653604633" lon="10.86421293184907"><ele>186.0</ele><time>2026-04-04T13:39:33Z</time></trkpt><trkpt lat="44.492209340203786" lon="10.864259328562259"><ele>185.5</ele><time>2026-04-04T13:39:34Z</time></trkpt><trkpt lat="44.49232590359368" lon="10.864343386780805"><ele>185.0</ele><time>2026-04-04T13:39:36Z</time></trkpt><trkpt lat="44.49238302707464" lon="10.864390006259004"><ele>184.5</ele><time>2026-04-04T13:39:37Z</time></trkpt><trkpt lat="44.49243996388596" lon="10.86443239807117"><ele>184.0</ele><time>2026-04-04T13:39:38Z</time></trkpt><trkpt lat="44.492549803460356" lon="10.864504572327062"><ele>183.5</ele><time>2026-04-04T13:39:40Z</time></trkpt><trkpt lat="44.49260791412815" lon="10.864539045921138"><ele>183.0</ele><time>2026-04-04T13:39:41Z</time></trkpt><trkpt lat="44.492711654609145" lon="10.864609464544081"><ele>183.0</ele><time>2026-04-04T13:39:43Z</time></trkpt><trkpt lat="44.49281234584522" lon="10.864671443767776"><ele>183.0</ele><time>2026-04-04T13:39:45Z</time></trkpt><trkpt lat="44.49290889248294" lon="10.864748937926475"><ele>183.0</ele><time>2026-04-04T13:39:47Z</time></trkpt><trkpt lat="44.49300975160008" lon="10.864818508274315"><ele>183.0</ele><time>2026-04-04T13:39:49Z</time></trkpt><trkpt lat="44.493108589876236" lon="10.864875693117664"><ele>183.0</ele><time>2026-04-04T13:39:51Z</time></trkpt><trkpt lat="44.49320343202755" lon="10.86494603435459"><ele>182.8</ele><time>2026-04-04T13:39:53Z</time></trkpt><trkpt lat="44.49329487312443" lon="10.865002693877814"><ele>182.60000000000002</ele><time>2026-04-04T13:39:55Z</time></trkpt><trkpt lat="44.493386689153446" lon="10.865069260963004"><ele>182.39999999999998</ele><time>2026-04-04T13:39:56.999Z</time></trkpt><trkpt lat="44.49347187782202" lon="10.865118656550377"><ele>182.2</ele><time>2026-04-04T13:39:58.999Z</time></trkpt><trkpt lat="44.49355740636993" lon="10.865183607934204"><ele>182.0</ele><time>2026-04-04T13:40:00.999Z</time></trkpt><trkpt lat="44.493639376598075" lon="10.865229233538912"><ele>182.0</ele><time>2026-04-04T13:40:02.999Z</time></trkpt><trkpt lat="44.49371429938793" lon="10.865294580878894"><ele>182.0</ele><time>2026-04-04T13:40:04.999Z</time></trkpt><trkpt lat="44.49379093585291" lon="10.865351497579718"><ele>182.0</ele><time>2026-04-04T13:40:06.999Z</time></trkpt><trkpt lat="44.493864866315306" lon="10.865403967805056"><ele>182.0</ele><time>2026-04-04T13:40:08.999Z</time></trkpt><trkpt lat="44.49394447003609" lon="10.865452926131859"><ele>182.0</ele><time>2026-04-04T13:40:10.999Z</time></trkpt><trkpt lat="44.49401867969424" lon="10.865502840999607"><ele>182.0</ele><time>2026-04-04T13:40:12.999Z</time></trkpt><trkpt lat="44.49409993005213" lon="10.865550313113392"><ele>181.83333333333331</ele><time>2026-04-04T13:40:14.999Z</time></trkpt><trkpt lat="44.494165368990544" lon="10.865606453673307"><ele>181.66666666666666</ele><time>2026-04-04T13:40:16.999Z</time></trkpt><trkpt lat="44.49423964981402" lon="10.865653495818172"><ele>181.5</ele><time>2026-04-04T13:40:18.999Z</time></trkpt><trkpt lat="44.49431350789042" lon="10.86568953869794"><ele>181.33333333333334</ele><time>2026-04-04T13:40:20.999Z</time></trkpt><trkpt lat="44.49438012632561" lon="10.865734720055132"><ele>181.16666666666669</ele><time>2026-04-04T13:40:22.999Z</time></trkpt><trkpt lat="44.4944512270481" lon="10.865782941231895"><ele>181.0</ele><time>2026-04-04T13:40:24.999Z</time></trkpt><trkpt lat="44.4945277677475" lon="10.865835030031366"><ele>180.8</ele><time>2026-04-04T13:40:26.999Z</time></trkpt><trkpt lat="44.49460557403755" lon="10.865888267304467"><ele>180.60000000000002</ele><time>2026-04-04T13:40:28.999Z</time></trkpt><trkpt lat="44.49469200918928" lon="10.865947408680885"><ele>180.4</ele><time>2026-04-04T13:40:30.999Z</time></trkpt><trkpt lat="44.494776586907" lon="10.866005279156338"><ele>180.2</ele><time>2026-04-04T13:40:32.999Z</time></trkpt><trkpt lat="44.49486070549272" lon="10.866062835429577"><ele>180.0</ele><time>2026-04-04T13:40:34.999Z</time></trkpt><trkpt lat="44.49494434748353" lon="10.86612006569546"><ele>180.0</ele><time>2026-04-04T13:40:36.999Z</time></trkpt><trkpt lat="44.49503012766491" lon="10.866178758987939"><ele>180.0</ele><time>2026-04-04T13:40:38.999Z</time></trkpt><trkpt lat="44.49511375573472" lon="10.866235833908936"><ele>180.0</ele><time>2026-04-04T13:40:40.999Z</time></trkpt><trkpt lat="44.49520607155697" lon="10.86629831149929"><ele>180.0</ele><time>2026-04-04T13:40:42.999Z</time></trkpt><trkpt lat="44.49529646498963" lon="10.866359488088527"><ele>180.0</ele><time>2026-04-04T13:40:44.999Z</time></trkpt><trkpt lat="44.49538746703894" lon="10.86642107655579"><ele>179.6</ele><time>2026-04-04T13:40:46.999Z</time></trkpt><trkpt lat="44.49547644349136" lon="10.866481294101577"><ele>179.2</ele><time>2026-04-04T13:40:48.999Z</time></trkpt><trkpt lat="44.49556062196339" lon="10.866538264520846"><ele>178.8</ele><time>2026-04-04T13:40:50.999Z</time></trkpt><trkpt lat="44.49565109583953" lon="10.866599495453057"><ele>178.4</ele><time>2026-04-04T13:40:52.999Z</time></trkpt><trkpt lat="44.49574499112247" lon="10.866663042027305"><ele>178.0</ele><time>2026-04-04T13:40:54.999Z</time></trkpt><trkpt lat="44.49583838337725" lon="10.86672624806639"><ele>177.8</ele><time>2026-04-04T13:40:56.999Z</time></trkpt><trkpt lat="44.49592790613993" lon="10.866786835399163"><ele>177.60000000000002</ele><time>2026-04-04T13:40:58.999Z</time></trkpt><trkpt lat="44.49601852176728" lon="10.866848273056288"><ele>177.39999999999998</ele><time>2026-04-04T13:41:00.999Z</time></trkpt><trkpt lat="44.49610705772429" lon="10.866910096146336"><ele>177.2</ele><time>2026-04-04T13:41:02.999Z</time></trkpt><trkpt lat="44.49619048963396" lon="10.866968354855002"><ele>177.0</ele><time>2026-04-04T13:41:04.999Z</time></trkpt><trkpt lat="44.496258158614566" lon="10.867016403526478"><ele>176.8</ele><time>2026-04-04T13:41:06.999Z</time></trkpt><trkpt lat="44.49632862911324" lon="10.867068485413823"><ele>176.6</ele><time>2026-04-04T13:41:08.999Z</time></trkpt><trkpt lat="44.49641140391594" lon="10.867129671450275"><ele>176.4</ele><time>2026-04-04T13:41:11Z</time></trkpt><trkpt lat="44.49649237556283" lon="10.867199392681052"><ele>176.20000000000002</ele><time>2026-04-04T13:41:13Z</time></trkpt><trkpt lat="44.49657361276824" lon="10.867269652215038"><ele>176.0</ele><time>2026-04-04T13:41:15Z</time></trkpt><trkpt lat="44.49666057687267" lon="10.86735050250659"><ele>176.0</ele><time>2026-04-04T13:41:17Z</time></trkpt><trkpt lat="44.49675152633031" lon="10.867440927268937"><ele>176.0</ele><time>2026-04-04T13:41:19Z</time></trkpt><trkpt lat="44.496843893898685" lon="10.867537935508349"><ele>176.0</ele><time>2026-04-04T13:41:21Z</time></trkpt><trkpt lat="44.49693474774985" lon="10.867635596438513"><ele>176.0</ele><time>2026-04-04T13:41:23Z</time></trkpt><trkpt lat="44.49703150514831" lon="10.86775100292311"><ele>176.20000000000002</ele><time>2026-04-04T13:41:25Z</time></trkpt><trkpt lat="44.497080852311406" lon="10.867812567752825"><ele>176.4</ele><time>2026-04-04T13:41:26Z</time></trkpt><trkpt lat="44.49713056795284" lon="10.867874671495674"><ele>176.6</ele><time>2026-04-04T13:41:27Z</time></trkpt><trkpt lat="44.49721432679436" lon="10.867988502361811"><ele>176.8</ele><time>2026-04-04T13:41:29Z</time></trkpt><trkpt lat="44.497295926232795" lon="10.868104954053747"><ele>177.0</ele><time>2026-04-04T13:41:31Z</time></trkpt><trkpt lat="44.49737627701993" lon="10.868226931740898"><ele>177.0</ele><time>2026-04-04T13:41:33Z</time></trkpt><trkpt lat="44.49741848696028" lon="10.86829314725498"><ele>177.0</ele><time>2026-04-04T13:41:34Z</time></trkpt><trkpt lat="44.49749067102532" lon="10.868406465167487"><ele>177.0</ele><time>2026-04-04T13:41:36Z</time></trkpt><trkpt lat="44.49756451989111" lon="10.868522396572319"><ele>177.0</ele><time>2026-04-04T13:41:38Z</time></trkpt><trkpt lat="44.497637434392736" lon="10.868637931392698"><ele>177.0</ele><time>2026-04-04T13:41:40Z</time></trkpt><trkpt lat="44.497707472203494" lon="10.868749304568038"><ele>177.0</ele><time>2026-04-04T13:41:42Z</time></trkpt><trkpt lat="44.497773252053086" lon="10.868854751208435"><ele>177.0</ele><time>2026-04-04T13:41:44Z</time></trkpt><trkpt lat="44.49783741077489" lon="10.868958469700784"><ele>177.0</ele><time>2026-04-04T13:41:46Z</time></trkpt><trkpt lat="44.49789849262419" lon="10.86905721413229"><ele>177.0</ele><time>2026-04-04T13:41:48Z</time></trkpt><trkpt lat="44.497960281935605" lon="10.869157102224262"><ele>177.0</ele><time>2026-04-04T13:41:50Z</time></trkpt><trkpt lat="44.498016026316776" lon="10.86924721814865"><ele>176.5</ele><time>2026-04-04T13:41:52Z</time></trkpt><trkpt lat="44.49807514901599" lon="10.869342795405869"><ele>176.0</ele><time>2026-04-04T13:41:54Z</time></trkpt><trkpt lat="44.49813203696976" lon="10.869434082817133"><ele>175.5</ele><time>2026-04-04T13:41:56Z</time></trkpt><trkpt lat="44.498193738524755" lon="10.86953260105226"><ele>175.0</ele><time>2026-04-04T13:41:58Z</time></trkpt><trkpt lat="44.49825168544203" lon="10.86962512439985"><ele>174.5</ele><time>2026-04-04T13:42:00Z</time></trkpt><trkpt lat="44.49830995153548" lon="10.86971815725583"><ele>174.0</ele><time>2026-04-04T13:42:02Z</time></trkpt><trkpt lat="44.49836483936325" lon="10.86980579604897"><ele>174.0</ele><time>2026-04-04T13:42:04Z</time></trkpt><trkpt lat="44.49841578406323" lon="10.869887138965067"><ele>174.0</ele><time>2026-04-04T13:42:06Z</time></trkpt><trkpt lat="44.49846643056294" lon="10.86996828832464"><ele>174.0</ele><time>2026-04-04T13:42:07.999Z</time></trkpt><trkpt lat="44.49852799910405" lon="10.870067320885568"><ele>174.0</ele><time>2026-04-04T13:42:10.999Z</time></trkpt><trkpt lat="44.498570635799915" lon="10.870135901738081"><ele>174.0</ele><time>2026-04-04T13:42:12.999Z</time></trkpt><trkpt lat="44.49863619723598" lon="10.870241356791288"><ele>174.0</ele><time>2026-04-04T13:42:15.999Z</time></trkpt><trkpt lat="44.49868483425624" lon="10.870319161593754"><ele>173.66666666666666</ele><time>2026-04-04T13:42:17.999Z</time></trkpt><trkpt lat="44.498736109286234" lon="10.870400854688304"><ele>173.33333333333331</ele><time>2026-04-04T13:42:19.999Z</time></trkpt><trkpt lat="44.49856357973553" lon="10.870748143247852"><ele>173.0</ele><time>2026-04-04T13:42:21.999Z</time></trkpt><trkpt lat="44.4986008023843" lon="10.870848754346827"><ele>172.60000000000002</ele><time>2026-04-04T13:42:23.999Z</time></trkpt><trkpt lat="44.49880300798486" lon="10.870922848953668"><ele>172.20000000000002</ele><time>2026-04-04T13:42:26.999Z</time></trkpt><trkpt lat="44.49883835183596" lon="10.871016423734675"><ele>171.8</ele><time>2026-04-04T13:42:28.999Z</time></trkpt><trkpt lat="44.498875153393904" lon="10.87109184337915"><ele>171.4</ele><time>2026-04-04T13:42:30.999Z</time></trkpt><trkpt lat="44.498915697307126" lon="10.871169285176757"><ele>171.0</ele><time>2026-04-04T13:42:32.999Z</time></trkpt><trkpt lat="44.49896073781043" lon="10.87125657187896"><ele>171.0</ele><time>2026-04-04T13:42:34.999Z</time></trkpt><trkpt lat="44.499007916223924" lon="10.87135041655762"><ele>171.0</ele><time>2026-04-04T13:42:36.999Z</time></trkpt><trkpt lat="44.49904867300277" lon="10.871434284686405"><ele>171.0</ele><time>2026-04-04T13:42:38.999Z</time></trkpt><trkpt lat="44.49910943394808" lon="10.871538165313035"><ele>171.0</ele><time>2026-04-04T13:42:41.999Z</time></trkpt><trkpt lat="44.499156227467815" lon="10.871619467440334"><ele>171.0</ele><time>2026-04-04T13:42:43.999Z</time></trkpt><trkpt lat="44.499055981305276" lon="10.872357542699708"><ele>170.83333333333334</ele><time>2026-04-04T13:42:51.999Z</time></trkpt><trkpt lat="44.49911785686236" lon="10.872481005817301"><ele>170.66666666666666</ele><time>2026-04-04T13:42:53.999Z</time></trkpt><trkpt lat="44.4991615592922" lon="10.872604213606206"><ele>170.5</ele><time>2026-04-04T13:42:55.999Z</time></trkpt><trkpt lat="44.499206515159806" lon="10.872713115763956"><ele>170.33333333333331</ele><time>2026-04-04T13:42:57.999Z</time></trkpt><trkpt lat="44.49923532387775" lon="10.872820780864656"><ele>170.16666666666666</ele><time>2026-04-04T13:42:59.999Z</time></trkpt><trkpt lat="44.49927431190037" lon="10.87290433484197"><ele>170.0</ele><time>2026-04-04T13:43:01.999Z</time></trkpt><trkpt lat="44.49931340753162" lon="10.872983292512178"><ele>170.0</ele><time>2026-04-04T13:43:03.999Z</time></trkpt><trkpt lat="44.49936540299441" lon="10.873048499163554"><ele>170.0</ele><time>2026-04-04T13:43:05.999Z</time></trkpt><trkpt lat="44.499406312900064" lon="10.873122354208647"><ele>170.0</ele><time>2026-04-04T13:43:07.999Z</time></trkpt><trkpt lat="44.4994532358789" lon="10.873206826361464"><ele>170.0</ele><time>2026-04-04T13:43:09.999Z</time></trkpt><trkpt lat="44.499493780839195" lon="10.873297060062386"><ele>170.0</ele><time>2026-04-04T13:43:11.999Z</time></trkpt><trkpt lat="44.49953766339569" lon="10.873386495084164"><ele>170.0</ele><time>2026-04-04T13:43:13.999Z</time></trkpt><trkpt lat="44.49957663827993" lon="10.873503389602162"><ele>169.83333333333331</ele><time>2026-04-04T13:43:17Z</time></trkpt><trkpt lat="44.49965906823823" lon="10.873500268582902"><ele>169.66666666666666</ele><time>2026-04-04T13:43:20Z</time></trkpt><trkpt lat="44.49970395859838" lon="10.873418133107027"><ele>169.5</ele><time>2026-04-04T13:43:22Z</time></trkpt><trkpt lat="44.499722032321436" lon="10.873319247583115"><ele>169.33333333333334</ele><time>2026-04-04T13:43:24Z</time></trkpt><trkpt lat="44.499713837017545" lon="10.873209017230982"><ele>169.16666666666669</ele><time>2026-04-04T13:43:27Z</time></trkpt><trkpt lat="44.49970655029016" lon="10.87308707032888"><ele>169.0</ele><time>2026-04-04T13:43:31Z</time></trkpt><trkpt lat="44.499687387869834" lon="10.872983709311542"><ele>169.0</ele><time>2026-04-04T13:43:34Z</time></trkpt><trkpt lat="44.49966362822126" lon="10.872888685248864"><ele>169.0</ele><time>2026-04-04T13:43:36Z</time></trkpt><trkpt lat="44.49962988054028" lon="10.872806482397973"><ele>169.0</ele><time>2026-04-04T13:43:38Z</time></trkpt><trkpt lat="44.49956629741802" lon="10.872754245410526"><ele>169.0</ele><time>2026-04-04T13:43:41Z</time></trkpt><trkpt lat="44.49949714652832" lon="10.872721767906551"><ele>169.0</ele><time>2026-04-04T13:43:55Z</time></trkpt><trkpt lat="44.499428945689196" lon="10.872756039222837"><ele>169.0</ele><time>2026-04-04T13:43:58Z</time></trkpt><trkpt lat="44.499380110881916" lon="10.872820852267788"><ele>169.0</ele><time>2026-04-04T13:44:00Z</time></trkpt><trkpt lat="44.4993180748791" lon="10.872880579600732"><ele>169.14285714285714</ele><time>2026-04-04T13:44:02Z</time></trkpt><trkpt lat="44.49926352559674" lon="10.872926669176573"><ele>169.28571428571428</ele><time>2026-04-04T13:44:04Z</time></trkpt><trkpt lat="44.49920115374068" lon="10.872973875577998"><ele>169.42857142857144</ele><time>2026-04-04T13:44:06Z</time></trkpt><trkpt lat="44.49913946579359" lon="10.87302685362636"><ele>169.57142857142856</ele><time>2026-04-04T13:44:08Z</time></trkpt><trkpt lat="44.499072361549" lon="10.873082426261949"><ele>169.7142857142857</ele><time>2026-04-04T13:44:10Z</time></trkpt><trkpt lat="44.49900893893149" lon="10.873128856074594"><ele>169.85714285714286</ele><time>2026-04-04T13:44:12Z</time></trkpt><trkpt lat="44.49894836755113" lon="10.87318473088827"><ele>170.0</ele><time>2026-04-04T13:44:14Z</time></trkpt><trkpt lat="44.49888306424362" lon="10.873236685178092"><ele>170.0</ele><time>2026-04-04T13:44:15.999Z</time></trkpt><trkpt lat="44.498814150349375" lon="10.873297665538592"><ele>170.0</ele><time>2026-04-04T13:44:17.999Z</time></trkpt><trkpt lat="44.498740694294824" lon="10.873356102834244"><ele>170.0</ele><time>2026-04-04T13:44:19.999Z</time></trkpt><trkpt lat="44.49866862031766" lon="10.873419111530218"><ele>170.0</ele><time>2026-04-04T13:44:21.999Z</time></trkpt><trkpt lat="44.49859741413124" lon="10.873478674042678"><ele>170.0</ele><time>2026-04-04T13:44:23.999Z</time></trkpt><trkpt lat="44.49852617600659" lon="10.87353887749603"><ele>170.0</ele><time>2026-04-04T13:44:25.999Z</time></trkpt><trkpt lat="44.49845280456716" lon="10.873603527948369"><ele>170.5</ele><time>2026-04-04T13:44:27.999Z</time></trkpt><trkpt lat="44.49838339070991" lon="10.873658851905125"><ele>171.0</ele><time>2026-04-04T13:44:29.999Z</time></trkpt><trkpt lat="44.49831325598016" lon="10.873713570498953"><ele>171.5</ele><time>2026-04-04T13:44:31.999Z</time></trkpt><trkpt lat="44.498240516296605" lon="10.873780336277044"><ele>172.0</ele><time>2026-04-04T13:44:33.999Z</time></trkpt><trkpt lat="44.49817308093281" lon="10.873842958456596"><ele>172.5</ele><time>2026-04-04T13:44:35.999Z</time></trkpt><trkpt lat="44.49808933117191" lon="10.8738890084202"><ele>173.0</ele><time>2026-04-04T13:44:37.999Z</time></trkpt><trkpt lat="44.49801189124116" lon="10.87394739830295"><ele>173.0</ele><time>2026-04-04T13:44:39.999Z</time></trkpt><trkpt lat="44.49793480240645" lon="10.873986285715965"><ele>173.0</ele><time>2026-04-04T13:44:41.999Z</time></trkpt><trkpt lat="44.4979050103331" lon="10.874130253143774"><ele>173.0</ele><time>2026-04-04T13:44:43.999Z</time></trkpt><trkpt lat="44.497918316682735" lon="10.874216518453315"><ele>173.0</ele><time>2026-04-04T13:44:44.999Z</time></trkpt><trkpt lat="44.49797609718912" lon="10.874356421700769"><ele>173.0</ele><time>2026-04-04T13:44:46.999Z</time></trkpt><trkpt lat="44.498018388921366" lon="10.874499642314156"><ele>173.16666666666666</ele><time>2026-04-04T13:44:48.999Z</time></trkpt><trkpt lat="44.498048237115185" lon="10.874579880535553"><ele>173.33333333333331</ele><time>2026-04-04T13:44:49.999Z</time></trkpt><trkpt lat="44.49808473568248" lon="10.874749503402287"><ele>173.5</ele><time>2026-04-04T13:44:51.999Z</time></trkpt><trkpt lat="44.498113909461956" lon="10.874836436069582"><ele>173.66666666666666</ele><time>2026-04-04T13:44:52.999Z</time></trkpt><trkpt lat="44.498143632263826" lon="10.874923279727238"><ele>173.83333333333334</ele><time>2026-04-04T13:44:53.999Z</time></trkpt><trkpt lat="44.49817473397616" lon="10.875010671576245"><ele>174.0</ele><time>2026-04-04T13:44:54.999Z</time></trkpt><trkpt lat="44.49820388759674" lon="10.875089827191227"><ele>175.75</ele><time>2026-04-04T13:44:55.999Z</time></trkpt><trkpt lat="44.498273330031516" lon="10.875235518806987"><ele>177.5</ele><time>2026-04-04T13:44:57.999Z</time></trkpt><trkpt lat="44.49835321533462" lon="10.875365294327167"><ele>179.25</ele><time>2026-04-04T13:44:59.999Z</time></trkpt><trkpt lat="44.49843239877979" lon="10.875478260308233"><ele>181.0</ele><time>2026-04-04T13:45:01.999Z</time></trkpt><trkpt lat="44.498521601033" lon="10.87556441145227"><ele>181.0</ele><time>2026-04-04T13:45:03.999Z</time></trkpt><trkpt lat="44.49859705203988" lon="10.875647510321228"><ele>181.0</ele><time>2026-04-04T13:45:05.999Z</time></trkpt><trkpt lat="44.498676943511796" lon="10.87571405064118"><ele>181.0</ele><time>2026-04-04T13:45:07.999Z</time></trkpt><trkpt lat="44.49874867591085" lon="10.875791176244777"><ele>181.0</ele><time>2026-04-04T13:45:09.999Z</time></trkpt><trkpt lat="44.49882144018396" lon="10.875849470241887"><ele>181.0</ele><time>2026-04-04T13:45:11.999Z</time></trkpt><trkpt lat="44.4988974995719" lon="10.875909197133089"><ele>181.4</ele><time>2026-04-04T13:45:13.999Z</time></trkpt><trkpt lat="44.498973687062296" lon="10.875972132509078"><ele>181.8</ele><time>2026-04-04T13:45:15.999Z</time></trkpt><trkpt lat="44.499048399790254" lon="10.87603494333765"><ele>182.20000000000002</ele><time>2026-04-04T13:45:17.999Z</time></trkpt><trkpt lat="44.499125207802116" lon="10.876103767787153"><ele>182.60000000000002</ele><time>2026-04-04T13:45:19.999Z</time></trkpt><trkpt lat="44.49920799620891" lon="10.87618321437886"><ele>183.0</ele><time>2026-04-04T13:45:21.999Z</time></trkpt><trkpt lat="44.49928944376686" lon="10.876244169482446"><ele>183.0</ele><time>2026-04-04T13:45:24Z</time></trkpt><trkpt lat="44.499368328394404" lon="10.876313988677031"><ele>183.0</ele><time>2026-04-04T13:45:26Z</time></trkpt><trkpt lat="44.49944630543688" lon="10.87637843723417"><ele>183.0</ele><time>2026-04-04T13:45:28Z</time></trkpt><trkpt lat="44.499514271703084" lon="10.876439017614187"><ele>183.0</ele><time>2026-04-04T13:45:30Z</time></trkpt><trkpt lat="44.49960325970454" lon="10.876484725303554"><ele>183.0</ele><time>2026-04-04T13:45:32Z</time></trkpt><trkpt lat="44.4996877324997" lon="10.876537927594754"><ele>182.2</ele><time>2026-04-04T13:45:34Z</time></trkpt><trkpt lat="44.49977304167975" lon="10.876598183524711"><ele>181.4</ele><time>2026-04-04T13:45:36Z</time></trkpt><trkpt lat="44.499867657352986" lon="10.876655848871302"><ele>180.6</ele><time>2026-04-04T13:45:38Z</time></trkpt><trkpt lat="44.49997114491957" lon="10.876710444299558"><ele>179.79999999999998</ele><time>2026-04-04T13:45:40Z</time></trkpt><trkpt lat="44.50007255936758" lon="10.876761734637984"><ele>179.0</ele><time>2026-04-04T13:45:42Z</time></trkpt><trkpt lat="44.500172197025265" lon="10.876822679899812"><ele>179.0</ele><time>2026-04-04T13:45:44Z</time></trkpt><trkpt lat="44.500267380208534" lon="10.876876683434949"><ele>179.0</ele><time>2026-04-04T13:45:46Z</time></trkpt><trkpt lat="44.50037012358694" lon="10.87694199602943"><ele>179.0</ele><time>2026-04-04T13:45:48Z</time></trkpt><trkpt lat="44.50047113113696" lon="10.877004573838407"><ele>179.0</ele><time>2026-04-04T13:45:50Z</time></trkpt><trkpt lat="44.50058451507394" lon="10.877048058035845"><ele>179.0</ele><time>2026-04-04T13:45:52Z</time></trkpt><trkpt lat="44.500706947511624" lon="10.87708368074028"><ele>178.0</ele><time>2026-04-04T13:45:54Z</time></trkpt><trkpt lat="44.500772222097936" lon="10.87711123276043"><ele>177.0</ele><time>2026-04-04T13:45:55Z</time></trkpt><trkpt lat="44.50084291246238" lon="10.877122571303437"><ele>176.0</ele><time>2026-04-04T13:45:56Z</time></trkpt><trkpt lat="44.50091247439206" lon="10.877156029348301"><ele>175.0</ele><time>2026-04-04T13:45:57Z</time></trkpt><trkpt lat="44.500989273479995" lon="10.87718792840461"><ele>174.0</ele><time>2026-04-04T13:45:58Z</time></trkpt><trkpt lat="44.50106744819442" lon="10.877213661116546"><ele>173.0</ele><time>2026-04-04T13:45:59Z</time></trkpt><trkpt lat="44.5011479445134" lon="10.877236458072282"><ele>173.0</ele><time>2026-04-04T13:46:00Z</time></trkpt><trkpt lat="44.501226737427956" lon="10.877260814398337"><ele>173.0</ele><time>2026-04-04T13:46:01Z</time></trkpt><trkpt lat="44.50130400975874" lon="10.87728777373525"><ele>173.0</ele><time>2026-04-04T13:46:02Z</time></trkpt><trkpt lat="44.50138185673362" lon="10.877313630337607"><ele>173.0</ele><time>2026-04-04T13:46:03Z</time></trkpt><trkpt lat="44.50145768491752" lon="10.877342108074576"><ele>173.0</ele><time>2026-04-04T13:46:04Z</time></trkpt><trkpt lat="44.50152924936649" lon="10.877367530030305"><ele>173.0</ele><time>2026-04-04T13:46:05Z</time></trkpt><trkpt lat="44.5016009887819" lon="10.877397282574695"><ele>172.7142857142857</ele><time>2026-04-04T13:46:06Z</time></trkpt><trkpt lat="44.50167492364017" lon="10.87742932452712"><ele>172.42857142857144</ele><time>2026-04-04T13:46:07Z</time></trkpt><trkpt lat="44.50173919477912" lon="10.877478915806899"><ele>172.14285714285714</ele><time>2026-04-04T13:46:08Z</time></trkpt><trkpt lat="44.50180428668079" lon="10.877494380429143"><ele>171.85714285714283</ele><time>2026-04-04T13:46:09Z</time></trkpt><trkpt lat="44.50186753621243" lon="10.87752936527415"><ele>171.57142857142856</ele><time>2026-04-04T13:46:10Z</time></trkpt><trkpt lat="44.5019305454633" lon="10.877565728364685"><ele>171.28571428571428</ele><time>2026-04-04T13:46:11Z</time></trkpt><trkpt lat="44.501986966542496" lon="10.877607797100861"><ele>171.0</ele><time>2026-04-04T13:46:12Z</time></trkpt><trkpt lat="44.502049480921436" lon="10.877644296407091"><ele>170.4</ele><time>2026-04-04T13:46:13Z</time></trkpt><trkpt lat="44.502109680665725" lon="10.877680024512266"><ele>169.8</ele><time>2026-04-04T13:46:14Z</time></trkpt><trkpt lat="44.50221696666124" lon="10.877761983841115"><ele>169.20000000000002</ele><time>2026-04-04T13:46:16Z</time></trkpt><trkpt lat="44.502318328870935" lon="10.87784941224362"><ele>168.60000000000002</ele><time>2026-04-04T13:46:18Z</time></trkpt><trkpt lat="44.502419407136706" lon="10.87793238126884"><ele>168.0</ele><time>2026-04-04T13:46:19.999Z</time></trkpt><trkpt lat="44.50250133306863" lon="10.87803460781019"><ele>168.0</ele><time>2026-04-04T13:46:21.999Z</time></trkpt><trkpt lat="44.502590362196855" lon="10.878111110410915"><ele>168.0</ele><time>2026-04-04T13:46:23.999Z</time></trkpt><trkpt lat="44.502681853970635" lon="10.87819471703273"><ele>168.0</ele><time>2026-04-04T13:46:25.999Z</time></trkpt><trkpt lat="44.50276971214315" lon="10.878279707625362"><ele>168.0</ele><time>2026-04-04T13:46:27.999Z</time></trkpt><trkpt lat="44.50285473477278" lon="10.878368883637712"><ele>168.0</ele><time>2026-04-04T13:46:29.999Z</time></trkpt><trkpt lat="44.50294081015023" lon="10.87844812818456"><ele>167.5</ele><time>2026-04-04T13:46:31.999Z</time></trkpt><trkpt lat="44.503031878649566" lon="10.878541369479258"><ele>167.0</ele><time>2026-04-04T13:46:33.999Z</time></trkpt><trkpt lat="44.503120937715984" lon="10.878635764885608"><ele>166.5</ele><time>2026-04-04T13:46:35.999Z</time></trkpt><trkpt lat="44.50321701948551" lon="10.87873519442043"><ele>166.0</ele><time>2026-04-04T13:46:37.999Z</time></trkpt><trkpt lat="44.50331173899285" lon="10.878837387161191"><ele>166.0</ele><time>2026-04-04T13:46:39.999Z</time></trkpt><trkpt lat="44.50336464415163" lon="10.87888797198049"><ele>166.0</ele><time>2026-04-04T13:46:40.999Z</time></trkpt><trkpt lat="44.50346174865209" lon="10.878991014258395"><ele>166.0</ele><time>2026-04-04T13:46:42.999Z</time></trkpt><trkpt lat="44.503565008440916" lon="10.87908781152676"><ele>166.0</ele><time>2026-04-04T13:46:44.999Z</time></trkpt><trkpt lat="44.503671620595355" lon="10.879176046162307"><ele>166.0</ele><time>2026-04-04T13:46:46.999Z</time></trkpt><trkpt lat="44.503783415435436" lon="10.879263303116657"><ele>165.60000000000002</ele><time>2026-04-04T13:46:48.999Z</time></trkpt><trkpt lat="44.503892618429624" lon="10.879342568863747"><ele>165.2</ele><time>2026-04-04T13:46:50.999Z</time></trkpt><trkpt lat="44.50394790733807" lon="10.879385128137708"><ele>164.8</ele><time>2026-04-04T13:46:51.999Z</time></trkpt><trkpt lat="44.504068228329395" lon="10.879467640380216"><ele>164.39999999999998</ele><time>2026-04-04T13:46:53.999Z</time></trkpt><trkpt lat="44.50417305160559" lon="10.879549138087883"><ele>164.0</ele><time>2026-04-04T13:46:55.999Z</time></trkpt><trkpt lat="44.50428285468698" lon="10.879625951374134"><ele>164.0</ele><time>2026-04-04T13:46:57.999Z</time></trkpt><trkpt lat="44.50438446070248" lon="10.879699790055197"><ele>164.0</ele><time>2026-04-04T13:46:59.999Z</time></trkpt><trkpt lat="44.504489188831556" lon="10.87977431305512"><ele>164.0</ele><time>2026-04-04T13:47:01.999Z</time></trkpt><trkpt lat="44.504593928042006" lon="10.879850944861042"><ele>164.0</ele><time>2026-04-04T13:47:03.999Z</time></trkpt><trkpt lat="44.504658294414334" lon="10.879876577970489"><ele>164.0</ele><time>2026-04-04T13:47:04.999Z</time></trkpt><trkpt lat="44.50476163336546" lon="10.879961350133156"><ele>163.5</ele><time>2026-04-04T13:47:06.999Z</time></trkpt><trkpt lat="44.50487343875902" lon="10.880027668714302"><ele>163.0</ele><time>2026-04-04T13:47:08.999Z</time></trkpt><trkpt lat="44.504978199284224" lon="10.880104977576352"><ele>162.5</ele><time>2026-04-04T13:47:10.999Z</time></trkpt><trkpt lat="44.50508283986362" lon="10.880179196011111"><ele>162.0</ele><time>2026-04-04T13:47:12.999Z</time></trkpt><trkpt lat="44.5051875991658" lon="10.880265483778954"><ele>162.0</ele><time>2026-04-04T13:47:14.999Z</time></trkpt><trkpt lat="44.50529800655437" lon="10.88033840369965"><ele>162.0</ele><time>2026-04-04T13:47:16.999Z</time></trkpt><trkpt lat="44.50540554419404" lon="10.88041636027495"><ele>162.0</ele><time>2026-04-04T13:47:18.999Z</time></trkpt><trkpt lat="44.50551504975192" lon="10.880492549395438"><ele>162.0</ele><time>2026-04-04T13:47:20.999Z</time></trkpt><trkpt lat="44.50562409493296" lon="10.880567645588474"><ele>162.0</ele><time>2026-04-04T13:47:22.999Z</time></trkpt><trkpt lat="44.50573186054958" lon="10.880641568879154"><ele>162.0</ele><time>2026-04-04T13:47:24.999Z</time></trkpt><trkpt lat="44.50584037240156" lon="10.880726992890997"><ele>162.0</ele><time>2026-04-04T13:47:26.999Z</time></trkpt><trkpt lat="44.50589937351103" lon="10.880759625711418"><ele>162.0</ele><time>2026-04-04T13:47:27.999Z</time></trkpt><trkpt lat="44.505951442275" lon="10.880817728333739"><ele>162.0</ele><time>2026-04-04T13:47:29Z</time></trkpt><trkpt lat="44.50601542362444" lon="10.880836769833136"><ele>162.0</ele><time>2026-04-04T13:47:30Z</time></trkpt><trkpt lat="44.50607179313082" lon="10.88087938269382"><ele>161.6</ele><time>2026-04-04T13:47:31Z</time></trkpt><trkpt lat="44.506185091248064" lon="10.880958478835495"><ele>161.2</ele><time>2026-04-04T13:47:33Z</time></trkpt><trkpt lat="44.506294781502646" lon="10.881038721320355"><ele>160.8</ele><time>2026-04-04T13:47:35Z</time></trkpt><trkpt lat="44.50640290519747" lon="10.881109858621242"><ele>160.4</ele><time>2026-04-04T13:47:37Z</time></trkpt><trkpt lat="44.506460768198274" lon="10.881149472547643"><ele>160.0</ele><time>2026-04-04T13:47:38Z</time></trkpt><trkpt lat="44.50655032165005" lon="10.88122143323302"><ele>161.0</ele><time>2026-04-04T13:47:40Z</time></trkpt><trkpt lat="44.5065416365185" lon="10.881377563322468"><ele>162.0</ele><time>2026-04-04T13:47:42Z</time></trkpt><trkpt lat="44.50649469708226" lon="10.881502873226182"><ele>163.0</ele><time>2026-04-04T13:47:44Z</time></trkpt><trkpt lat="44.506453321663166" lon="10.881652476476635"><ele>164.0</ele><time>2026-04-04T13:47:46Z</time></trkpt><trkpt lat="44.50642514617411" lon="10.881786290609298"><ele>165.0</ele><time>2026-04-04T13:47:48Z</time></trkpt><trkpt lat="44.50638530421429" lon="10.881930747071475"><ele>165.0</ele><time>2026-04-04T13:47:50Z</time></trkpt><trkpt lat="44.506355038422754" lon="10.882077022809092"><ele>165.0</ele><time>2026-04-04T13:47:52Z</time></trkpt><trkpt lat="44.506329098757384" lon="10.88220756375693"><ele>165.0</ele><time>2026-04-04T13:47:54Z</time></trkpt><trkpt lat="44.506296207310974" lon="10.882348969986046"><ele>165.0</ele><time>2026-04-04T13:47:56Z</time></trkpt><trkpt lat="44.506268184020165" lon="10.882481752119547"><ele>165.0</ele><time>2026-04-04T13:47:58Z</time></trkpt><trkpt lat="44.50623186561894" lon="10.882624689668884"><ele>164.4</ele><time>2026-04-04T13:48:00Z</time></trkpt><trkpt lat="44.50620270017596" lon="10.88275760172989"><ele>163.8</ele><time>2026-04-04T13:48:02Z</time></trkpt><trkpt lat="44.50616668394998" lon="10.882898724089046"><ele>163.2</ele><time>2026-04-04T13:48:04Z</time></trkpt><trkpt lat="44.50613275608952" lon="10.883038418422148"><ele>162.6</ele><time>2026-04-04T13:48:06Z</time></trkpt><trkpt lat="44.5060996421847" lon="10.883166838439971"><ele>162.0</ele><time>2026-04-04T13:48:08Z</time></trkpt><trkpt lat="44.50607426061169" lon="10.883309762401689"><ele>162.0</ele><time>2026-04-04T13:48:10Z</time></trkpt><trkpt lat="44.50603834805082" lon="10.883443795476696"><ele>162.0</ele><time>2026-04-04T13:48:12Z</time></trkpt><trkpt lat="44.506004743070605" lon="10.88358355897477"><ele>162.0</ele><time>2026-04-04T13:48:14Z</time></trkpt><trkpt lat="44.50598183840407" lon="10.883713495802334"><ele>162.0</ele><time>2026-04-04T13:48:16Z</time></trkpt><trkpt lat="44.505940609639865" lon="10.883842716312973"><ele>162.0</ele><time>2026-04-04T13:48:18Z</time></trkpt><trkpt lat="44.50591426691295" lon="10.883972924209699"><ele>162.0</ele><time>2026-04-04T13:48:19.999Z</time></trkpt><trkpt lat="44.50587664546857" lon="10.884099603989737"><ele>162.0</ele><time>2026-04-04T13:48:21.999Z</time></trkpt><trkpt lat="44.505850047533535" lon="10.884228523043982"><ele>162.0</ele><time>2026-04-04T13:48:23.999Z</time></trkpt><trkpt lat="44.50584053192841" lon="10.884355814581232"><ele>162.0</ele><time>2026-04-04T13:48:25.999Z</time></trkpt><trkpt lat="44.50587345100192" lon="10.884474216296212"><ele>162.0</ele><time>2026-04-04T13:48:27.999Z</time></trkpt><trkpt lat="44.50595459718983" lon="10.884547142436123"><ele>162.2</ele><time>2026-04-04T13:48:29.999Z</time></trkpt><trkpt lat="44.506050262058906" lon="10.884604957443498"><ele>162.39999999999998</ele><time>2026-04-04T13:48:31.999Z</time></trkpt><trkpt lat="44.50614272176014" lon="10.884670154141803"><ele>162.60000000000002</ele><time>2026-04-04T13:48:33.999Z</time></trkpt><trkpt lat="44.50623908711968" lon="10.88473046793022"><ele>162.8</ele><time>2026-04-04T13:48:35.999Z</time></trkpt><trkpt lat="44.50633438462913" lon="10.884792903306987"><ele>163.0</ele><time>2026-04-04T13:48:37.999Z</time></trkpt><trkpt lat="44.50642986612275" lon="10.88485885603293"><ele>162.8</ele><time>2026-04-04T13:48:39.999Z</time></trkpt><trkpt lat="44.506529923037284" lon="10.884923850223466"><ele>162.60000000000002</ele><time>2026-04-04T13:48:41.999Z</time></trkpt><trkpt lat="44.506632556294186" lon="10.884989369834656"><ele>162.39999999999998</ele><time>2026-04-04T13:48:43.999Z</time></trkpt><trkpt lat="44.50672984160897" lon="10.885060571655362"><ele>162.2</ele><time>2026-04-04T13:48:45.999Z</time></trkpt><trkpt lat="44.506825289059115" lon="10.885145950057371"><ele>162.0</ele><time>2026-04-04T13:48:47.999Z</time></trkpt><trkpt lat="44.5069266426651" lon="10.885217635385203"><ele>162.0</ele><time>2026-04-04T13:48:49.999Z</time></trkpt><trkpt lat="44.50703072424774" lon="10.8852912501569"><ele>162.0</ele><time>2026-04-04T13:48:51.999Z</time></trkpt><trkpt lat="44.50714166581404" lon="10.8853483272656"><ele>162.0</ele><time>2026-04-04T13:48:53.999Z</time></trkpt><trkpt lat="44.507246840465164" lon="10.885427921187981"><ele>162.0</ele><time>2026-04-04T13:48:55.999Z</time></trkpt><trkpt lat="44.50735875504595" lon="10.885499742264578"><ele>160.5</ele><time>2026-04-04T13:48:57.999Z</time></trkpt><trkpt lat="44.507469336022375" lon="10.885580801805494"><ele>159.0</ele><time>2026-04-04T13:48:59.999Z</time></trkpt><trkpt lat="44.507581153698986" lon="10.885661386557935"><ele>157.5</ele><time>2026-04-04T13:49:01.999Z</time></trkpt><trkpt lat="44.50769294132107" lon="10.88573695693095"><ele>156.0</ele><time>2026-04-04T13:49:03.999Z</time></trkpt><trkpt lat="44.50780059105563" lon="10.885811986798496"><ele>156.0</ele><time>2026-04-04T13:49:05.999Z</time></trkpt><trkpt lat="44.50790274663691" lon="10.885908013805327"><ele>156.0</ele><time>2026-04-04T13:49:07.999Z</time></trkpt><trkpt lat="44.50801173780059" lon="10.885985100994477"><ele>156.0</ele><time>2026-04-04T13:49:09.999Z</time></trkpt><trkpt lat="44.50811753609215" lon="10.886059300702867"><ele>156.0</ele><time>2026-04-04T13:49:11.999Z</time></trkpt><trkpt lat="44.508225681428776" lon="10.886135116122926"><ele>156.5</ele><time>2026-04-04T13:49:13.999Z</time></trkpt><trkpt lat="44.50833392087498" lon="10.886210997483458"><ele>157.0</ele><time>2026-04-04T13:49:15.999Z</time></trkpt><trkpt lat="44.508438472072" lon="10.88628416062591"><ele>157.5</ele><time>2026-04-04T13:49:17.999Z</time></trkpt><trkpt lat="44.50854076922066" lon="10.88635565138154"><ele>158.0</ele><time>2026-04-04T13:49:19.999Z</time></trkpt><trkpt lat="44.50864277087664" lon="10.886426935625863"><ele>157.5</ele><time>2026-04-04T13:49:21.999Z</time></trkpt><trkpt lat="44.50874372238401" lon="10.886497664299204"><ele>157.0</ele><time>2026-04-04T13:49:23.999Z</time></trkpt><trkpt lat="44.50885253344146" lon="10.886573957105707"><ele>156.5</ele><time>2026-04-04T13:49:25.999Z</time></trkpt><trkpt lat="44.50895620253742" lon="10.886646644623049"><ele>156.0</ele><time>2026-04-04T13:49:27.999Z</time></trkpt><trkpt lat="44.50906600172497" lon="10.886697959099022"><ele>156.25</ele><time>2026-04-04T13:49:29.998Z</time></trkpt><trkpt lat="44.509166365800276" lon="10.886774588661392"><ele>156.5</ele><time>2026-04-04T13:49:31.998Z</time></trkpt><trkpt lat="44.50927518847063" lon="10.886844450665784"><ele>156.75</ele><time>2026-04-04T13:49:33.998Z</time></trkpt><trkpt lat="44.50938217139822" lon="10.886918744304806"><ele>157.0</ele><time>2026-04-04T13:49:36Z</time></trkpt><trkpt lat="44.50948906831379" lon="10.88699802826153"><ele>156.0</ele><time>2026-04-04T13:49:38Z</time></trkpt><trkpt lat="44.509595550817" lon="10.887067760226305"><ele>155.0</ele><time>2026-04-04T13:49:40Z</time></trkpt><trkpt lat="44.509699465948685" lon="10.887144031826502"><ele>154.0</ele><time>2026-04-04T13:49:42Z</time></trkpt><trkpt lat="44.50980236882865" lon="10.887219814464235"><ele>153.0</ele><time>2026-04-04T13:49:44Z</time></trkpt><trkpt lat="44.509905892399914" lon="10.88729128219004"><ele>153.0</ele><time>2026-04-04T13:49:46Z</time></trkpt><trkpt lat="44.51001199064433" lon="10.887363030984867"><ele>153.0</ele><time>2026-04-04T13:49:48Z</time></trkpt><trkpt lat="44.510113713320244" lon="10.887454513971438"><ele>153.0</ele><time>2026-04-04T13:49:50Z</time></trkpt><trkpt lat="44.510224287858655" lon="10.887519415425123"><ele>153.0</ele><time>2026-04-04T13:49:52Z</time></trkpt><trkpt lat="44.51033415158076" lon="10.887590227775632"><ele>153.5</ele><time>2026-04-04T13:49:54Z</time></trkpt><trkpt lat="44.510444784822724" lon="10.887672255514097"><ele>154.0</ele><time>2026-04-04T13:49:56Z</time></trkpt><trkpt lat="44.51055519098688" lon="10.887753098807154"><ele>154.5</ele><time>2026-04-04T13:49:58Z</time></trkpt><trkpt lat="44.510658031133666" lon="10.88785368082237"><ele>155.0</ele><time>2026-04-04T13:50:00Z</time></trkpt><trkpt lat="44.51075542843509" lon="10.887964218273643"><ele>155.0</ele><time>2026-04-04T13:50:02Z</time></trkpt><trkpt lat="44.510805332544464" lon="10.888020694948215"><ele>155.0</ele><time>2026-04-04T13:50:03Z</time></trkpt><trkpt lat="44.510854680082765" lon="10.888077139426233"><ele>155.0</ele><time>2026-04-04T13:50:04Z</time></trkpt><trkpt lat="44.51090576730398" lon="10.888133784771403"><ele>155.0</ele><time>2026-04-04T13:50:05Z</time></trkpt><trkpt lat="44.5109545065245" lon="10.888194690494133"><ele>155.0</ele><time>2026-04-04T13:50:06Z</time></trkpt><trkpt lat="44.511044566693734" lon="10.888313579449786"><ele>155.0</ele><time>2026-04-04T13:50:08Z</time></trkpt><trkpt lat="44.51114060228744" lon="10.888426257609124"><ele>155.33333333333331</ele><time>2026-04-04T13:50:10Z</time></trkpt><trkpt lat="44.51118842715749" lon="10.88848551063303"><ele>155.66666666666666</ele><time>2026-04-04T13:50:11Z</time></trkpt><trkpt lat="44.511286491114575" lon="10.88859886487413"><ele>156.0</ele><time>2026-04-04T13:50:13Z</time></trkpt><trkpt lat="44.51133437141093" lon="10.888656582589709"><ele>156.33333333333334</ele><time>2026-04-04T13:50:14Z</time></trkpt><trkpt lat="44.51143024831042" lon="10.888772942718623"><ele>156.66666666666669</ele><time>2026-04-04T13:50:16Z</time></trkpt><trkpt lat="44.51147821201013" lon="10.888833425518017"><ele>157.0</ele><time>2026-04-04T13:50:17Z</time></trkpt><trkpt lat="44.51152708139292" lon="10.888889315338707"><ele>155.6</ele><time>2026-04-04T13:50:18Z</time></trkpt><trkpt lat="44.51161629597515" lon="10.888998960533202"><ele>154.2</ele><time>2026-04-04T13:50:20Z</time></trkpt><trkpt lat="44.51167053193709" lon="10.889056051127092"><ele>152.8</ele><time>2026-04-04T13:50:21Z</time></trkpt><trkpt lat="44.51176119140161" lon="10.889172944098025"><ele>151.4</ele><time>2026-04-04T13:50:23Z</time></trkpt><trkpt lat="44.51185697194726" lon="10.889286359041018"><ele>150.0</ele><time>2026-04-04T13:50:24.999Z</time></trkpt><trkpt lat="44.5119483368707" lon="10.889404390696413"><ele>150.0</ele><time>2026-04-04T13:50:26.999Z</time></trkpt><trkpt lat="44.5120449017859" lon="10.889515578672206"><ele>150.0</ele><time>2026-04-04T13:50:28.999Z</time></trkpt><trkpt lat="44.51213823825672" lon="10.889624482561377"><ele>150.0</ele><time>2026-04-04T13:50:30.999Z</time></trkpt><trkpt lat="44.51223346021965" lon="10.889738722845168"><ele>150.0</ele><time>2026-04-04T13:50:32.999Z</time></trkpt><trkpt lat="44.51232582467654" lon="10.889849081141728"><ele>149.75</ele><time>2026-04-04T13:50:34.999Z</time></trkpt><trkpt lat="44.51241639765985" lon="10.889963463558544"><ele>149.5</ele><time>2026-04-04T13:50:36.999Z</time></trkpt><trkpt lat="44.51250962757089" lon="10.890077807159944"><ele>149.25</ele><time>2026-04-04T13:50:38.999Z</time></trkpt><trkpt lat="44.51260228656312" lon="10.890184330017627"><ele>149.0</ele><time>2026-04-04T13:50:40.999Z</time></trkpt><trkpt lat="44.51269566556435" lon="10.890296382227977"><ele>149.0</ele><time>2026-04-04T13:50:42.999Z</time></trkpt><trkpt lat="44.51278544241094" lon="10.890402605365376"><ele>149.0</ele><time>2026-04-04T13:50:44.999Z</time></trkpt><trkpt lat="44.51287406005912" lon="10.890509054636182"><ele>149.0</ele><time>2026-04-04T13:50:46.999Z</time></trkpt><trkpt lat="44.51296173380697" lon="10.890613533959646"><ele>149.0</ele><time>2026-04-04T13:50:48.999Z</time></trkpt><trkpt lat="44.51305109042669" lon="10.890720963081165"><ele>149.0</ele><time>2026-04-04T13:50:50.999Z</time></trkpt><trkpt lat="44.51314059426992" lon="10.890822682812214"><ele>149.0</ele><time>2026-04-04T13:50:52.999Z</time></trkpt><trkpt lat="44.51322772085121" lon="10.89092763708132"><ele>149.0</ele><time>2026-04-04T13:50:54.999Z</time></trkpt><trkpt lat="44.513315235100634" lon="10.891030181217149"><ele>149.0</ele><time>2026-04-04T13:50:56.999Z</time></trkpt><trkpt lat="44.51339749944174" lon="10.891132840944099"><ele>149.2</ele><time>2026-04-04T13:50:58.999Z</time></trkpt><trkpt lat="44.513485077579375" lon="10.891235333645271"><ele>149.4</ele><time>2026-04-04T13:51:00.999Z</time></trkpt><trkpt lat="44.513567982177065" lon="10.891337694799542"><ele>149.6</ele><time>2026-04-04T13:51:02.999Z</time></trkpt><trkpt lat="44.513652788095015" lon="10.891440143687344"><ele>149.8</ele><time>2026-04-04T13:51:04.999Z</time></trkpt><trkpt lat="44.5137366906459" lon="10.891538986878196"><ele>150.0</ele><time>2026-04-04T13:51:06.999Z</time></trkpt><trkpt lat="44.51382419071787" lon="10.891642919087039"><ele>149.5</ele><time>2026-04-04T13:51:08.999Z</time></trkpt><trkpt lat="44.51390851067806" lon="10.89174634759853"><ele>149.0</ele><time>2026-04-04T13:51:10.999Z</time></trkpt><trkpt lat="44.51399520652158" lon="10.891850443655398"><ele>148.5</ele><time>2026-04-04T13:51:12.999Z</time></trkpt><trkpt lat="44.514087023768916" lon="10.891959692662676"><ele>148.0</ele><time>2026-04-04T13:51:14.999Z</time></trkpt><trkpt lat="44.51418182261924" lon="10.892068575784053"><ele>148.0</ele><time>2026-04-04T13:51:16.999Z</time></trkpt><trkpt lat="44.51427480991723" lon="10.892183267434817"><ele>148.0</ele><time>2026-04-04T13:51:18.999Z</time></trkpt><trkpt lat="44.51432448930401" lon="10.892243272218149"><ele>148.0</ele><time>2026-04-04T13:51:19.999Z</time></trkpt><trkpt lat="44.514421971027055" lon="10.892354708854226"><ele>148.0</ele><time>2026-04-04T13:51:21.999Z</time></trkpt><trkpt lat="44.51451947398906" lon="10.892469768812342"><ele>148.0</ele><time>2026-04-04T13:51:23.999Z</time></trkpt><trkpt lat="44.51461619894096" lon="10.892583682496538"><ele>147.6</ele><time>2026-04-04T13:51:25.999Z</time></trkpt><trkpt lat="44.5147130149579" lon="10.892697093554162"><ele>147.20000000000002</ele><time>2026-04-04T13:51:27.999Z</time></trkpt><trkpt lat="44.51479848601916" lon="10.892827660829218"><ele>146.8</ele><time>2026-04-04T13:51:29.999Z</time></trkpt><trkpt lat="44.51489543561962" lon="10.892933548571223"><ele>146.4</ele><time>2026-04-04T13:51:31.999Z</time></trkpt><trkpt lat="44.51494407452903" lon="10.892993331692386"><ele>146.0</ele><time>2026-04-04T13:51:32.999Z</time></trkpt><trkpt lat="44.515043759448005" lon="10.89310076168312"><ele>146.0</ele><time>2026-04-04T13:51:34.998Z</time></trkpt><trkpt lat="44.515136028218606" lon="10.893215514237438"><ele>146.0</ele><time>2026-04-04T13:51:36.998Z</time></trkpt><trkpt lat="44.51523014492631" lon="10.893331741083212"><ele>146.0</ele><time>2026-04-04T13:51:38.998Z</time></trkpt><trkpt lat="44.5153222912785" lon="10.893440370852124"><ele>146.0</ele><time>2026-04-04T13:51:41Z</time></trkpt><trkpt lat="44.515418122229605" lon="10.893549087283644"><ele>145.8</ele><time>2026-04-04T13:51:43Z</time></trkpt><trkpt lat="44.51546236481759" lon="10.893612657286356"><ele>145.6</ele><time>2026-04-04T13:51:44Z</time></trkpt><trkpt lat="44.51555531246255" lon="10.893730436521475"><ele>145.4</ele><time>2026-04-04T13:51:46Z</time></trkpt><trkpt lat="44.51565270595519" lon="10.893831064353853"><ele>145.2</ele><time>2026-04-04T13:51:48Z</time></trkpt><trkpt lat="44.51569757922349" lon="10.893896506219233"><ele>145.0</ele><time>2026-04-04T13:51:49Z</time></trkpt><trkpt lat="44.51578985552099" lon="10.894008583075511"><ele>145.0</ele><time>2026-04-04T13:51:51Z</time></trkpt><trkpt lat="44.5158856238686" lon="10.894113490165367"><ele>145.0</ele><time>2026-04-04T13:51:53Z</time></trkpt><trkpt lat="44.515932962114036" lon="10.894172317524541"><ele>145.0</ele><time>2026-04-04T13:51:54Z</time></trkpt><trkpt lat="44.51602901424398" lon="10.894284346525035"><ele>145.0</ele><time>2026-04-04T13:51:56Z</time></trkpt><trkpt lat="44.516079818824984" lon="10.894343076607877"><ele>145.0</ele><time>2026-04-04T13:51:57Z</time></trkpt><trkpt lat="44.516132400054246" lon="10.894396888213691"><ele>145.0</ele><time>2026-04-04T13:51:58Z</time></trkpt><trkpt lat="44.51617502396842" lon="10.894462691718093"><ele>145.0</ele><time>2026-04-04T13:51:59Z</time></trkpt><trkpt lat="44.51622756872283" lon="10.89451617443152"><ele>145.0</ele><time>2026-04-04T13:52:00Z</time></trkpt><trkpt lat="44.51627166948731" lon="10.89458070375749"><ele>145.0</ele><time>2026-04-04T13:52:01Z</time></trkpt><trkpt lat="44.51636833660148" lon="10.894688412069987"><ele>145.0</ele><time>2026-04-04T13:52:03Z</time></trkpt><trkpt lat="44.516418321975515" lon="10.894744312323967"><ele>145.0</ele><time>2026-04-04T13:52:04Z</time></trkpt><trkpt lat="44.51646590968659" lon="10.894803247113458"><ele>145.0</ele><time>2026-04-04T13:52:05Z</time></trkpt><trkpt lat="44.51656604590092" lon="10.894910019163095"><ele>144.66666666666669</ele><time>2026-04-04T13:52:07Z</time></trkpt><trkpt lat="44.51660416625724" lon="10.894984681880205"><ele>144.33333333333334</ele><time>2026-04-04T13:52:08Z</time></trkpt><trkpt lat="44.516704006513514" lon="10.895084148841827"><ele>144.0</ele><time>2026-04-04T13:52:10Z</time></trkpt><trkpt lat="44.516792489688086" lon="10.895208240777468"><ele>143.66666666666666</ele><time>2026-04-04T13:52:12Z</time></trkpt><trkpt lat="44.516842167447535" lon="10.895262769975066"><ele>143.33333333333331</ele><time>2026-04-04T13:52:13Z</time></trkpt><trkpt lat="44.5168948166843" lon="10.89531768611025"><ele>143.0</ele><time>2026-04-04T13:52:14Z</time></trkpt><trkpt lat="44.51698672862549" lon="10.895441573646163"><ele>142.99999999999997</ele><time>2026-04-04T13:52:16Z</time></trkpt><trkpt lat="44.51703973952013" lon="10.895496410367796"><ele>143.0</ele><time>2026-04-04T13:52:17Z</time></trkpt><trkpt lat="44.517090757610504" lon="10.895553200949573"><ele>143.0</ele><time>2026-04-04T13:52:18Z</time></trkpt><trkpt lat="44.51714232170656" lon="10.895610845045733"><ele>143.0</ele><time>2026-04-04T13:52:19Z</time></trkpt><trkpt lat="44.51719185961202" lon="10.895670477487323"><ele>143.0</ele><time>2026-04-04T13:52:20Z</time></trkpt><trkpt lat="44.51724000456662" lon="10.895734353758387"><ele>142.99999999999997</ele><time>2026-04-04T13:52:21Z</time></trkpt><trkpt lat="44.517285858161635" lon="10.895807238320796"><ele>143.0</ele><time>2026-04-04T13:52:22Z</time></trkpt><trkpt lat="44.517329205875676" lon="10.895885331756382"><ele>142.66666666666666</ele><time>2026-04-04T13:52:23Z</time></trkpt><trkpt lat="44.51737076397517" lon="10.895962934033353"><ele>142.33333333333331</ele><time>2026-04-04T13:52:24Z</time></trkpt><trkpt lat="44.51738880557777" lon="10.896050029478571"><ele>142.0</ele><time>2026-04-04T13:52:25Z</time></trkpt><trkpt lat="44.51738997092502" lon="10.896149281799143"><ele>141.66666666666666</ele><time>2026-04-04T13:52:26Z</time></trkpt><trkpt lat="44.51738685754924" lon="10.896332051083048"><ele>141.33333333333334</ele><time>2026-04-04T13:52:28Z</time></trkpt><trkpt lat="44.51738834586591" lon="10.896428182958756"><ele>141.0</ele><time>2026-04-04T13:52:29Z</time></trkpt><trkpt lat="44.517385040676544" lon="10.896524612651419"><ele>141.0</ele><time>2026-04-04T13:52:30Z</time></trkpt><trkpt lat="44.51737913127809" lon="10.896618729528175"><ele>141.0</ele><time>2026-04-04T13:52:30.999Z</time></trkpt><trkpt lat="44.517378207820045" lon="10.896712614189616"><ele>141.0</ele><time>2026-04-04T13:52:31.999Z</time></trkpt><trkpt lat="44.51738262928411" lon="10.896808055203167"><ele>141.0</ele><time>2026-04-04T13:52:32.999Z</time></trkpt><trkpt lat="44.51738685252428" lon="10.896897879821513"><ele>141.0</ele><time>2026-04-04T13:52:33.999Z</time></trkpt><trkpt lat="44.51739311179919" lon="10.896993568439374"><ele>141.0</ele><time>2026-04-04T13:52:34.999Z</time></trkpt><trkpt lat="44.51739938487127" lon="10.897086760774997"><ele>141.0</ele><time>2026-04-04T13:52:35.999Z</time></trkpt><trkpt lat="44.517415518568605" lon="10.897175658082086"><ele>141.0</ele><time>2026-04-04T13:52:36.999Z</time></trkpt><trkpt lat="44.51744182397343" lon="10.89725941093358"><ele>141.0</ele><time>2026-04-04T13:52:37.999Z</time></trkpt><trkpt lat="44.517477099874185" lon="10.897336077588523"><ele>141.0</ele><time>2026-04-04T13:52:38.999Z</time></trkpt><trkpt lat="44.51751973112224" lon="10.897407675848068"><ele>141.0</ele><time>2026-04-04T13:52:39.999Z</time></trkpt><trkpt lat="44.51756891421594" lon="10.89746680070471"><ele>141.0</ele><time>2026-04-04T13:52:40.999Z</time></trkpt><trkpt lat="44.517612657927785" lon="10.897531268380769"><ele>141.0</ele><time>2026-04-04T13:52:41.999Z</time></trkpt><trkpt lat="44.517700046804045" lon="10.897650720474493"><ele>141.0</ele><time>2026-04-04T13:52:43.999Z</time></trkpt><trkpt lat="44.51774077979441" lon="10.897721128713965"><ele>141.0</ele><time>2026-04-04T13:52:44.999Z</time></trkpt><trkpt lat="44.51778941605841" lon="10.897782878057901"><ele>141.0</ele><time>2026-04-04T13:52:45.999Z</time></trkpt><trkpt lat="44.51786410043192" lon="10.8979156060066"><ele>141.0</ele><time>2026-04-04T13:52:47.999Z</time></trkpt><trkpt lat="44.517952103934924" lon="10.898042588152117"><ele>141.0</ele><time>2026-04-04T13:52:49.999Z</time></trkpt><trkpt lat="44.51800106369489" lon="10.898110781958621"><ele>141.0</ele><time>2026-04-04T13:52:50.999Z</time></trkpt><trkpt lat="44.518042552100795" lon="10.898177625536851"><ele>141.0</ele><time>2026-04-04T13:52:51.999Z</time></trkpt><trkpt lat="44.51808692181236" lon="10.89824120547586"><ele>140.42857142857144</ele><time>2026-04-04T13:52:52.999Z</time></trkpt><trkpt lat="44.51812898708143" lon="10.898311811923685"><ele>139.85714285714286</ele><time>2026-04-04T13:52:53.999Z</time></trkpt><trkpt lat="44.51817092673747" lon="10.89838225219251"><ele>139.28571428571428</ele><time>2026-04-04T13:52:54.999Z</time></trkpt><trkpt lat="44.51821734067297" lon="10.8984507538113"><ele>138.71428571428572</ele><time>2026-04-04T13:52:55.999Z</time></trkpt><trkpt lat="44.51826594798414" lon="10.89851944237698"><ele>138.14285714285714</ele><time>2026-04-04T13:52:56.999Z</time></trkpt><trkpt lat="44.51831434818898" lon="10.898584590339897"><ele>137.57142857142858</ele><time>2026-04-04T13:52:57.999Z</time></trkpt><trkpt lat="44.518360732411345" lon="10.898655253995555"><ele>137.0</ele><time>2026-04-04T13:52:58.999Z</time></trkpt><trkpt lat="44.51840792208574" lon="10.89872596016093"><ele>136.42857142857144</ele><time>2026-04-04T13:52:59.999Z</time></trkpt><trkpt lat="44.518462598135734" lon="10.898782830973277"><ele>135.85714285714286</ele><time>2026-04-04T13:53:00.999Z</time></trkpt><trkpt lat="44.51852118394295" lon="10.898831283505585"><ele>135.28571428571428</ele><time>2026-04-04T13:53:01.999Z</time></trkpt><trkpt lat="44.5185880481973" lon="10.898879705018807"><ele>134.71428571428572</ele><time>2026-04-04T13:53:02.999Z</time></trkpt><trkpt lat="44.518636293501366" lon="10.898951508114827"><ele>134.14285714285714</ele><time>2026-04-04T13:53:03.999Z</time></trkpt><trkpt lat="44.51870598490914" lon="10.898989476315537"><ele>133.57142857142858</ele><time>2026-04-04T13:53:04.999Z</time></trkpt><trkpt lat="44.51875612999894" lon="10.899065055263884"><ele>133.0</ele><time>2026-04-04T13:53:05.999Z</time></trkpt><trkpt lat="44.51882618084978" lon="10.899102807441137"><ele>132.71428571428572</ele><time>2026-04-04T13:53:06.999Z</time></trkpt><trkpt lat="44.51887885915735" lon="10.899178972914584"><ele>132.42857142857144</ele><time>2026-04-04T13:53:07.999Z</time></trkpt><trkpt lat="44.51893564664934" lon="10.899231425222782"><ele>132.14285714285714</ele><time>2026-04-04T13:53:08.999Z</time></trkpt><trkpt lat="44.518998759535" lon="10.899285451439091"><ele>131.85714285714286</ele><time>2026-04-04T13:53:09.999Z</time></trkpt><trkpt lat="44.519070194503236" lon="10.899325758911653"><ele>131.57142857142858</ele><time>2026-04-04T13:53:10.999Z</time></trkpt><trkpt lat="44.51913259755123" lon="10.899384870157848"><ele>131.28571428571428</ele><time>2026-04-04T13:53:11.999Z</time></trkpt><trkpt lat="44.51918456107379" lon="10.899456617281137"><ele>131.0</ele><time>2026-04-04T13:53:12.999Z</time></trkpt><trkpt lat="44.519252560019" lon="10.899503185691609"><ele>131.0</ele><time>2026-04-04T13:53:13.999Z</time></trkpt><trkpt lat="44.519310836130224" lon="10.899547642635186"><ele>131.0</ele><time>2026-04-04T13:53:14.999Z</time></trkpt><trkpt lat="44.51936596264391" lon="10.899604847600783"><ele>131.0</ele><time>2026-04-04T13:53:15.999Z</time></trkpt><trkpt lat="44.51942608612841" lon="10.899668803096466"><ele>131.0</ele><time>2026-04-04T13:53:16.999Z</time></trkpt><trkpt lat="44.51948660997527" lon="10.899720930163358"><ele>131.0</ele><time>2026-04-04T13:53:17.999Z</time></trkpt><trkpt lat="44.51954854403299" lon="10.89977249585163"><ele>131.0</ele><time>2026-04-04T13:53:18.999Z</time></trkpt><trkpt lat="44.51960536122348" lon="10.899831970670435"><ele>131.0</ele><time>2026-04-04T13:53:19.999Z</time></trkpt><trkpt lat="44.51966390382438" lon="10.89988594882891"><ele>130.57142857142858</ele><time>2026-04-04T13:53:20.999Z</time></trkpt><trkpt lat="44.51971916994958" lon="10.89994253864731"><ele>130.14285714285717</ele><time>2026-04-04T13:53:21.999Z</time></trkpt><trkpt lat="44.51977807777143" lon="10.899995868499552"><ele>129.71428571428572</ele><time>2026-04-04T13:53:22.999Z</time></trkpt><trkpt lat="44.51983663207695" lon="10.900044653041494"><ele>129.28571428571428</ele><time>2026-04-04T13:53:23.999Z</time></trkpt><trkpt lat="44.51989536794396" lon="10.900092508654529"><ele>128.85714285714283</ele><time>2026-04-04T13:53:24.999Z</time></trkpt><trkpt lat="44.51995351730922" lon="10.900143948533945"><ele>128.42857142857142</ele><time>2026-04-04T13:53:25.999Z</time></trkpt><trkpt lat="44.52001055724464" lon="10.90019618976667"><ele>128.0</ele><time>2026-04-04T13:53:26.999Z</time></trkpt><trkpt lat="44.52006844309612" lon="10.900248413475456"><ele>127.71428571428571</ele><time>2026-04-04T13:53:27.999Z</time></trkpt><trkpt lat="44.52012298781386" lon="10.900299530886485"><ele>127.42857142857142</ele><time>2026-04-04T13:53:28.999Z</time></trkpt><trkpt lat="44.52018101162735" lon="10.900352851073503"><ele>127.14285714285714</ele><time>2026-04-04T13:53:29.999Z</time></trkpt><trkpt lat="44.52023640892266" lon="10.900406661902874"><ele>126.85714285714286</ele><time>2026-04-04T13:53:30.999Z</time></trkpt><trkpt lat="44.520292883777" lon="10.900458538983969"><ele>126.57142857142857</ele><time>2026-04-04T13:53:31.999Z</time></trkpt><trkpt lat="44.52034776103749" lon="10.900507647657596"><ele>126.28571428571428</ele><time>2026-04-04T13:53:32.999Z</time></trkpt><trkpt lat="44.52040340301729" lon="10.900556805979134"><ele>126.0</ele><time>2026-04-04T13:53:33.999Z</time></trkpt><trkpt lat="44.520460907537135" lon="10.900604779943844"><ele>126.33333333333333</ele><time>2026-04-04T13:53:34.999Z</time></trkpt><trkpt lat="44.52051564836684" lon="10.900653544201699"><ele>126.66666666666666</ele><time>2026-04-04T13:53:35.999Z</time></trkpt><trkpt lat="44.520569133860654" lon="10.900704675490521"><ele>127.0</ele><time>2026-04-04T13:53:36.999Z</time></trkpt><trkpt lat="44.520620799461675" lon="10.900762493792406"><ele>127.33333333333333</ele><time>2026-04-04T13:53:37.999Z</time></trkpt><trkpt lat="44.52067767237075" lon="10.900812882268301"><ele>127.66666666666666</ele><time>2026-04-04T13:53:38.998Z</time></trkpt><trkpt lat="44.5207855786604" lon="10.900916686417359"><ele>128.0</ele><time>2026-04-04T13:53:40.998Z</time></trkpt><trkpt lat="44.52084079466239" lon="10.900967057731446"><ele>127.99999999999999</ele><time>2026-04-04T13:53:41.998Z</time></trkpt><trkpt lat="44.520898059569454" lon="10.901016348739267"><ele>128.0</ele><time>2026-04-04T13:53:42.998Z</time></trkpt><trkpt lat="44.5209543415165" lon="10.90106354322109"><ele>128.0</ele><time>2026-04-04T13:53:43.998Z</time></trkpt><trkpt lat="44.5210573725809" lon="10.901159380128707"><ele>128.0</ele><time>2026-04-04T13:53:45.998Z</time></trkpt><trkpt lat="44.521160028115794" lon="10.901256281603061"><ele>127.99999999999999</ele><time>2026-04-04T13:53:48Z</time></trkpt><trkpt lat="44.521215338290766" lon="10.90129996965228"><ele>128.0</ele><time>2026-04-04T13:53:49Z</time></trkpt><trkpt lat="44.52127367428337" lon="10.901354527216041"><ele>127.99999999999999</ele><time>2026-04-04T13:53:50Z</time></trkpt><trkpt lat="44.52137731904882" lon="10.901449912019894"><ele>128.0</ele><time>2026-04-04T13:53:52Z</time></trkpt><trkpt lat="44.521433045559384" lon="10.901495599344184"><ele>128.0</ele><time>2026-04-04T13:53:53Z</time></trkpt><trkpt lat="44.521489205087136" lon="10.901545330037672"><ele>128.0</ele><time>2026-04-04T13:53:54Z</time></trkpt><trkpt lat="44.52154215113344" lon="10.901594313290532"><ele>127.99999999999999</ele><time>2026-04-04T13:53:55Z</time></trkpt><trkpt lat="44.52159882224341" lon="10.901645204949174"><ele>128.0</ele><time>2026-04-04T13:53:56Z</time></trkpt><trkpt lat="44.52170451519996" lon="10.90174358009439"><ele>127.83333333333333</ele><time>2026-04-04T13:53:58Z</time></trkpt><trkpt lat="44.52181114209443" lon="10.901839961677233"><ele>127.66666666666666</ele><time>2026-04-04T13:54:00Z</time></trkpt><trkpt lat="44.521867197850845" lon="10.901891713562396"><ele>127.5</ele><time>2026-04-04T13:54:01Z</time></trkpt><trkpt lat="44.521920851586025" lon="10.901942599715332"><ele>127.33333333333334</ele><time>2026-04-04T13:54:02Z</time></trkpt><trkpt lat="44.521973711215594" lon="10.901991095729684"><ele>127.16666666666667</ele><time>2026-04-04T13:54:03Z</time></trkpt><trkpt lat="44.52202772528729" lon="10.90204308855418"><ele>127.0</ele><time>2026-04-04T13:54:04Z</time></trkpt><trkpt lat="44.52213256369341" lon="10.902139981416845"><ele>127.0</ele><time>2026-04-04T13:54:06Z</time></trkpt><trkpt lat="44.52218420226911" lon="10.902194405193221"><ele>126.99999999999999</ele><time>2026-04-04T13:54:07Z</time></trkpt><trkpt lat="44.52229091035344" lon="10.902289193664906"><ele>126.99999999999999</ele><time>2026-04-04T13:54:09Z</time></trkpt><trkpt lat="44.522389736765476" lon="10.902384388021382"><ele>127.0</ele><time>2026-04-04T13:54:11Z</time></trkpt><trkpt lat="44.522493373882746" lon="10.90247497601217"><ele>127.0</ele><time>2026-04-04T13:54:13Z</time></trkpt><trkpt lat="44.52259678486839" lon="10.90256758980046"><ele>127.0</ele><time>2026-04-04T13:54:15Z</time></trkpt><trkpt lat="44.5226949651557" lon="10.902656923807202"><ele>126.99999999999999</ele><time>2026-04-04T13:54:17Z</time></trkpt><trkpt lat="44.52273865594263" lon="10.902721246174215"><ele>126.99999999999999</ele><time>2026-04-04T13:54:18Z</time></trkpt><trkpt lat="44.52283995343249" lon="10.902791479057223"><ele>127.0</ele><time>2026-04-04T13:54:20Z</time></trkpt><trkpt lat="44.52292453961699" lon="10.90288899485005"><ele>127.0</ele><time>2026-04-04T13:54:22Z</time></trkpt><trkpt lat="44.523025676127844" lon="10.902959111617172"><ele>127.19999999999999</ele><time>2026-04-04T13:54:24Z</time></trkpt><trkpt lat="44.52311565245343" lon="10.903046207661824"><ele>127.39999999999999</ele><time>2026-04-04T13:54:26Z</time></trkpt><trkpt lat="44.5231956243707" lon="10.903116115265833"><ele>127.60000000000001</ele><time>2026-04-04T13:54:28Z</time></trkpt><trkpt lat="44.523259554987014" lon="10.903160729317639"><ele>127.80000000000001</ele><time>2026-04-04T13:54:31Z</time></trkpt><trkpt lat="44.52332977396991" lon="10.903069408629626"><ele>128.0</ele><time>2026-04-04T13:54:33Z</time></trkpt><trkpt lat="44.523375836024115" lon="10.90292978813459"><ele>128.0</ele><time>2026-04-04T13:54:35Z</time></trkpt><trkpt lat="44.5234346537996" lon="10.902804069691465"><ele>128.0</ele><time>2026-04-04T13:54:36.999Z</time></trkpt><trkpt lat="44.52349618234317" lon="10.902670691879065"><ele>128.0</ele><time>2026-04-04T13:54:38.999Z</time></trkpt><trkpt lat="44.523528998318525" lon="10.902592435246333"><ele>128.0</ele><time>2026-04-04T13:54:39.999Z</time></trkpt><trkpt lat="44.52359366564404" lon="10.902442469794353"><ele>128.0</ele><time>2026-04-04T13:54:41.999Z</time></trkpt><trkpt lat="44.523625440814456" lon="10.902364989018317"><ele>127.85714285714285</ele><time>2026-04-04T13:54:42.999Z</time></trkpt><trkpt lat="44.523659467583904" lon="10.902284224721225"><ele>127.7142857142857</ele><time>2026-04-04T13:54:43.999Z</time></trkpt><trkpt lat="44.52369462507191" lon="10.90221011291537"><ele>127.57142857142857</ele><time>2026-04-04T13:54:44.999Z</time></trkpt><trkpt lat="44.52372859777351" lon="10.90213213678815"><ele>127.42857142857142</ele><time>2026-04-04T13:54:45.999Z</time></trkpt><trkpt lat="44.52375940650989" lon="10.902046687664333"><ele>127.28571428571428</ele><time>2026-04-04T13:54:46.999Z</time></trkpt><trkpt lat="44.523794335453346" lon="10.901967507290948"><ele>127.14285714285714</ele><time>2026-04-04T13:54:47.999Z</time></trkpt><trkpt lat="44.52383256846754" lon="10.90189585497702"><ele>127.0</ele><time>2026-04-04T13:54:48.999Z</time></trkpt><trkpt lat="44.523867679570756" lon="10.901816584462587"><ele>126.14285714285714</ele><time>2026-04-04T13:54:49.999Z</time></trkpt><trkpt lat="44.523902202938466" lon="10.901733205286668"><ele>125.28571428571428</ele><time>2026-04-04T13:54:50.999Z</time></trkpt><trkpt lat="44.523937074958454" lon="10.901648789278763"><ele>124.42857142857142</ele><time>2026-04-04T13:54:51.999Z</time></trkpt><trkpt lat="44.52397290836782" lon="10.901567775717496"><ele>123.57142857142857</ele><time>2026-04-04T13:54:52.999Z</time></trkpt><trkpt lat="44.524009908376094" lon="10.901485114789379"><ele>122.7142857142857</ele><time>2026-04-04T13:54:53.999Z</time></trkpt><trkpt lat="44.52404581022651" lon="10.901403118342959"><ele>121.85714285714285</ele><time>2026-04-04T13:54:54.999Z</time></trkpt><trkpt lat="44.52408216566771" lon="10.901324063329735"><ele>121.0</ele><time>2026-04-04T13:54:55.999Z</time></trkpt><trkpt lat="44.524116698938855" lon="10.901240369923535"><ele>121.0</ele><time>2026-04-04T13:54:56.999Z</time></trkpt><trkpt lat="44.52415148367432" lon="10.901156780811519"><ele>120.99999999999999</ele><time>2026-04-04T13:54:57.999Z</time></trkpt><trkpt lat="44.52418667125333" lon="10.901077863508018"><ele>121.0</ele><time>2026-04-04T13:54:58.999Z</time></trkpt><trkpt lat="44.5242236255401" lon="10.900993415322162"><ele>121.0</ele><time>2026-04-04T13:54:59.999Z</time></trkpt><trkpt lat="44.52426039224165" lon="10.90091107245081"><ele>120.99999999999999</ele><time>2026-04-04T13:55:00.999Z</time></trkpt><trkpt lat="44.52429586942555" lon="10.90082913349046"><ele>121.0</ele><time>2026-04-04T13:55:01.999Z</time></trkpt><trkpt lat="44.524331606476736" lon="10.900749925618802"><ele>121.0</ele><time>2026-04-04T13:55:02.999Z</time></trkpt><trkpt lat="44.524365693204736" lon="10.900669585468814"><ele>120.71428571428571</ele><time>2026-04-04T13:55:03.999Z</time></trkpt><trkpt lat="44.52439914809732" lon="10.900589816171388"><ele>120.42857142857142</ele><time>2026-04-04T13:55:04.999Z</time></trkpt><trkpt lat="44.524434115133595" lon="10.900511527020907"><ele>120.14285714285714</ele><time>2026-04-04T13:55:05.999Z</time></trkpt><trkpt lat="44.52446885049749" lon="10.900432329931528"><ele>119.85714285714286</ele><time>2026-04-04T13:55:06.999Z</time></trkpt><trkpt lat="44.524502651489186" lon="10.900353098895895"><ele>119.57142857142857</ele><time>2026-04-04T13:55:07.999Z</time></trkpt><trkpt lat="44.52453707935657" lon="10.900274285159446"><ele>119.28571428571428</ele><time>2026-04-04T13:55:08.999Z</time></trkpt><trkpt lat="44.52457250305654" lon="10.90019844315987"><ele>119.0</ele><time>2026-04-04T13:55:09.999Z</time></trkpt><trkpt lat="44.52463892265893" lon="10.900047101082258"><ele>118.80000000000001</ele><time>2026-04-04T13:55:11.999Z</time></trkpt><trkpt lat="44.52467297700085" lon="10.899971399583976"><ele>118.60000000000001</ele><time>2026-04-04T13:55:12.999Z</time></trkpt><trkpt lat="44.524706114111176" lon="10.899894110222721"><ele>118.4</ele><time>2026-04-04T13:55:13.999Z</time></trkpt><trkpt lat="44.52476993442323" lon="10.899749407230349"><ele>118.2</ele><time>2026-04-04T13:55:15.999Z</time></trkpt><trkpt lat="44.52483003040263" lon="10.89960749682487"><ele>118.0</ele><time>2026-04-04T13:55:17.999Z</time></trkpt><trkpt lat="44.524886015712205" lon="10.899469434064073"><ele>118.0</ele><time>2026-04-04T13:55:19.999Z</time></trkpt><trkpt lat="44.524945481015585" lon="10.899334037099544"><ele>118.0</ele><time>2026-04-04T13:55:21.999Z</time></trkpt><trkpt lat="44.525005514104606" lon="10.89919235085104"><ele>118.0</ele><time>2026-04-04T13:55:23.999Z</time></trkpt><trkpt lat="44.52506853613157" lon="10.899046771334717"><ele>118.0</ele><time>2026-04-04T13:55:25.999Z</time></trkpt><trkpt lat="44.525127105255315" lon="10.89890173214709"><ele>118.25</ele><time>2026-04-04T13:55:27.999Z</time></trkpt><trkpt lat="44.52519151000124" lon="10.898763852525738"><ele>118.5</ele><time>2026-04-04T13:55:29.999Z</time></trkpt><trkpt lat="44.52525517193893" lon="10.898628418637083"><ele>118.75</ele><time>2026-04-04T13:55:31.999Z</time></trkpt><trkpt lat="44.525314369878906" lon="10.898492891742594"><ele>119.0</ele><time>2026-04-04T13:55:33.999Z</time></trkpt><trkpt lat="44.52537037502514" lon="10.898359418427189"><ele>120.0</ele><time>2026-04-04T13:55:35.999Z</time></trkpt><trkpt lat="44.52542836451978" lon="10.898234266667673"><ele>121.0</ele><time>2026-04-04T13:55:37.999Z</time></trkpt><trkpt lat="44.52548788055902" lon="10.898102911694949"><ele>122.0</ele><time>2026-04-04T13:55:39.999Z</time></trkpt><trkpt lat="44.52554790030381" lon="10.897968439116976"><ele>123.0</ele><time>2026-04-04T13:55:41.999Z</time></trkpt><trkpt lat="44.52560590400971" lon="10.89783303620165"><ele>124.0</ele><time>2026-04-04T13:55:43.998Z</time></trkpt><trkpt lat="44.525668812367385" lon="10.897704159030994"><ele>123.80000000000001</ele><time>2026-04-04T13:55:45.998Z</time></trkpt><trkpt lat="44.52572669328425" lon="10.89756891153456"><ele>123.60000000000001</ele><time>2026-04-04T13:55:47.998Z</time></trkpt><trkpt lat="44.52578525034853" lon="10.89744566693148"><ele>123.4</ele><time>2026-04-04T13:55:49.998Z</time></trkpt><trkpt lat="44.52584607642496" lon="10.897327553283278"><ele>123.2</ele><time>2026-04-04T13:55:51.998Z</time></trkpt><trkpt lat="44.525909741545824" lon="10.897209463860271"><ele>123.0</ele><time>2026-04-04T13:55:54Z</time></trkpt><trkpt lat="44.525982325802765" lon="10.897106256254004"><ele>123.0</ele><time>2026-04-04T13:55:56Z</time></trkpt><trkpt lat="44.52608193874312" lon="10.897040147540059"><ele>123.00000000000001</ele><time>2026-04-04T13:55:58Z</time></trkpt><trkpt lat="44.526200937992265" lon="10.897005784667309"><ele>123.00000000000001</ele><time>2026-04-04T13:56:00Z</time></trkpt><trkpt lat="44.526313859149994" lon="10.896925059768538"><ele>123.0</ele><time>2026-04-04T13:56:02Z</time></trkpt><trkpt lat="44.52636552844221" lon="10.89686055206874"><ele>123.0</ele><time>2026-04-04T13:56:03Z</time></trkpt><trkpt lat="44.52640494316478" lon="10.89678555198506"><ele>123.4</ele><time>2026-04-04T13:56:04Z</time></trkpt><trkpt lat="44.52642090131117" lon="10.896693230340167"><ele>123.80000000000001</ele><time>2026-04-04T13:56:05Z</time></trkpt><trkpt lat="44.52642385581126" lon="10.896518475924303"><ele>124.2</ele><time>2026-04-04T13:56:07Z</time></trkpt><trkpt lat="44.526389084668494" lon="10.896351022738443"><ele>124.6</ele><time>2026-04-04T13:56:09Z</time></trkpt><trkpt lat="44.52638766557234" lon="10.896186661273516"><ele>125.0</ele><time>2026-04-04T13:56:11Z</time></trkpt><trkpt lat="44.52639832732577" lon="10.896027037951823"><ele>125.0</ele><time>2026-04-04T13:56:13Z</time></trkpt><trkpt lat="44.52644584170858" lon="10.895957435951926"><ele>125.0</ele><time>2026-04-04T13:56:14Z</time></trkpt><trkpt lat="44.52650712700702" lon="10.89581930615924"><ele>125.0</ele><time>2026-04-04T13:56:16Z</time></trkpt><trkpt lat="44.52656715664691" lon="10.895690875089421"><ele>125.0</ele><time>2026-04-04T13:56:18Z</time></trkpt><trkpt lat="44.5265972982662" lon="10.895612615798166"><ele>125.0</ele><time>2026-04-04T13:56:19Z</time></trkpt><trkpt lat="44.52665719328457" lon="10.895465547789549"><ele>125.25</ele><time>2026-04-04T13:56:21Z</time></trkpt><trkpt lat="44.52671335524785" lon="10.89532571924947"><ele>125.5</ele><time>2026-04-04T13:56:23Z</time></trkpt><trkpt lat="44.52677424234128" lon="10.895192108679506"><ele>125.75</ele><time>2026-04-04T13:56:25Z</time></trkpt><trkpt lat="44.52683491900279" lon="10.895057037549098"><ele>126.0</ele><time>2026-04-04T13:56:27Z</time></trkpt><trkpt lat="44.52689776659285" lon="10.89492629522323"><ele>126.0</ele><time>2026-04-04T13:56:29Z</time></trkpt><trkpt lat="44.52695702671251" lon="10.89479085710053"><ele>126.0</ele><time>2026-04-04T13:56:31Z</time></trkpt><trkpt lat="44.52701498988108" lon="10.89466141188409"><ele>126.0</ele><time>2026-04-04T13:56:33Z</time></trkpt><trkpt lat="44.52707018728249" lon="10.894537501337412"><ele>126.0</ele><time>2026-04-04T13:56:35Z</time></trkpt><trkpt lat="44.5271204000905" lon="10.894418893886085"><ele>126.0</ele><time>2026-04-04T13:56:37Z</time></trkpt><trkpt lat="44.52717593322373" lon="10.894295175873374"><ele>126.0</ele><time>2026-04-04T13:56:39Z</time></trkpt><trkpt lat="44.527230432314695" lon="10.894185769937069"><ele>126.0</ele><time>2026-04-04T13:56:41Z</time></trkpt><trkpt lat="44.527283992978475" lon="10.89407065350654"><ele>126.0</ele><time>2026-04-04T13:56:42.999Z</time></trkpt><trkpt lat="44.52733335793289" lon="10.893943724709192"><ele>126.0</ele><time>2026-04-04T13:56:44.999Z</time></trkpt><trkpt lat="44.527389462948555" lon="10.893829781075816"><ele>126.0</ele><time>2026-04-04T13:56:46.999Z</time></trkpt><trkpt lat="44.52743981116534" lon="10.893710097376074"><ele>126.0</ele><time>2026-04-04T13:56:48.999Z</time></trkpt><trkpt lat="44.52748958821912" lon="10.893598635631074"><ele>126.0</ele><time>2026-04-04T13:56:50.999Z</time></trkpt><trkpt lat="44.52753611574548" lon="10.893484392073226"><ele>126.0</ele><time>2026-04-04T13:56:52.999Z</time></trkpt><trkpt lat="44.52758594047345" lon="10.893358794060427"><ele>126.0</ele><time>2026-04-04T13:56:54.999Z</time></trkpt><trkpt lat="44.527639271735296" lon="10.893243297191981"><ele>126.0</ele><time>2026-04-04T13:56:56.999Z</time></trkpt><trkpt lat="44.52769152749545" lon="10.893120111058794"><ele>126.19999999999999</ele><time>2026-04-04T13:56:58.999Z</time></trkpt><trkpt lat="44.527739712008504" lon="10.892998773544326"><ele>126.39999999999999</ele><time>2026-04-04T13:57:00.999Z</time></trkpt><trkpt lat="44.5277879590577" lon="10.8928757790527"><ele>126.6</ele><time>2026-04-04T13:57:02.999Z</time></trkpt><trkpt lat="44.52783156648835" lon="10.892744693847519"><ele>126.8</ele><time>2026-04-04T13:57:04.999Z</time></trkpt><trkpt lat="44.52786897378074" lon="10.892610268797629"><ele>127.0</ele><time>2026-04-04T13:57:06.999Z</time></trkpt><trkpt lat="44.52787540455324" lon="10.892464339005278"><ele>127.19999999999999</ele><time>2026-04-04T13:57:08.999Z</time></trkpt><trkpt lat="44.52787317029899" lon="10.89231910912981"><ele>127.39999999999999</ele><time>2026-04-04T13:57:10.999Z</time></trkpt><trkpt lat="44.52784374007562" lon="10.892172708868408"><ele>127.60000000000001</ele><time>2026-04-04T13:57:12.999Z</time></trkpt><trkpt lat="44.52780556399214" lon="10.892028468332047"><ele>127.80000000000001</ele><time>2026-04-04T13:57:14.999Z</time></trkpt><trkpt lat="44.52776836699505" lon="10.891884706243147"><ele>128.0</ele><time>2026-04-04T13:57:16.999Z</time></trkpt><trkpt lat="44.52773496263586" lon="10.891741129287992"><ele>127.25</ele><time>2026-04-04T13:57:18.999Z</time></trkpt><trkpt lat="44.52769961835918" lon="10.891589507264898"><ele>126.5</ele><time>2026-04-04T13:57:20.999Z</time></trkpt><trkpt lat="44.52766047184576" lon="10.891439835287992"><ele>125.75</ele><time>2026-04-04T13:57:22.999Z</time></trkpt><trkpt lat="44.527621638917324" lon="10.891284646397558"><ele>125.0</ele><time>2026-04-04T13:57:24.999Z</time></trkpt><trkpt lat="44.5276029290404" lon="10.891123334425382"><ele>125.0</ele><time>2026-04-04T13:57:26.999Z</time></trkpt><trkpt lat="44.52758552533732" lon="10.890962361714132"><ele>125.0</ele><time>2026-04-04T13:57:28.999Z</time></trkpt><trkpt lat="44.52758822622549" lon="10.890800179343227"><ele>125.0</ele><time>2026-04-04T13:57:30.999Z</time></trkpt><trkpt lat="44.527626733902544" lon="10.890654677165678"><ele>125.0</ele><time>2026-04-04T13:57:32.999Z</time></trkpt><trkpt lat="44.527660857654006" lon="10.890503223361684"><ele>125.0</ele><time>2026-04-04T13:57:34.999Z</time></trkpt><trkpt lat="44.527693745679755" lon="10.890362905114287"><ele>125.0</ele><time>2026-04-04T13:57:36.999Z</time></trkpt><trkpt lat="44.52755541427212" lon="10.890266894999687"><ele>125.0</ele><time>2026-04-04T13:57:38.999Z</time></trkpt><trkpt lat="44.52746493796182" lon="10.89021596940936"><ele>125.0</ele><time>2026-04-04T13:57:40.999Z</time></trkpt><trkpt lat="44.527371349376665" lon="10.890187263873738"><ele>125.0</ele><time>2026-04-04T13:57:42.999Z</time></trkpt><trkpt lat="44.52729155245519" lon="10.89011554819078"><ele>125.0</ele><time>2026-04-04T13:57:44.999Z</time></trkpt><trkpt lat="44.52720750670697" lon="10.89007039672903"><ele>125.0</ele><time>2026-04-04T13:57:46.999Z</time></trkpt><trkpt lat="44.52720309747322" lon="10.88990584439814"><ele>125.0</ele><time>2026-04-04T13:57:49.998Z</time></trkpt><trkpt lat="44.52724543252689" lon="10.88979337132169"><ele>125.0</ele><time>2026-04-04T13:57:51.998Z</time></trkpt><trkpt lat="44.52724204374839" lon="10.889672816490634"><ele>125.2</ele><time>2026-04-04T13:57:53.998Z</time></trkpt><trkpt lat="44.52714403008422" lon="10.889615133487256"><ele>125.4</ele><time>2026-04-04T13:57:55.998Z</time></trkpt><trkpt lat="44.52705879786069" lon="10.889551650656907"><ele>125.6</ele><time>2026-04-04T13:57:57.998Z</time></trkpt><trkpt lat="44.52696675304975" lon="10.88949400232881"><ele>125.8</ele><time>2026-04-04T13:58:00Z</time></trkpt><trkpt lat="44.526869867001984" lon="10.889455968330324"><ele>126.0</ele><time>2026-04-04T13:58:02Z</time></trkpt><trkpt lat="44.526777473921385" lon="10.889389110173884"><ele>126.4</ele><time>2026-04-04T13:58:04Z</time></trkpt><trkpt lat="44.5266892101701" lon="10.889315962527007"><ele>126.8</ele><time>2026-04-04T13:58:06Z</time></trkpt><trkpt lat="44.526605208730686" lon="10.889270382523842"><ele>127.20000000000002</ele><time>2026-04-04T13:58:08Z</time></trkpt><trkpt lat="44.52651562483421" lon="10.889224702741208"><ele>127.60000000000001</ele><time>2026-04-04T13:58:10Z</time></trkpt><trkpt lat="44.5264329447253" lon="10.88916870837476"><ele>128.0</ele><time>2026-04-04T13:58:12Z</time></trkpt><trkpt lat="44.526345742340254" lon="10.88911847948062"><ele>128.33333333333331</ele><time>2026-04-04T13:58:14Z</time></trkpt><trkpt lat="44.52626180253008" lon="10.889067241178006"><ele>128.66666666666666</ele><time>2026-04-04T13:58:16Z</time></trkpt><trkpt lat="44.526190135273914" lon="10.889011566877478"><ele>129.0</ele><time>2026-04-04T13:58:18Z</time></trkpt><trkpt lat="44.52611679848783" lon="10.888978297093487"><ele>129.33333333333334</ele><time>2026-04-04T13:58:20Z</time></trkpt><trkpt lat="44.52605496627565" lon="10.888949022943894"><ele>129.66666666666669</ele><time>2026-04-04T13:58:22Z</time></trkpt><trkpt lat="44.525995068815135" lon="10.888887047350515"><ele>130.0</ele><time>2026-04-04T13:58:25Z</time></trkpt><trkpt lat="44.52593325560861" lon="10.8888488461696"><ele>130.0</ele><time>2026-04-04T13:58:31Z</time></trkpt><trkpt lat="44.5258485658174" lon="10.888796507018009"><ele>130.0</ele><time>2026-04-04T13:58:34Z</time></trkpt><trkpt lat="44.525774570935084" lon="10.888793070264647"><ele>130.0</ele><time>2026-04-04T13:58:36Z</time></trkpt><trkpt lat="44.5256989092338" lon="10.888733712025626"><ele>130.0</ele><time>2026-04-04T13:58:38Z</time></trkpt><trkpt lat="44.525621380536805" lon="10.888678076487782"><ele>130.0</ele><time>2026-04-04T13:58:40Z</time></trkpt><trkpt lat="44.52553015216877" lon="10.888641540915136"><ele>130.0</ele><time>2026-04-04T13:58:42Z</time></trkpt><trkpt lat="44.52543656025987" lon="10.88860518278599"><ele>130.0</ele><time>2026-04-04T13:58:44Z</time></trkpt><trkpt lat="44.52534812859694" lon="10.888591291316533"><ele>130.0</ele><time>2026-04-04T13:58:46Z</time></trkpt><trkpt lat="44.52526488688172" lon="10.888548759693812"><ele>130.0</ele><time>2026-04-04T13:58:47.999Z</time></trkpt><trkpt lat="44.52518452730318" lon="10.888486594401558"><ele>130.0</ele><time>2026-04-04T13:58:49.999Z</time></trkpt><trkpt lat="44.52510405774471" lon="10.888417301865275"><ele>130.0</ele><time>2026-04-04T13:58:51.999Z</time></trkpt><trkpt lat="44.5250172804812" lon="10.888379115522914"><ele>130.0</ele><time>2026-04-04T13:58:53.999Z</time></trkpt><trkpt lat="44.5249240900997" lon="10.888348032330779"><ele>130.0</ele><time>2026-04-04T13:58:55.999Z</time></trkpt><trkpt lat="44.52482655559335" lon="10.888312681212504"><ele>130.0</ele><time>2026-04-04T13:58:57.999Z</time></trkpt><trkpt lat="44.52475059886839" lon="10.888251748129308"><ele>130.0</ele><time>2026-04-04T13:58:59.999Z</time></trkpt><trkpt lat="44.524693480104474" lon="10.888214173403027"><ele>130.0</ele><time>2026-04-04T13:59:04.999Z</time></trkpt><trkpt lat="44.52465147810939" lon="10.888125637405297"><ele>130.0</ele><time>2026-04-04T13:59:08.999Z</time></trkpt><trkpt lat="44.52457817750161" lon="10.888082819522717"><ele>130.66666666666669</ele><time>2026-04-04T13:59:11.999Z</time></trkpt><trkpt lat="44.52450241900643" lon="10.888039868931065"><ele>131.33333333333334</ele><time>2026-04-04T13:59:14.999Z</time></trkpt><trkpt lat="44.52440931624861" lon="10.88800529660954"><ele>132.0</ele><time>2026-04-04T13:59:17.999Z</time></trkpt><trkpt lat="44.52433633747241" lon="10.887952844954697"><ele>132.66666666666666</ele><time>2026-04-04T13:59:20.999Z</time></trkpt><trkpt lat="44.52425204512559" lon="10.887903372801635"><ele>133.33333333333331</ele><time>2026-04-04T13:59:23.999Z</time></trkpt><trkpt lat="44.52417681117874" lon="10.887845175193357"><ele>134.0</ele><time>2026-04-04T13:59:26.999Z</time></trkpt><trkpt lat="44.524115898392175" lon="10.887868498139627"><ele>134.0</ele><time>2026-04-04T13:59:28.999Z</time></trkpt><trkpt lat="44.52402546215261" lon="10.887887009429638"><ele>134.0</ele><time>2026-04-04T13:59:31.999Z</time></trkpt><trkpt lat="44.52395539807263" lon="10.887851012456585"><ele>134.0</ele><time>2026-04-04T13:59:33.999Z</time></trkpt><trkpt lat="44.523897847967916" lon="10.88780727082491"><ele>134.0</ele><time>2026-04-04T13:59:35.999Z</time></trkpt><trkpt lat="44.523836696566455" lon="10.887773380226884"><ele>134.0</ele><time>2026-04-04T13:59:37.999Z</time></trkpt><trkpt lat="44.523769080885046" lon="10.887712850135092"><ele>134.0</ele><time>2026-04-04T13:59:40.999Z</time></trkpt><trkpt lat="44.52369576137163" lon="10.887655131070138"><ele>134.0</ele><time>2026-04-04T13:59:43.999Z</time></trkpt><trkpt lat="44.523617669854694" lon="10.887605155216281"><ele>134.0</ele><time>2026-04-04T13:59:46.999Z</time></trkpt><trkpt lat="44.52353956090243" lon="10.887552658851671"><ele>134.0</ele><time>2026-04-04T13:59:49.999Z</time></trkpt><trkpt lat="44.52348170570403" lon="10.887491167196522"><ele>134.0</ele><time>2026-04-04T13:59:52.999Z</time></trkpt><trkpt lat="44.52339606408416" lon="10.887597092706821"><ele>134.0</ele><time>2026-04-04T13:59:56.998Z</time></trkpt><trkpt lat="44.52336458466887" lon="10.8877151702826"><ele>134.0</ele><time>2026-04-04T13:59:59.998Z</time></trkpt><trkpt lat="44.5233249746251" lon="10.887825173678358"><ele>134.0</ele><time>2026-04-04T14:00:02.998Z</time></trkpt><trkpt lat="44.523297922266124" lon="10.88790545161169"><ele>134.0</ele><time>2026-04-04T14:00:05Z</time></trkpt><trkpt lat="44.5232458811275" lon="10.888009280182484"><ele>134.0</ele><time>2026-04-04T14:00:08Z</time></trkpt><trkpt lat="44.52322814933616" lon="10.888114249873343"><ele>134.0</ele><time>2026-04-04T14:00:11Z</time></trkpt><trkpt lat="44.52317914215366" lon="10.888234129177095"><ele>134.0</ele><time>2026-04-04T14:00:14Z</time></trkpt><trkpt lat="44.5231265882927" lon="10.888304476103196"><ele>134.0</ele><time>2026-04-04T14:00:17Z</time></trkpt><trkpt lat="44.52303585214658" lon="10.888200178630726"><ele>134.0</ele><time>2026-04-04T14:00:19Z</time></trkpt><trkpt lat="44.522968024260635" lon="10.888152805697702"><ele>134.0</ele><time>2026-04-04T14:00:22Z</time></trkpt><trkpt lat="44.522901825347176" lon="10.888351736395778"><ele>134.0</ele><time>2026-04-04T14:00:29Z</time></trkpt><trkpt lat="44.522968876580755" lon="10.888153400970818"><ele>134.0</ele><time>2026-04-04T14:00:35Z</time></trkpt><trkpt lat="44.52290750917043" lon="10.888325088749284"><ele>134.0</ele><time>2026-04-04T14:00:39Z</time></trkpt><trkpt lat="44.522967334031755" lon="10.88815232359321"><ele>134.0</ele><time>2026-04-04T14:00:46Z</time></trkpt><trkpt lat="44.522905787363676" lon="10.888324512881605"><ele>134.0</ele><time>2026-04-04T14:00:48Z</time></trkpt><trkpt lat="44.52296733402036" lon="10.888152323625105"><ele>134.0</ele><time>2026-04-04T14:01:00.999Z</time></trkpt><trkpt lat="44.52291362065167" lon="10.888303240190545"><ele>134.0</ele><time>2026-04-04T14:01:07.999Z</time></trkpt><trkpt lat="44.52296749987162" lon="10.888152439461518"><ele>134.0</ele><time>2026-04-04T14:01:10.999Z</time></trkpt><trkpt lat="44.52291360146933" lon="10.888303231174966"><ele>134.0</ele><time>2026-04-04T14:01:29.999Z</time></trkpt><trkpt lat="44.5229674998724" lon="10.888152439459347"><ele>134.0</ele><time>2026-04-04T14:01:33.999Z</time></trkpt><trkpt lat="44.52292523131121" lon="10.888292076958258"><ele>134.0</ele><time>2026-04-04T14:01:57.998Z</time></trkpt><trkpt lat="44.52298007280964" lon="10.888161220750897"><ele>134.0</ele><time>2026-04-04T14:02:04.998Z</time></trkpt><trkpt lat="44.52291003182363" lon="10.88829360871705"><ele>134.0</ele><time>2026-04-04T14:02:08.998Z</time></trkpt><trkpt lat="44.522955988730146" lon="10.888144399692608"><ele>134.0</ele><time>2026-04-04T14:02:11Z</time></trkpt><trkpt lat="44.5229253164512" lon="10.888389321588718"><ele>134.0</ele><time>2026-04-04T14:02:28Z</time></trkpt><trkpt lat="44.52296707192413" lon="10.888152140571778"><ele>134.0</ele><time>2026-04-04T14:02:32Z</time></trkpt><trkpt lat="44.522898505076" lon="10.888341537994862"><ele>134.0</ele><time>2026-04-04T14:02:37Z</time></trkpt><trkpt lat="44.522689087358096" lon="10.887947548190958"><ele>134.0</ele><time>2026-04-04T14:02:53Z</time></trkpt><trkpt lat="44.52288888769421" lon="10.888313320303306"><ele>134.0</ele><time>2026-04-04T14:02:55.999Z</time></trkpt><trkpt lat="44.52283571277802" lon="10.888195826088795"><ele>134.0</ele><time>2026-04-04T14:03:29.999Z</time></trkpt><trkpt lat="44.52290526851819" lon="10.888228231286833"><ele>134.0</ele><time>2026-04-04T14:03:43.999Z</time></trkpt></trkseg></trk></gpx>